<?xml version="1.0" encoding="UTF-8" standalone="no" ?>
<gpx xmlns="http://www.topografix.com/GPX/1/1" xmlns:xsi="http://www.w3.org/2001/XMLSchema-instance" xsi:schemaLocation="http://www.topografix.com/GPX/1/1 http://www.topografix.com/GPX/1/1/gpx.xsd" version="1.1" creator="VisuGPX - https://www.visugpx.com">
  <metadata>
    <name>VTT-Esterel</name>
    <desc><![CDATA[théoule-cadière-lac de l'écureuil-3 termes]]></desc>
  </metadata>
  <trk>
    <name><![CDATA[VTT esterel]]></name>
    <trkseg>
      <trkpt lat="43.50354" lon="6.93731">
        <ele>37</ele>
        <time>2012-01-07T07:40:17.000Z</time>
      </trkpt>
      <trkpt lat="43.50355" lon="6.93722">
        <ele>37.599998474121</ele>
        <time>2012-01-07T07:40:43.000Z</time>
      </trkpt>
      <trkpt lat="43.50354" lon="6.93725">
        <ele>37.400001525879</ele>
        <time>2012-01-07T07:41:07.000Z</time>
      </trkpt>
      <trkpt lat="43.50347" lon="6.93719">
        <ele>37.799999237061</ele>
        <time>2012-01-07T07:41:13.000Z</time>
      </trkpt>
      <trkpt lat="43.50341" lon="6.93724">
        <ele>37.799999237061</ele>
        <time>2012-01-07T07:41:17.000Z</time>
      </trkpt>
      <trkpt lat="43.50336" lon="6.93722">
        <ele>38</ele>
        <time>2012-01-07T07:41:20.000Z</time>
      </trkpt>
      <trkpt lat="43.50318" lon="6.93709">
        <ele>39.799999237061</ele>
        <time>2012-01-07T07:41:27.000Z</time>
      </trkpt>
      <trkpt lat="43.50302" lon="6.93708">
        <ele>41.799999237061</ele>
        <time>2012-01-07T07:41:33.000Z</time>
      </trkpt>
      <trkpt lat="43.50292" lon="6.93709">
        <ele>43</ele>
        <time>2012-01-07T07:41:39.000Z</time>
      </trkpt>
      <trkpt lat="43.50288" lon="6.93704">
        <ele>43.400001525879</ele>
        <time>2012-01-07T07:41:41.000Z</time>
      </trkpt>
      <trkpt lat="43.50272" lon="6.93709">
        <ele>45.400001525879</ele>
        <time>2012-01-07T07:41:46.000Z</time>
      </trkpt>
      <trkpt lat="43.50264" lon="6.93707">
        <ele>46.400001525879</ele>
        <time>2012-01-07T07:41:48.000Z</time>
      </trkpt>
      <trkpt lat="43.50241" lon="6.93698">
        <ele>48.599998474121</ele>
        <time>2012-01-07T07:41:54.000Z</time>
      </trkpt>
      <trkpt lat="43.50224" lon="6.93694">
        <ele>49.599998474121</ele>
        <time>2012-01-07T07:42:00.000Z</time>
      </trkpt>
      <trkpt lat="43.50211" lon="6.93695">
        <ele>50</ele>
        <time>2012-01-07T07:42:06.000Z</time>
      </trkpt>
      <trkpt lat="43.50199" lon="6.93691">
        <ele>50.799999237061</ele>
        <time>2012-01-07T07:42:11.000Z</time>
      </trkpt>
      <trkpt lat="43.50189" lon="6.93691">
        <ele>51.200000762939</ele>
        <time>2012-01-07T07:42:16.000Z</time>
      </trkpt>
      <trkpt lat="43.50188" lon="6.9369">
        <ele>51.400001525879</ele>
        <time>2012-01-07T07:42:18.000Z</time>
      </trkpt>
      <trkpt lat="43.50163" lon="6.93707">
        <ele>50.799999237061</ele>
        <time>2012-01-07T07:42:24.000Z</time>
      </trkpt>
      <trkpt lat="43.50148" lon="6.93714">
        <ele>49.799999237061</ele>
        <time>2012-01-07T07:42:30.000Z</time>
      </trkpt>
      <trkpt lat="43.50135" lon="6.93713">
        <ele>49.200000762939</ele>
        <time>2012-01-07T07:42:35.000Z</time>
      </trkpt>
      <trkpt lat="43.50123" lon="6.93712">
        <ele>48.599998474121</ele>
        <time>2012-01-07T07:42:40.000Z</time>
      </trkpt>
      <trkpt lat="43.50107" lon="6.93705">
        <ele>47.799999237061</ele>
        <time>2012-01-07T07:42:47.000Z</time>
      </trkpt>
      <trkpt lat="43.50091" lon="6.93698">
        <ele>46.599998474121</ele>
        <time>2012-01-07T07:42:53.000Z</time>
      </trkpt>
      <trkpt lat="43.50076" lon="6.93693">
        <ele>45.799999237061</ele>
        <time>2012-01-07T07:42:59.000Z</time>
      </trkpt>
      <trkpt lat="43.50065" lon="6.93692">
        <ele>45.400001525879</ele>
        <time>2012-01-07T07:43:05.000Z</time>
      </trkpt>
      <trkpt lat="43.50054" lon="6.93689">
        <ele>45</ele>
        <time>2012-01-07T07:43:12.000Z</time>
      </trkpt>
      <trkpt lat="43.50048" lon="6.93689">
        <ele>44.799999237061</ele>
        <time>2012-01-07T07:43:17.000Z</time>
      </trkpt>
      <trkpt lat="43.5004" lon="6.93693">
        <ele>45</ele>
        <time>2012-01-07T07:43:23.000Z</time>
      </trkpt>
      <trkpt lat="43.50027" lon="6.93696">
        <ele>45</ele>
        <time>2012-01-07T07:43:30.000Z</time>
      </trkpt>
      <trkpt lat="43.50015" lon="6.93693">
        <ele>44.400001525879</ele>
        <time>2012-01-07T07:43:36.000Z</time>
      </trkpt>
      <trkpt lat="43.50006" lon="6.93689">
        <ele>43.400001525879</ele>
        <time>2012-01-07T07:43:41.000Z</time>
      </trkpt>
      <trkpt lat="43.49992" lon="6.93682">
        <ele>42.799999237061</ele>
        <time>2012-01-07T07:43:48.000Z</time>
      </trkpt>
      <trkpt lat="43.49982" lon="6.93677">
        <ele>42.599998474121</ele>
        <time>2012-01-07T07:43:55.000Z</time>
      </trkpt>
      <trkpt lat="43.49974" lon="6.93674">
        <ele>42.599998474121</ele>
        <time>2012-01-07T07:44:02.000Z</time>
      </trkpt>
      <trkpt lat="43.49964" lon="6.9367">
        <ele>42.799999237061</ele>
        <time>2012-01-07T07:44:10.000Z</time>
      </trkpt>
      <trkpt lat="43.49954" lon="6.93665">
        <ele>43</ele>
        <time>2012-01-07T07:44:17.000Z</time>
      </trkpt>
      <trkpt lat="43.49942" lon="6.93658">
        <ele>44.599998474121</ele>
        <time>2012-01-07T07:44:24.000Z</time>
      </trkpt>
      <trkpt lat="43.49934" lon="6.93652">
        <ele>45.599998474121</ele>
        <time>2012-01-07T07:44:31.000Z</time>
      </trkpt>
      <trkpt lat="43.49922" lon="6.93656">
        <ele>46</ele>
        <time>2012-01-07T07:44:38.000Z</time>
      </trkpt>
      <trkpt lat="43.49917" lon="6.93658">
        <ele>46.400001525879</ele>
        <time>2012-01-07T07:44:41.000Z</time>
      </trkpt>
      <trkpt lat="43.49908" lon="6.93665">
        <ele>47.200000762939</ele>
        <time>2012-01-07T07:44:49.000Z</time>
      </trkpt>
      <trkpt lat="43.49896" lon="6.93667">
        <ele>48.599998474121</ele>
        <time>2012-01-07T07:44:54.000Z</time>
      </trkpt>
      <trkpt lat="43.49885" lon="6.93664">
        <ele>49.799999237061</ele>
        <time>2012-01-07T07:45:00.000Z</time>
      </trkpt>
      <trkpt lat="43.49876" lon="6.93659">
        <ele>50.599998474121</ele>
        <time>2012-01-07T07:45:06.000Z</time>
      </trkpt>
      <trkpt lat="43.49875" lon="6.93658">
        <ele>50.799999237061</ele>
        <time>2012-01-07T07:45:07.000Z</time>
      </trkpt>
      <trkpt lat="43.49869" lon="6.93659">
        <ele>51.400001525879</ele>
        <time>2012-01-07T07:45:12.000Z</time>
      </trkpt>
      <trkpt lat="43.49862" lon="6.93658">
        <ele>52</ele>
        <time>2012-01-07T07:45:20.000Z</time>
      </trkpt>
      <trkpt lat="43.49854" lon="6.93654">
        <ele>52.599998474121</ele>
        <time>2012-01-07T07:45:27.000Z</time>
      </trkpt>
      <trkpt lat="43.4984" lon="6.93647">
        <ele>53.200000762939</ele>
        <time>2012-01-07T07:45:35.000Z</time>
      </trkpt>
      <trkpt lat="43.49828" lon="6.93638">
        <ele>54.200000762939</ele>
        <time>2012-01-07T07:45:43.000Z</time>
      </trkpt>
      <trkpt lat="43.49811" lon="6.93628">
        <ele>56.599998474121</ele>
        <time>2012-01-07T07:45:53.000Z</time>
      </trkpt>
      <trkpt lat="43.49807" lon="6.93624">
        <ele>57</ele>
        <time>2012-01-07T07:45:57.000Z</time>
      </trkpt>
      <trkpt lat="43.498" lon="6.93626">
        <ele>58.599998474121</ele>
        <time>2012-01-07T07:46:01.000Z</time>
      </trkpt>
      <trkpt lat="43.4979" lon="6.93626">
        <ele>60.599998474121</ele>
        <time>2012-01-07T07:46:07.000Z</time>
      </trkpt>
      <trkpt lat="43.49782" lon="6.93617">
        <ele>60.799999237061</ele>
        <time>2012-01-07T07:46:13.000Z</time>
      </trkpt>
      <trkpt lat="43.4977" lon="6.93606">
        <ele>60.799999237061</ele>
        <time>2012-01-07T07:46:21.000Z</time>
      </trkpt>
      <trkpt lat="43.49763" lon="6.93596">
        <ele>59.799999237061</ele>
        <time>2012-01-07T07:46:28.000Z</time>
      </trkpt>
      <trkpt lat="43.49753" lon="6.93583">
        <ele>58.599998474121</ele>
        <time>2012-01-07T07:46:36.000Z</time>
      </trkpt>
      <trkpt lat="43.49742" lon="6.93571">
        <ele>59.799999237061</ele>
        <time>2012-01-07T07:46:42.000Z</time>
      </trkpt>
      <trkpt lat="43.49738" lon="6.93567">
        <ele>60.400001525879</ele>
        <time>2012-01-07T07:46:46.000Z</time>
      </trkpt>
      <trkpt lat="43.49729" lon="6.93563">
        <ele>61.200000762939</ele>
        <time>2012-01-07T07:46:52.000Z</time>
      </trkpt>
      <trkpt lat="43.49713" lon="6.93562">
        <ele>62.599998474121</ele>
        <time>2012-01-07T07:47:01.000Z</time>
      </trkpt>
      <trkpt lat="43.497" lon="6.93564">
        <ele>63.599998474121</ele>
        <time>2012-01-07T07:47:06.000Z</time>
      </trkpt>
      <trkpt lat="43.49687" lon="6.93567">
        <ele>64.800003051758</ele>
        <time>2012-01-07T07:47:11.000Z</time>
      </trkpt>
      <trkpt lat="43.49675" lon="6.9358">
        <ele>65.400001525879</ele>
        <time>2012-01-07T07:47:17.000Z</time>
      </trkpt>
      <trkpt lat="43.49668" lon="6.93598">
        <ele>67.800003051758</ele>
        <time>2012-01-07T07:47:23.000Z</time>
      </trkpt>
      <trkpt lat="43.49661" lon="6.93619">
        <ele>71.800003051758</ele>
        <time>2012-01-07T07:47:29.000Z</time>
      </trkpt>
      <trkpt lat="43.49645" lon="6.93642">
        <ele>75.599998474121</ele>
        <time>2012-01-07T07:47:37.000Z</time>
      </trkpt>
      <trkpt lat="43.49626" lon="6.93649">
        <ele>77.199996948242</ele>
        <time>2012-01-07T07:47:43.000Z</time>
      </trkpt>
      <trkpt lat="43.49618" lon="6.93657">
        <ele>77.400001525879</ele>
        <time>2012-01-07T07:47:47.000Z</time>
      </trkpt>
      <trkpt lat="43.49615" lon="6.93658">
        <ele>77.400001525879</ele>
        <time>2012-01-07T07:47:50.000Z</time>
      </trkpt>
      <trkpt lat="43.49612" lon="6.93653">
        <ele>77.800003051758</ele>
        <time>2012-01-07T07:47:56.000Z</time>
      </trkpt>
      <trkpt lat="43.49612" lon="6.93652">
        <ele>77.800003051758</ele>
        <time>2012-01-07T07:47:57.000Z</time>
      </trkpt>
      <trkpt lat="43.49618" lon="6.93644">
        <ele>77.800003051758</ele>
        <time>2012-01-07T07:48:05.000Z</time>
      </trkpt>
      <trkpt lat="43.49623" lon="6.93631">
        <ele>77.800003051758</ele>
        <time>2012-01-07T07:48:11.000Z</time>
      </trkpt>
      <trkpt lat="43.49625" lon="6.93615">
        <ele>77.599998474121</ele>
        <time>2012-01-07T07:48:18.000Z</time>
      </trkpt>
      <trkpt lat="43.49628" lon="6.93592">
        <ele>77.199996948242</ele>
        <time>2012-01-07T07:48:26.000Z</time>
      </trkpt>
      <trkpt lat="43.49631" lon="6.93572">
        <ele>77.599998474121</ele>
        <time>2012-01-07T07:48:34.000Z</time>
      </trkpt>
      <trkpt lat="43.49638" lon="6.93552">
        <ele>77.400001525879</ele>
        <time>2012-01-07T07:48:42.000Z</time>
      </trkpt>
      <trkpt lat="43.49644" lon="6.93544">
        <ele>76</ele>
        <time>2012-01-07T07:48:49.000Z</time>
      </trkpt>
      <trkpt lat="43.49652" lon="6.9353">
        <ele>74</ele>
        <time>2012-01-07T07:48:56.000Z</time>
      </trkpt>
      <trkpt lat="43.49656" lon="6.93514">
        <ele>73.199996948242</ele>
        <time>2012-01-07T07:49:04.000Z</time>
      </trkpt>
      <trkpt lat="43.49661" lon="6.935">
        <ele>71.800003051758</ele>
        <time>2012-01-07T07:49:10.000Z</time>
      </trkpt>
      <trkpt lat="43.49662" lon="6.93481">
        <ele>71.199996948242</ele>
        <time>2012-01-07T07:49:17.000Z</time>
      </trkpt>
      <trkpt lat="43.49656" lon="6.93464">
        <ele>73.599998474121</ele>
        <time>2012-01-07T07:49:25.000Z</time>
      </trkpt>
      <trkpt lat="43.49653" lon="6.93445">
        <ele>74.599998474121</ele>
        <time>2012-01-07T07:49:34.000Z</time>
      </trkpt>
      <trkpt lat="43.4965" lon="6.93433">
        <ele>75.400001525879</ele>
        <time>2012-01-07T07:49:40.000Z</time>
      </trkpt>
      <trkpt lat="43.49648" lon="6.93424">
        <ele>76</ele>
        <time>2012-01-07T07:49:47.000Z</time>
      </trkpt>
      <trkpt lat="43.49641" lon="6.93413">
        <ele>78.599998474121</ele>
        <time>2012-01-07T07:49:54.000Z</time>
      </trkpt>
      <trkpt lat="43.49638" lon="6.93404">
        <ele>79.599998474121</ele>
        <time>2012-01-07T07:49:59.000Z</time>
      </trkpt>
      <trkpt lat="43.49627" lon="6.9339">
        <ele>83.599998474121</ele>
        <time>2012-01-07T07:50:08.000Z</time>
      </trkpt>
      <trkpt lat="43.49618" lon="6.93381">
        <ele>86.800003051758</ele>
        <time>2012-01-07T07:50:16.000Z</time>
      </trkpt>
      <trkpt lat="43.49609" lon="6.93378">
        <ele>90</ele>
        <time>2012-01-07T07:50:22.000Z</time>
      </trkpt>
      <trkpt lat="43.496" lon="6.93373">
        <ele>93.199996948242</ele>
        <time>2012-01-07T07:50:30.000Z</time>
      </trkpt>
      <trkpt lat="43.49588" lon="6.93367">
        <ele>97</ele>
        <time>2012-01-07T07:50:38.000Z</time>
      </trkpt>
      <trkpt lat="43.4958" lon="6.93363">
        <ele>99.599998474121</ele>
        <time>2012-01-07T07:50:44.000Z</time>
      </trkpt>
      <trkpt lat="43.49575" lon="6.93353">
        <ele>101</ele>
        <time>2012-01-07T07:50:49.000Z</time>
      </trkpt>
      <trkpt lat="43.49573" lon="6.93344">
        <ele>101</ele>
        <time>2012-01-07T07:50:56.000Z</time>
      </trkpt>
      <trkpt lat="43.49579" lon="6.93338">
        <ele>98</ele>
        <time>2012-01-07T07:51:04.000Z</time>
      </trkpt>
      <trkpt lat="43.49591" lon="6.9333">
        <ele>93.800003051758</ele>
        <time>2012-01-07T07:51:13.000Z</time>
      </trkpt>
      <trkpt lat="43.496" lon="6.93324">
        <ele>91.400001525879</ele>
        <time>2012-01-07T07:51:20.000Z</time>
      </trkpt>
      <trkpt lat="43.49604" lon="6.93324">
        <ele>90</ele>
        <time>2012-01-07T07:51:23.000Z</time>
      </trkpt>
      <trkpt lat="43.49614" lon="6.93312">
        <ele>87.800003051758</ele>
        <time>2012-01-07T07:51:32.000Z</time>
      </trkpt>
      <trkpt lat="43.49615" lon="6.93298">
        <ele>88.599998474121</ele>
        <time>2012-01-07T07:51:38.000Z</time>
      </trkpt>
      <trkpt lat="43.49617" lon="6.93284">
        <ele>89.199996948242</ele>
        <time>2012-01-07T07:51:46.000Z</time>
      </trkpt>
      <trkpt lat="43.49611" lon="6.93267">
        <ele>92.400001525879</ele>
        <time>2012-01-07T07:51:54.000Z</time>
      </trkpt>
      <trkpt lat="43.49608" lon="6.93253">
        <ele>94.800003051758</ele>
        <time>2012-01-07T07:52:01.000Z</time>
      </trkpt>
      <trkpt lat="43.49603" lon="6.93234">
        <ele>97.400001525879</ele>
        <time>2012-01-07T07:52:12.000Z</time>
      </trkpt>
      <trkpt lat="43.49592" lon="6.93222">
        <ele>101.40000152588</ele>
        <time>2012-01-07T07:52:20.000Z</time>
      </trkpt>
      <trkpt lat="43.49584" lon="6.93211">
        <ele>104.80000305176</ele>
        <time>2012-01-07T07:52:25.000Z</time>
      </trkpt>
      <trkpt lat="43.49579" lon="6.93196">
        <ele>107.40000152588</ele>
        <time>2012-01-07T07:52:31.000Z</time>
      </trkpt>
      <trkpt lat="43.4958" lon="6.93194">
        <ele>107.40000152588</ele>
        <time>2012-01-07T07:52:32.000Z</time>
      </trkpt>
      <trkpt lat="43.49589" lon="6.93181">
        <ele>104.40000152588</ele>
        <time>2012-01-07T07:52:41.000Z</time>
      </trkpt>
      <trkpt lat="43.49602" lon="6.93168">
        <ele>101</ele>
        <time>2012-01-07T07:52:49.000Z</time>
      </trkpt>
      <trkpt lat="43.49611" lon="6.93154">
        <ele>99.599998474121</ele>
        <time>2012-01-07T07:52:57.000Z</time>
      </trkpt>
      <trkpt lat="43.49617" lon="6.93144">
        <ele>99.199996948242</ele>
        <time>2012-01-07T07:53:04.000Z</time>
      </trkpt>
      <trkpt lat="43.49622" lon="6.9313">
        <ele>99.400001525879</ele>
        <time>2012-01-07T07:53:10.000Z</time>
      </trkpt>
      <trkpt lat="43.49626" lon="6.93113">
        <ele>100.19999694824</ele>
        <time>2012-01-07T07:53:18.000Z</time>
      </trkpt>
      <trkpt lat="43.4963" lon="6.93096">
        <ele>101.40000152588</ele>
        <time>2012-01-07T07:53:26.000Z</time>
      </trkpt>
      <trkpt lat="43.49631" lon="6.93083">
        <ele>102.59999847412</ele>
        <time>2012-01-07T07:53:32.000Z</time>
      </trkpt>
      <trkpt lat="43.49628" lon="6.93069">
        <ele>103.40000152588</ele>
        <time>2012-01-07T07:53:39.000Z</time>
      </trkpt>
      <trkpt lat="43.49621" lon="6.93053">
        <ele>105.19999694824</ele>
        <time>2012-01-07T07:53:46.000Z</time>
      </trkpt>
      <trkpt lat="43.49615" lon="6.93038">
        <ele>106.40000152588</ele>
        <time>2012-01-07T07:53:53.000Z</time>
      </trkpt>
      <trkpt lat="43.49605" lon="6.9303">
        <ele>109</ele>
        <time>2012-01-07T07:54:01.000Z</time>
      </trkpt>
      <trkpt lat="43.49598" lon="6.93019">
        <ele>110.40000152588</ele>
        <time>2012-01-07T07:54:07.000Z</time>
      </trkpt>
      <trkpt lat="43.49593" lon="6.93004">
        <ele>110.80000305176</ele>
        <time>2012-01-07T07:54:13.000Z</time>
      </trkpt>
      <trkpt lat="43.49593" lon="6.92991">
        <ele>110</ele>
        <time>2012-01-07T07:54:18.000Z</time>
      </trkpt>
      <trkpt lat="43.49591" lon="6.92975">
        <ele>109.59999847412</ele>
        <time>2012-01-07T07:54:26.000Z</time>
      </trkpt>
      <trkpt lat="43.49585" lon="6.9296">
        <ele>109.80000305176</ele>
        <time>2012-01-07T07:54:33.000Z</time>
      </trkpt>
      <trkpt lat="43.49577" lon="6.92944">
        <ele>111.19999694824</ele>
        <time>2012-01-07T07:54:41.000Z</time>
      </trkpt>
      <trkpt lat="43.49569" lon="6.92929">
        <ele>112.80000305176</ele>
        <time>2012-01-07T07:54:49.000Z</time>
      </trkpt>
      <trkpt lat="43.49564" lon="6.92911">
        <ele>113.40000152588</ele>
        <time>2012-01-07T07:54:58.000Z</time>
      </trkpt>
      <trkpt lat="43.49557" lon="6.92897">
        <ele>114.40000152588</ele>
        <time>2012-01-07T07:55:07.000Z</time>
      </trkpt>
      <trkpt lat="43.49549" lon="6.92885">
        <ele>115.59999847412</ele>
        <time>2012-01-07T07:55:15.000Z</time>
      </trkpt>
      <trkpt lat="43.49541" lon="6.92871">
        <ele>116.80000305176</ele>
        <time>2012-01-07T07:55:24.000Z</time>
      </trkpt>
      <trkpt lat="43.49533" lon="6.92861">
        <ele>118</ele>
        <time>2012-01-07T07:55:31.000Z</time>
      </trkpt>
      <trkpt lat="43.49532" lon="6.92859">
        <ele>118.19999694824</ele>
        <time>2012-01-07T07:55:32.000Z</time>
      </trkpt>
      <trkpt lat="43.49518" lon="6.92845">
        <ele>120.19999694824</ele>
        <time>2012-01-07T07:55:42.000Z</time>
      </trkpt>
      <trkpt lat="43.49511" lon="6.92836">
        <ele>120.59999847412</ele>
        <time>2012-01-07T07:55:48.000Z</time>
      </trkpt>
      <trkpt lat="43.49504" lon="6.9282">
        <ele>121.80000305176</ele>
        <time>2012-01-07T07:55:56.000Z</time>
      </trkpt>
      <trkpt lat="43.495" lon="6.9281">
        <ele>122.19999694824</ele>
        <time>2012-01-07T07:56:02.000Z</time>
      </trkpt>
      <trkpt lat="43.49495" lon="6.92795">
        <ele>121.19999694824</ele>
        <time>2012-01-07T07:56:10.000Z</time>
      </trkpt>
      <trkpt lat="43.49492" lon="6.92789">
        <ele>120.59999847412</ele>
        <time>2012-01-07T07:56:14.000Z</time>
      </trkpt>
      <trkpt lat="43.49491" lon="6.92777">
        <ele>120</ele>
        <time>2012-01-07T07:56:19.000Z</time>
      </trkpt>
      <trkpt lat="43.49486" lon="6.92761">
        <ele>118.19999694824</ele>
        <time>2012-01-07T07:56:27.000Z</time>
      </trkpt>
      <trkpt lat="43.4948" lon="6.92748">
        <ele>116.80000305176</ele>
        <time>2012-01-07T07:56:33.000Z</time>
      </trkpt>
      <trkpt lat="43.4947" lon="6.92732">
        <ele>116.19999694824</ele>
        <time>2012-01-07T07:56:42.000Z</time>
      </trkpt>
      <trkpt lat="43.49463" lon="6.92718">
        <ele>116</ele>
        <time>2012-01-07T07:56:49.000Z</time>
      </trkpt>
      <trkpt lat="43.49462" lon="6.927">
        <ele>117</ele>
        <time>2012-01-07T07:56:56.000Z</time>
      </trkpt>
      <trkpt lat="43.49465" lon="6.92678">
        <ele>119.19999694824</ele>
        <time>2012-01-07T07:57:04.000Z</time>
      </trkpt>
      <trkpt lat="43.49468" lon="6.92659">
        <ele>122</ele>
        <time>2012-01-07T07:57:12.000Z</time>
      </trkpt>
      <trkpt lat="43.49467" lon="6.92639">
        <ele>125.40000152588</ele>
        <time>2012-01-07T07:57:21.000Z</time>
      </trkpt>
      <trkpt lat="43.49466" lon="6.92624">
        <ele>127.80000305176</ele>
        <time>2012-01-07T07:57:30.000Z</time>
      </trkpt>
      <trkpt lat="43.49466" lon="6.92612">
        <ele>129.80000305176</ele>
        <time>2012-01-07T07:57:38.000Z</time>
      </trkpt>
      <trkpt lat="43.49462" lon="6.92595">
        <ele>131.80000305176</ele>
        <time>2012-01-07T07:57:46.000Z</time>
      </trkpt>
      <trkpt lat="43.49455" lon="6.9258">
        <ele>133</ele>
        <time>2012-01-07T07:57:54.000Z</time>
      </trkpt>
      <trkpt lat="43.49453" lon="6.92576">
        <ele>133.19999694824</ele>
        <time>2012-01-07T07:57:56.000Z</time>
      </trkpt>
      <trkpt lat="43.49449" lon="6.92557">
        <ele>136.60000610352</ele>
        <time>2012-01-07T07:58:04.000Z</time>
      </trkpt>
      <trkpt lat="43.49442" lon="6.92544">
        <ele>138</ele>
        <time>2012-01-07T07:58:10.000Z</time>
      </trkpt>
      <trkpt lat="43.49432" lon="6.92529">
        <ele>139.60000610352</ele>
        <time>2012-01-07T07:58:18.000Z</time>
      </trkpt>
      <trkpt lat="43.49427" lon="6.92513">
        <ele>142.60000610352</ele>
        <time>2012-01-07T07:58:26.000Z</time>
      </trkpt>
      <trkpt lat="43.49424" lon="6.92493">
        <ele>146.60000610352</ele>
        <time>2012-01-07T07:58:35.000Z</time>
      </trkpt>
      <trkpt lat="43.49422" lon="6.92473">
        <ele>149.80000305176</ele>
        <time>2012-01-07T07:58:43.000Z</time>
      </trkpt>
      <trkpt lat="43.49418" lon="6.92455">
        <ele>152.80000305176</ele>
        <time>2012-01-07T07:58:50.000Z</time>
      </trkpt>
      <trkpt lat="43.49419" lon="6.92449">
        <ele>154</ele>
        <time>2012-01-07T07:58:52.000Z</time>
      </trkpt>
      <trkpt lat="43.49428" lon="6.92446">
        <ele>155.60000610352</ele>
        <time>2012-01-07T07:58:58.000Z</time>
      </trkpt>
      <trkpt lat="43.49429" lon="6.92454">
        <ele>154.19999694824</ele>
        <time>2012-01-07T07:59:02.000Z</time>
      </trkpt>
      <trkpt lat="43.49435" lon="6.92472">
        <ele>151.80000305176</ele>
        <time>2012-01-07T07:59:11.000Z</time>
      </trkpt>
      <trkpt lat="43.49439" lon="6.92487">
        <ele>149.80000305176</ele>
        <time>2012-01-07T07:59:16.000Z</time>
      </trkpt>
      <trkpt lat="43.49443" lon="6.92508">
        <ele>146.60000610352</ele>
        <time>2012-01-07T07:59:22.000Z</time>
      </trkpt>
      <trkpt lat="43.49453" lon="6.92528">
        <ele>144</ele>
        <time>2012-01-07T07:59:28.000Z</time>
      </trkpt>
      <trkpt lat="43.49466" lon="6.92545">
        <ele>142.80000305176</ele>
        <time>2012-01-07T07:59:34.000Z</time>
      </trkpt>
      <trkpt lat="43.49477" lon="6.92557">
        <ele>142.60000610352</ele>
        <time>2012-01-07T07:59:40.000Z</time>
      </trkpt>
      <trkpt lat="43.4949" lon="6.92567">
        <ele>143.80000305176</ele>
        <time>2012-01-07T07:59:46.000Z</time>
      </trkpt>
      <trkpt lat="43.49503" lon="6.92576">
        <ele>143.60000610352</ele>
        <time>2012-01-07T07:59:52.000Z</time>
      </trkpt>
      <trkpt lat="43.49516" lon="6.92579">
        <ele>140.39999389648</ele>
        <time>2012-01-07T07:59:58.000Z</time>
      </trkpt>
      <trkpt lat="43.49523" lon="6.92572">
        <ele>140.19999694824</ele>
        <time>2012-01-07T08:00:03.000Z</time>
      </trkpt>
      <trkpt lat="43.49527" lon="6.92548">
        <ele>142.80000305176</ele>
        <time>2012-01-07T08:00:12.000Z</time>
      </trkpt>
      <trkpt lat="43.49527" lon="6.92527">
        <ele>146</ele>
        <time>2012-01-07T08:00:20.000Z</time>
      </trkpt>
      <trkpt lat="43.49526" lon="6.92509">
        <ele>149.19999694824</ele>
        <time>2012-01-07T08:00:29.000Z</time>
      </trkpt>
      <trkpt lat="43.49522" lon="6.925">
        <ele>151.60000610352</ele>
        <time>2012-01-07T08:00:36.000Z</time>
      </trkpt>
      <trkpt lat="43.49522" lon="6.92497">
        <ele>152</ele>
        <time>2012-01-07T08:00:38.000Z</time>
      </trkpt>
      <trkpt lat="43.49517" lon="6.9248">
        <ele>155</ele>
        <time>2012-01-07T08:00:47.000Z</time>
      </trkpt>
      <trkpt lat="43.49511" lon="6.92458">
        <ele>158.39999389648</ele>
        <time>2012-01-07T08:00:57.000Z</time>
      </trkpt>
      <trkpt lat="43.49507" lon="6.92445">
        <ele>160.80000305176</ele>
        <time>2012-01-07T08:01:05.000Z</time>
      </trkpt>
      <trkpt lat="43.49505" lon="6.92428">
        <ele>162.60000610352</ele>
        <time>2012-01-07T08:01:12.000Z</time>
      </trkpt>
      <trkpt lat="43.49513" lon="6.92412">
        <ele>162.19999694824</ele>
        <time>2012-01-07T08:01:20.000Z</time>
      </trkpt>
      <trkpt lat="43.49524" lon="6.92398">
        <ele>161</ele>
        <time>2012-01-07T08:01:28.000Z</time>
      </trkpt>
      <trkpt lat="43.49533" lon="6.92386">
        <ele>160</ele>
        <time>2012-01-07T08:01:34.000Z</time>
      </trkpt>
      <trkpt lat="43.49541" lon="6.92365">
        <ele>160.19999694824</ele>
        <time>2012-01-07T08:01:42.000Z</time>
      </trkpt>
      <trkpt lat="43.49544" lon="6.92347">
        <ele>161.39999389648</ele>
        <time>2012-01-07T08:01:49.000Z</time>
      </trkpt>
      <trkpt lat="43.49544" lon="6.92327">
        <ele>163.60000610352</ele>
        <time>2012-01-07T08:01:57.000Z</time>
      </trkpt>
      <trkpt lat="43.49546" lon="6.92311">
        <ele>164.80000305176</ele>
        <time>2012-01-07T08:02:04.000Z</time>
      </trkpt>
      <trkpt lat="43.49547" lon="6.92292">
        <ele>166.39999389648</ele>
        <time>2012-01-07T08:02:13.000Z</time>
      </trkpt>
      <trkpt lat="43.49547" lon="6.92277">
        <ele>168</ele>
        <time>2012-01-07T08:02:21.000Z</time>
      </trkpt>
      <trkpt lat="43.4955" lon="6.92263">
        <ele>168.60000610352</ele>
        <time>2012-01-07T08:02:29.000Z</time>
      </trkpt>
      <trkpt lat="43.4955" lon="6.9225">
        <ele>169.80000305176</ele>
        <time>2012-01-07T08:02:37.000Z</time>
      </trkpt>
      <trkpt lat="43.49551" lon="6.92233">
        <ele>169.80000305176</ele>
        <time>2012-01-07T08:02:46.000Z</time>
      </trkpt>
      <trkpt lat="43.4955" lon="6.92227">
        <ele>170</ele>
        <time>2012-01-07T08:02:49.000Z</time>
      </trkpt>
      <trkpt lat="43.49547" lon="6.92213">
        <ele>170.60000610352</ele>
        <time>2012-01-07T08:02:58.000Z</time>
      </trkpt>
      <trkpt lat="43.49543" lon="6.92203">
        <ele>171.39999389648</ele>
        <time>2012-01-07T08:03:04.000Z</time>
      </trkpt>
      <trkpt lat="43.49537" lon="6.92189">
        <ele>172.39999389648</ele>
        <time>2012-01-07T08:03:12.000Z</time>
      </trkpt>
      <trkpt lat="43.49531" lon="6.92174">
        <ele>173</ele>
        <time>2012-01-07T08:03:19.000Z</time>
      </trkpt>
      <trkpt lat="43.49523" lon="6.92169">
        <ele>174</ele>
        <time>2012-01-07T08:03:25.000Z</time>
      </trkpt>
      <trkpt lat="43.49513" lon="6.92175">
        <ele>175.60000610352</ele>
        <time>2012-01-07T08:03:32.000Z</time>
      </trkpt>
      <trkpt lat="43.49503" lon="6.92185">
        <ele>177.80000305176</ele>
        <time>2012-01-07T08:03:39.000Z</time>
      </trkpt>
      <trkpt lat="43.49495" lon="6.92187">
        <ele>179.19999694824</ele>
        <time>2012-01-07T08:03:45.000Z</time>
      </trkpt>
      <trkpt lat="43.49492" lon="6.92183">
        <ele>179.39999389648</ele>
        <time>2012-01-07T08:03:47.000Z</time>
      </trkpt>
      <trkpt lat="43.49488" lon="6.92166">
        <ele>178.80000305176</ele>
        <time>2012-01-07T08:03:55.000Z</time>
      </trkpt>
      <trkpt lat="43.49486" lon="6.92156">
        <ele>179.19999694824</ele>
        <time>2012-01-07T08:04:02.000Z</time>
      </trkpt>
      <trkpt lat="43.49483" lon="6.92142">
        <ele>179.60000610352</ele>
        <time>2012-01-07T08:04:09.000Z</time>
      </trkpt>
      <trkpt lat="43.49481" lon="6.9214">
        <ele>179.60000610352</ele>
        <time>2012-01-07T08:04:10.000Z</time>
      </trkpt>
      <trkpt lat="43.49472" lon="6.9212">
        <ele>180.39999389648</ele>
        <time>2012-01-07T08:04:19.000Z</time>
      </trkpt>
      <trkpt lat="43.49463" lon="6.92112">
        <ele>181</ele>
        <time>2012-01-07T08:04:27.000Z</time>
      </trkpt>
      <trkpt lat="43.49454" lon="6.92112">
        <ele>182</ele>
        <time>2012-01-07T08:04:34.000Z</time>
      </trkpt>
      <trkpt lat="43.49448" lon="6.92108">
        <ele>182.39999389648</ele>
        <time>2012-01-07T08:04:40.000Z</time>
      </trkpt>
      <trkpt lat="43.49443" lon="6.92093">
        <ele>182</ele>
        <time>2012-01-07T08:04:47.000Z</time>
      </trkpt>
      <trkpt lat="43.49436" lon="6.92076">
        <ele>182.19999694824</ele>
        <time>2012-01-07T08:04:54.000Z</time>
      </trkpt>
      <trkpt lat="43.49428" lon="6.92062">
        <ele>183.39999389648</ele>
        <time>2012-01-07T08:05:01.000Z</time>
      </trkpt>
      <trkpt lat="43.49417" lon="6.92041">
        <ele>184.60000610352</ele>
        <time>2012-01-07T08:05:09.000Z</time>
      </trkpt>
      <trkpt lat="43.49422" lon="6.92027">
        <ele>185</ele>
        <time>2012-01-07T08:05:15.000Z</time>
      </trkpt>
      <trkpt lat="43.49431" lon="6.92011">
        <ele>186</ele>
        <time>2012-01-07T08:05:23.000Z</time>
      </trkpt>
      <trkpt lat="43.49439" lon="6.92005">
        <ele>186.39999389648</ele>
        <time>2012-01-07T08:05:30.000Z</time>
      </trkpt>
      <trkpt lat="43.49451" lon="6.91998">
        <ele>187.80000305176</ele>
        <time>2012-01-07T08:05:39.000Z</time>
      </trkpt>
      <trkpt lat="43.49461" lon="6.91991">
        <ele>189.60000610352</ele>
        <time>2012-01-07T08:05:46.000Z</time>
      </trkpt>
      <trkpt lat="43.4947" lon="6.91978">
        <ele>193</ele>
        <time>2012-01-07T08:05:54.000Z</time>
      </trkpt>
      <trkpt lat="43.49476" lon="6.91964">
        <ele>196.19999694824</ele>
        <time>2012-01-07T08:06:02.000Z</time>
      </trkpt>
      <trkpt lat="43.49485" lon="6.91949">
        <ele>199.80000305176</ele>
        <time>2012-01-07T08:06:10.000Z</time>
      </trkpt>
      <trkpt lat="43.49498" lon="6.91947">
        <ele>200.39999389648</ele>
        <time>2012-01-07T08:06:16.000Z</time>
      </trkpt>
      <trkpt lat="43.49513" lon="6.91952">
        <ele>199</ele>
        <time>2012-01-07T08:06:24.000Z</time>
      </trkpt>
      <trkpt lat="43.49523" lon="6.91952">
        <ele>198.80000305176</ele>
        <time>2012-01-07T08:06:30.000Z</time>
      </trkpt>
      <trkpt lat="43.49532" lon="6.91943">
        <ele>200.39999389648</ele>
        <time>2012-01-07T08:06:37.000Z</time>
      </trkpt>
      <trkpt lat="43.49538" lon="6.91925">
        <ele>204</ele>
        <time>2012-01-07T08:06:45.000Z</time>
      </trkpt>
      <trkpt lat="43.49542" lon="6.91908">
        <ele>208</ele>
        <time>2012-01-07T08:06:51.000Z</time>
      </trkpt>
      <trkpt lat="43.49546" lon="6.91897">
        <ele>210.80000305176</ele>
        <time>2012-01-07T08:06:59.000Z</time>
      </trkpt>
      <trkpt lat="43.49551" lon="6.91888">
        <ele>213.19999694824</ele>
        <time>2012-01-07T08:07:05.000Z</time>
      </trkpt>
      <trkpt lat="43.49557" lon="6.91877">
        <ele>216.39999389648</ele>
        <time>2012-01-07T08:07:12.000Z</time>
      </trkpt>
      <trkpt lat="43.49565" lon="6.91871">
        <ele>217.39999389648</ele>
        <time>2012-01-07T08:07:20.000Z</time>
      </trkpt>
      <trkpt lat="43.49575" lon="6.91874">
        <ele>216</ele>
        <time>2012-01-07T08:07:27.000Z</time>
      </trkpt>
      <trkpt lat="43.49585" lon="6.91878">
        <ele>215</ele>
        <time>2012-01-07T08:07:34.000Z</time>
      </trkpt>
      <trkpt lat="43.49588" lon="6.91881">
        <ele>214.80000305176</ele>
        <time>2012-01-07T08:07:36.000Z</time>
      </trkpt>
      <trkpt lat="43.49599" lon="6.91883">
        <ele>216.60000610352</ele>
        <time>2012-01-07T08:07:42.000Z</time>
      </trkpt>
      <trkpt lat="43.49612" lon="6.91888">
        <ele>218.39999389648</ele>
        <time>2012-01-07T08:07:49.000Z</time>
      </trkpt>
      <trkpt lat="43.49624" lon="6.91896">
        <ele>219.60000610352</ele>
        <time>2012-01-07T08:07:56.000Z</time>
      </trkpt>
      <trkpt lat="43.49629" lon="6.91905">
        <ele>219</ele>
        <time>2012-01-07T08:08:03.000Z</time>
      </trkpt>
      <trkpt lat="43.49636" lon="6.91915">
        <ele>218.80000305176</ele>
        <time>2012-01-07T08:08:09.000Z</time>
      </trkpt>
      <trkpt lat="43.49646" lon="6.91934">
        <ele>218.19999694824</ele>
        <time>2012-01-07T08:08:17.000Z</time>
      </trkpt>
      <trkpt lat="43.4965" lon="6.91944">
        <ele>217.39999389648</ele>
        <time>2012-01-07T08:08:23.000Z</time>
      </trkpt>
      <trkpt lat="43.49657" lon="6.91955">
        <ele>217.39999389648</ele>
        <time>2012-01-07T08:08:30.000Z</time>
      </trkpt>
      <trkpt lat="43.49667" lon="6.9197">
        <ele>217.60000610352</ele>
        <time>2012-01-07T08:08:37.000Z</time>
      </trkpt>
      <trkpt lat="43.49677" lon="6.91982">
        <ele>217.19999694824</ele>
        <time>2012-01-07T08:08:44.000Z</time>
      </trkpt>
      <trkpt lat="43.49687" lon="6.91996">
        <ele>217.39999389648</ele>
        <time>2012-01-07T08:08:51.000Z</time>
      </trkpt>
      <trkpt lat="43.49695" lon="6.92008">
        <ele>218</ele>
        <time>2012-01-07T08:08:58.000Z</time>
      </trkpt>
      <trkpt lat="43.49705" lon="6.92016">
        <ele>219.60000610352</ele>
        <time>2012-01-07T08:09:05.000Z</time>
      </trkpt>
      <trkpt lat="43.49713" lon="6.92028">
        <ele>220.80000305176</ele>
        <time>2012-01-07T08:09:13.000Z</time>
      </trkpt>
      <trkpt lat="43.49716" lon="6.92038">
        <ele>220.60000610352</ele>
        <time>2012-01-07T08:09:22.000Z</time>
      </trkpt>
      <trkpt lat="43.49716" lon="6.92055">
        <ele>219.39999389648</ele>
        <time>2012-01-07T08:09:30.000Z</time>
      </trkpt>
      <trkpt lat="43.49718" lon="6.9207">
        <ele>218.80000305176</ele>
        <time>2012-01-07T08:09:37.000Z</time>
      </trkpt>
      <trkpt lat="43.49716" lon="6.92086">
        <ele>217.19999694824</ele>
        <time>2012-01-07T08:09:46.000Z</time>
      </trkpt>
      <trkpt lat="43.49718" lon="6.921">
        <ele>217</ele>
        <time>2012-01-07T08:09:54.000Z</time>
      </trkpt>
      <trkpt lat="43.49723" lon="6.92122">
        <ele>217.60000610352</ele>
        <time>2012-01-07T08:10:03.000Z</time>
      </trkpt>
      <trkpt lat="43.49728" lon="6.92137">
        <ele>218.80000305176</ele>
        <time>2012-01-07T08:10:10.000Z</time>
      </trkpt>
      <trkpt lat="43.49735" lon="6.92152">
        <ele>221</ele>
        <time>2012-01-07T08:10:18.000Z</time>
      </trkpt>
      <trkpt lat="43.49742" lon="6.92165">
        <ele>223.80000305176</ele>
        <time>2012-01-07T08:10:25.000Z</time>
      </trkpt>
      <trkpt lat="43.49751" lon="6.92183">
        <ele>224.19999694824</ele>
        <time>2012-01-07T08:10:33.000Z</time>
      </trkpt>
      <trkpt lat="43.49764" lon="6.92201">
        <ele>222.80000305176</ele>
        <time>2012-01-07T08:10:39.000Z</time>
      </trkpt>
      <trkpt lat="43.49778" lon="6.92211">
        <ele>223.60000610352</ele>
        <time>2012-01-07T08:10:47.000Z</time>
      </trkpt>
      <trkpt lat="43.49794" lon="6.92213">
        <ele>225.80000305176</ele>
        <time>2012-01-07T08:10:56.000Z</time>
      </trkpt>
      <trkpt lat="43.49809" lon="6.92211">
        <ele>228.39999389648</ele>
        <time>2012-01-07T08:11:04.000Z</time>
      </trkpt>
      <trkpt lat="43.49819" lon="6.92207">
        <ele>229.80000305176</ele>
        <time>2012-01-07T08:11:12.000Z</time>
      </trkpt>
      <trkpt lat="43.4982" lon="6.92207">
        <ele>230</ele>
        <time>2012-01-07T08:11:18.000Z</time>
      </trkpt>
      <trkpt lat="43.49819" lon="6.92209">
        <ele>229.80000305176</ele>
        <time>2012-01-07T08:11:23.000Z</time>
      </trkpt>
      <trkpt lat="43.4982" lon="6.92212">
        <ele>230.19999694824</ele>
        <time>2012-01-07T08:11:52.000Z</time>
      </trkpt>
      <trkpt lat="43.4982" lon="6.92219">
        <ele>230</ele>
        <time>2012-01-07T08:12:16.000Z</time>
      </trkpt>
      <trkpt lat="43.49816" lon="6.92218">
        <ele>229.39999389648</ele>
        <time>2012-01-07T08:12:28.000Z</time>
      </trkpt>
      <trkpt lat="43.49817" lon="6.92215">
        <ele>229.60000610352</ele>
        <time>2012-01-07T08:12:40.000Z</time>
      </trkpt>
      <trkpt lat="43.4982" lon="6.92213">
        <ele>230</ele>
        <time>2012-01-07T08:12:52.000Z</time>
      </trkpt>
      <trkpt lat="43.49817" lon="6.92209">
        <ele>229.39999389648</ele>
        <time>2012-01-07T08:13:11.000Z</time>
      </trkpt>
      <trkpt lat="43.49818" lon="6.92206">
        <ele>229.60000610352</ele>
        <time>2012-01-07T08:13:28.000Z</time>
      </trkpt>
      <trkpt lat="43.49819" lon="6.92208">
        <ele>229.80000305176</ele>
        <time>2012-01-07T08:13:44.000Z</time>
      </trkpt>
      <trkpt lat="43.49818" lon="6.92207">
        <ele>229.80000305176</ele>
        <time>2012-01-07T08:13:55.000Z</time>
      </trkpt>
      <trkpt lat="43.4982" lon="6.9221">
        <ele>230</ele>
        <time>2012-01-07T08:14:18.000Z</time>
      </trkpt>
      <trkpt lat="43.49816" lon="6.92209">
        <ele>229.39999389648</ele>
        <time>2012-01-07T08:14:25.000Z</time>
      </trkpt>
      <trkpt lat="43.49813" lon="6.92205">
        <ele>229</ele>
        <time>2012-01-07T08:14:28.000Z</time>
      </trkpt>
      <trkpt lat="43.49803" lon="6.92187">
        <ele>228.19999694824</ele>
        <time>2012-01-07T08:14:37.000Z</time>
      </trkpt>
      <trkpt lat="43.49794" lon="6.92167">
        <ele>228.60000610352</ele>
        <time>2012-01-07T08:14:44.000Z</time>
      </trkpt>
      <trkpt lat="43.49783" lon="6.92148">
        <ele>227.39999389648</ele>
        <time>2012-01-07T08:14:52.000Z</time>
      </trkpt>
      <trkpt lat="43.49775" lon="6.92124">
        <ele>226.80000305176</ele>
        <time>2012-01-07T08:15:00.000Z</time>
      </trkpt>
      <trkpt lat="43.49767" lon="6.92096">
        <ele>227</ele>
        <time>2012-01-07T08:15:08.000Z</time>
      </trkpt>
      <trkpt lat="43.49756" lon="6.92068">
        <ele>228.60000610352</ele>
        <time>2012-01-07T08:15:16.000Z</time>
      </trkpt>
      <trkpt lat="43.49752" lon="6.9204">
        <ele>230.19999694824</ele>
        <time>2012-01-07T08:15:23.000Z</time>
      </trkpt>
      <trkpt lat="43.49744" lon="6.92013">
        <ele>229.80000305176</ele>
        <time>2012-01-07T08:15:31.000Z</time>
      </trkpt>
      <trkpt lat="43.49736" lon="6.91995">
        <ele>228.80000305176</ele>
        <time>2012-01-07T08:15:37.000Z</time>
      </trkpt>
      <trkpt lat="43.49726" lon="6.91965">
        <ele>227.80000305176</ele>
        <time>2012-01-07T08:15:45.000Z</time>
      </trkpt>
      <trkpt lat="43.49718" lon="6.91943">
        <ele>227.80000305176</ele>
        <time>2012-01-07T08:15:52.000Z</time>
      </trkpt>
      <trkpt lat="43.49708" lon="6.91923">
        <ele>228.39999389648</ele>
        <time>2012-01-07T08:15:59.000Z</time>
      </trkpt>
      <trkpt lat="43.49699" lon="6.91902">
        <ele>229</ele>
        <time>2012-01-07T08:16:07.000Z</time>
      </trkpt>
      <trkpt lat="43.49691" lon="6.91885">
        <ele>230</ele>
        <time>2012-01-07T08:16:14.000Z</time>
      </trkpt>
      <trkpt lat="43.49681" lon="6.91862">
        <ele>232.60000610352</ele>
        <time>2012-01-07T08:16:24.000Z</time>
      </trkpt>
      <trkpt lat="43.49674" lon="6.91843">
        <ele>235.39999389648</ele>
        <time>2012-01-07T08:16:33.000Z</time>
      </trkpt>
      <trkpt lat="43.49668" lon="6.91828">
        <ele>237.80000305176</ele>
        <time>2012-01-07T08:16:40.000Z</time>
      </trkpt>
      <trkpt lat="43.49661" lon="6.91813">
        <ele>238.60000610352</ele>
        <time>2012-01-07T08:16:47.000Z</time>
      </trkpt>
      <trkpt lat="43.49656" lon="6.918">
        <ele>239</ele>
        <time>2012-01-07T08:16:53.000Z</time>
      </trkpt>
      <trkpt lat="43.4965" lon="6.91776">
        <ele>240.80000305176</ele>
        <time>2012-01-07T08:17:02.000Z</time>
      </trkpt>
      <trkpt lat="43.49646" lon="6.91746">
        <ele>243.60000610352</ele>
        <time>2012-01-07T08:17:11.000Z</time>
      </trkpt>
      <trkpt lat="43.49646" lon="6.91721">
        <ele>246.60000610352</ele>
        <time>2012-01-07T08:17:18.000Z</time>
      </trkpt>
      <trkpt lat="43.4965" lon="6.91693">
        <ele>248.80000305176</ele>
        <time>2012-01-07T08:17:25.000Z</time>
      </trkpt>
      <trkpt lat="43.4966" lon="6.91655">
        <ele>250.39999389648</ele>
        <time>2012-01-07T08:17:34.000Z</time>
      </trkpt>
      <trkpt lat="43.49669" lon="6.91628">
        <ele>253.19999694824</ele>
        <time>2012-01-07T08:17:41.000Z</time>
      </trkpt>
      <trkpt lat="43.49682" lon="6.91594">
        <ele>257</ele>
        <time>2012-01-07T08:17:49.000Z</time>
      </trkpt>
      <trkpt lat="43.49695" lon="6.91572">
        <ele>259.39999389648</ele>
        <time>2012-01-07T08:17:55.000Z</time>
      </trkpt>
      <trkpt lat="43.49708" lon="6.9155">
        <ele>262.39999389648</ele>
        <time>2012-01-07T08:18:01.000Z</time>
      </trkpt>
      <trkpt lat="43.49724" lon="6.91535">
        <ele>263</ele>
        <time>2012-01-07T08:18:07.000Z</time>
      </trkpt>
      <trkpt lat="43.4974" lon="6.91528">
        <ele>261</ele>
        <time>2012-01-07T08:18:12.000Z</time>
      </trkpt>
      <trkpt lat="43.49763" lon="6.91529">
        <ele>258.60000610352</ele>
        <time>2012-01-07T08:18:18.000Z</time>
      </trkpt>
      <trkpt lat="43.4978" lon="6.91535">
        <ele>256.60000610352</ele>
        <time>2012-01-07T08:18:23.000Z</time>
      </trkpt>
      <trkpt lat="43.49801" lon="6.91543">
        <ele>254.60000610352</ele>
        <time>2012-01-07T08:18:28.000Z</time>
      </trkpt>
      <trkpt lat="43.49815" lon="6.91553">
        <ele>252</ele>
        <time>2012-01-07T08:18:32.000Z</time>
      </trkpt>
      <trkpt lat="43.4984" lon="6.91565">
        <ele>247.80000305176</ele>
        <time>2012-01-07T08:18:38.000Z</time>
      </trkpt>
      <trkpt lat="43.49849" lon="6.91566">
        <ele>245.19999694824</ele>
        <time>2012-01-07T08:18:40.000Z</time>
      </trkpt>
      <trkpt lat="43.49873" lon="6.91562">
        <ele>239.80000305176</ele>
        <time>2012-01-07T08:18:46.000Z</time>
      </trkpt>
      <trkpt lat="43.49891" lon="6.91543">
        <ele>238.80000305176</ele>
        <time>2012-01-07T08:18:53.000Z</time>
      </trkpt>
      <trkpt lat="43.49904" lon="6.91512">
        <ele>240.80000305176</ele>
        <time>2012-01-07T08:19:01.000Z</time>
      </trkpt>
      <trkpt lat="43.49908" lon="6.91486">
        <ele>239.80000305176</ele>
        <time>2012-01-07T08:19:07.000Z</time>
      </trkpt>
      <trkpt lat="43.49906" lon="6.91467">
        <ele>238</ele>
        <time>2012-01-07T08:19:12.000Z</time>
      </trkpt>
      <trkpt lat="43.49896" lon="6.91444">
        <ele>238.39999389648</ele>
        <time>2012-01-07T08:19:18.000Z</time>
      </trkpt>
      <trkpt lat="43.49887" lon="6.91428">
        <ele>239.39999389648</ele>
        <time>2012-01-07T08:19:23.000Z</time>
      </trkpt>
      <trkpt lat="43.49876" lon="6.91412">
        <ele>240.60000610352</ele>
        <time>2012-01-07T08:19:29.000Z</time>
      </trkpt>
      <trkpt lat="43.49862" lon="6.91389">
        <ele>240.60000610352</ele>
        <time>2012-01-07T08:19:36.000Z</time>
      </trkpt>
      <trkpt lat="43.49845" lon="6.91368">
        <ele>241.80000305176</ele>
        <time>2012-01-07T08:19:42.000Z</time>
      </trkpt>
      <trkpt lat="43.49833" lon="6.91357">
        <ele>244</ele>
        <time>2012-01-07T08:19:45.000Z</time>
      </trkpt>
      <trkpt lat="43.49819" lon="6.9134">
        <ele>244.19999694824</ele>
        <time>2012-01-07T08:19:49.000Z</time>
      </trkpt>
      <trkpt lat="43.49808" lon="6.91323">
        <ele>244.39999389648</ele>
        <time>2012-01-07T08:19:53.000Z</time>
      </trkpt>
      <trkpt lat="43.49798" lon="6.91305">
        <ele>244.39999389648</ele>
        <time>2012-01-07T08:19:58.000Z</time>
      </trkpt>
      <trkpt lat="43.49791" lon="6.91301">
        <ele>245.39999389648</ele>
        <time>2012-01-07T08:20:01.000Z</time>
      </trkpt>
      <trkpt lat="43.49786" lon="6.91299">
        <ele>246.39999389648</ele>
        <time>2012-01-07T08:20:03.000Z</time>
      </trkpt>
      <trkpt lat="43.49777" lon="6.91284">
        <ele>246.19999694824</ele>
        <time>2012-01-07T08:20:08.000Z</time>
      </trkpt>
      <trkpt lat="43.4977" lon="6.91265">
        <ele>244.60000610352</ele>
        <time>2012-01-07T08:20:13.000Z</time>
      </trkpt>
      <trkpt lat="43.49762" lon="6.91244">
        <ele>242.19999694824</ele>
        <time>2012-01-07T08:20:18.000Z</time>
      </trkpt>
      <trkpt lat="43.49752" lon="6.9122">
        <ele>239.39999389648</ele>
        <time>2012-01-07T08:20:23.000Z</time>
      </trkpt>
      <trkpt lat="43.49747" lon="6.91216">
        <ele>240.39999389648</ele>
        <time>2012-01-07T08:20:24.000Z</time>
      </trkpt>
      <trkpt lat="43.4974" lon="6.91202">
        <ele>241.39999389648</ele>
        <time>2012-01-07T08:20:27.000Z</time>
      </trkpt>
      <trkpt lat="43.49732" lon="6.91185">
        <ele>242.19999694824</ele>
        <time>2012-01-07T08:20:31.000Z</time>
      </trkpt>
      <trkpt lat="43.49711" lon="6.91142">
        <ele>247.80000305176</ele>
        <time>2012-01-07T08:20:40.000Z</time>
      </trkpt>
      <trkpt lat="43.49708" lon="6.91133">
        <ele>248.19999694824</ele>
        <time>2012-01-07T08:20:42.000Z</time>
      </trkpt>
      <trkpt lat="43.49704" lon="6.91115">
        <ele>247.80000305176</ele>
        <time>2012-01-07T08:20:46.000Z</time>
      </trkpt>
      <trkpt lat="43.49696" lon="6.91078">
        <ele>248.39999389648</ele>
        <time>2012-01-07T08:20:53.000Z</time>
      </trkpt>
      <trkpt lat="43.4968" lon="6.91032">
        <ele>256.20001220703</ele>
        <time>2012-01-07T08:21:02.000Z</time>
      </trkpt>
      <trkpt lat="43.4968" lon="6.9101">
        <ele>256</ele>
        <time>2012-01-07T08:21:07.000Z</time>
      </trkpt>
      <trkpt lat="43.49688" lon="6.90991">
        <ele>252</ele>
        <time>2012-01-07T08:21:12.000Z</time>
      </trkpt>
      <trkpt lat="43.49701" lon="6.90965">
        <ele>247</ele>
        <time>2012-01-07T08:21:18.000Z</time>
      </trkpt>
      <trkpt lat="43.49701" lon="6.90938">
        <ele>249.39999389648</ele>
        <time>2012-01-07T08:21:23.000Z</time>
      </trkpt>
      <trkpt lat="43.49699" lon="6.90932">
        <ele>250.60000610352</ele>
        <time>2012-01-07T08:21:24.000Z</time>
      </trkpt>
      <trkpt lat="43.49698" lon="6.90915">
        <ele>252.60000610352</ele>
        <time>2012-01-07T08:21:27.000Z</time>
      </trkpt>
      <trkpt lat="43.49697" lon="6.90879">
        <ele>248.80000305176</ele>
        <time>2012-01-07T08:21:33.000Z</time>
      </trkpt>
      <trkpt lat="43.49696" lon="6.90872">
        <ele>248.60000610352</ele>
        <time>2012-01-07T08:21:34.000Z</time>
      </trkpt>
      <trkpt lat="43.4969" lon="6.90847">
        <ele>248.80000305176</ele>
        <time>2012-01-07T08:21:38.000Z</time>
      </trkpt>
      <trkpt lat="43.49684" lon="6.90813">
        <ele>246.19999694824</ele>
        <time>2012-01-07T08:21:44.000Z</time>
      </trkpt>
      <trkpt lat="43.49679" lon="6.90793">
        <ele>244.39999389648</ele>
        <time>2012-01-07T08:21:49.000Z</time>
      </trkpt>
      <trkpt lat="43.49678" lon="6.90787">
        <ele>243.39999389648</ele>
        <time>2012-01-07T08:21:50.000Z</time>
      </trkpt>
      <trkpt lat="43.49674" lon="6.90765">
        <ele>240</ele>
        <time>2012-01-07T08:21:55.000Z</time>
      </trkpt>
      <trkpt lat="43.49666" lon="6.90746">
        <ele>239.39999389648</ele>
        <time>2012-01-07T08:22:00.000Z</time>
      </trkpt>
      <trkpt lat="43.4966" lon="6.90725">
        <ele>236.60000610352</ele>
        <time>2012-01-07T08:22:05.000Z</time>
      </trkpt>
      <trkpt lat="43.49652" lon="6.90708">
        <ele>236</ele>
        <time>2012-01-07T08:22:10.000Z</time>
      </trkpt>
      <trkpt lat="43.49643" lon="6.90682">
        <ele>232.39999389648</ele>
        <time>2012-01-07T08:22:17.000Z</time>
      </trkpt>
      <trkpt lat="43.49633" lon="6.90658">
        <ele>230.60000610352</ele>
        <time>2012-01-07T08:22:24.000Z</time>
      </trkpt>
      <trkpt lat="43.49623" lon="6.90644">
        <ele>231.19999694824</ele>
        <time>2012-01-07T08:22:29.000Z</time>
      </trkpt>
      <trkpt lat="43.49612" lon="6.90639">
        <ele>234.39999389648</ele>
        <time>2012-01-07T08:22:34.000Z</time>
      </trkpt>
      <trkpt lat="43.49607" lon="6.90626">
        <ele>232.80000305176</ele>
        <time>2012-01-07T08:22:38.000Z</time>
      </trkpt>
      <trkpt lat="43.49605" lon="6.90621">
        <ele>232.19999694824</ele>
        <time>2012-01-07T08:22:39.000Z</time>
      </trkpt>
      <trkpt lat="43.49596" lon="6.90599">
        <ele>230.19999694824</ele>
        <time>2012-01-07T08:22:45.000Z</time>
      </trkpt>
      <trkpt lat="43.49587" lon="6.90574">
        <ele>227.39999389648</ele>
        <time>2012-01-07T08:22:51.000Z</time>
      </trkpt>
      <trkpt lat="43.49571" lon="6.90556">
        <ele>230</ele>
        <time>2012-01-07T08:22:55.000Z</time>
      </trkpt>
      <trkpt lat="43.49569" lon="6.90553">
        <ele>230.39999389648</ele>
        <time>2012-01-07T08:22:56.000Z</time>
      </trkpt>
      <trkpt lat="43.49556" lon="6.90525">
        <ele>231</ele>
        <time>2012-01-07T08:23:02.000Z</time>
      </trkpt>
      <trkpt lat="43.49549" lon="6.90521">
        <ele>232.80000305176</ele>
        <time>2012-01-07T08:23:03.000Z</time>
      </trkpt>
      <trkpt lat="43.49542" lon="6.90512">
        <ele>234</ele>
        <time>2012-01-07T08:23:05.000Z</time>
      </trkpt>
      <trkpt lat="43.49528" lon="6.9048">
        <ele>236.60000610352</ele>
        <time>2012-01-07T08:23:11.000Z</time>
      </trkpt>
      <trkpt lat="43.49524" lon="6.90467">
        <ele>237.39999389648</ele>
        <time>2012-01-07T08:23:14.000Z</time>
      </trkpt>
      <trkpt lat="43.49515" lon="6.90437">
        <ele>238.60000610352</ele>
        <time>2012-01-07T08:23:21.000Z</time>
      </trkpt>
      <trkpt lat="43.49508" lon="6.90417">
        <ele>239.19999694824</ele>
        <time>2012-01-07T08:23:26.000Z</time>
      </trkpt>
      <trkpt lat="43.49506" lon="6.90401">
        <ele>239.80000305176</ele>
        <time>2012-01-07T08:23:31.000Z</time>
      </trkpt>
      <trkpt lat="43.49503" lon="6.90391">
        <ele>240.39999389648</ele>
        <time>2012-01-07T08:23:36.000Z</time>
      </trkpt>
      <trkpt lat="43.49495" lon="6.90396">
        <ele>239.80000305176</ele>
        <time>2012-01-07T08:23:40.000Z</time>
      </trkpt>
      <trkpt lat="43.49488" lon="6.90413">
        <ele>238.39999389648</ele>
        <time>2012-01-07T08:23:48.000Z</time>
      </trkpt>
      <trkpt lat="43.49483" lon="6.90426">
        <ele>238.39999389648</ele>
        <time>2012-01-07T08:23:53.000Z</time>
      </trkpt>
      <trkpt lat="43.49481" lon="6.90431">
        <ele>238.60000610352</ele>
        <time>2012-01-07T08:23:55.000Z</time>
      </trkpt>
      <trkpt lat="43.49475" lon="6.9044">
        <ele>238.39999389648</ele>
        <time>2012-01-07T08:23:59.000Z</time>
      </trkpt>
      <trkpt lat="43.49455" lon="6.9046">
        <ele>237.60000610352</ele>
        <time>2012-01-07T08:24:08.000Z</time>
      </trkpt>
      <trkpt lat="43.49439" lon="6.90477">
        <ele>237.80000305176</ele>
        <time>2012-01-07T08:24:15.000Z</time>
      </trkpt>
      <trkpt lat="43.49423" lon="6.90496">
        <ele>239</ele>
        <time>2012-01-07T08:24:23.000Z</time>
      </trkpt>
      <trkpt lat="43.49416" lon="6.90515">
        <ele>240.39999389648</ele>
        <time>2012-01-07T08:24:28.000Z</time>
      </trkpt>
      <trkpt lat="43.49417" lon="6.9054">
        <ele>243.39999389648</ele>
        <time>2012-01-07T08:24:34.000Z</time>
      </trkpt>
      <trkpt lat="43.49422" lon="6.9056">
        <ele>246</ele>
        <time>2012-01-07T08:24:40.000Z</time>
      </trkpt>
      <trkpt lat="43.49425" lon="6.9059">
        <ele>250</ele>
        <time>2012-01-07T08:24:47.000Z</time>
      </trkpt>
      <trkpt lat="43.49418" lon="6.90609">
        <ele>252.39999389648</ele>
        <time>2012-01-07T08:24:53.000Z</time>
      </trkpt>
      <trkpt lat="43.49412" lon="6.90633">
        <ele>254.80000305176</ele>
        <time>2012-01-07T08:24:59.000Z</time>
      </trkpt>
      <trkpt lat="43.494" lon="6.90654">
        <ele>255.19999694824</ele>
        <time>2012-01-07T08:25:05.000Z</time>
      </trkpt>
      <trkpt lat="43.49384" lon="6.90671">
        <ele>254.60000610352</ele>
        <time>2012-01-07T08:25:12.000Z</time>
      </trkpt>
      <trkpt lat="43.49375" lon="6.90679">
        <ele>254.80000305176</ele>
        <time>2012-01-07T08:25:16.000Z</time>
      </trkpt>
      <trkpt lat="43.4936" lon="6.90692">
        <ele>255.39999389648</ele>
        <time>2012-01-07T08:25:22.000Z</time>
      </trkpt>
      <trkpt lat="43.49345" lon="6.90703">
        <ele>255.19999694824</ele>
        <time>2012-01-07T08:25:28.000Z</time>
      </trkpt>
      <trkpt lat="43.49325" lon="6.90714">
        <ele>253.80000305176</ele>
        <time>2012-01-07T08:25:35.000Z</time>
      </trkpt>
      <trkpt lat="43.4931" lon="6.90722">
        <ele>253.39999389648</ele>
        <time>2012-01-07T08:25:40.000Z</time>
      </trkpt>
      <trkpt lat="43.49294" lon="6.90735">
        <ele>254</ele>
        <time>2012-01-07T08:25:47.000Z</time>
      </trkpt>
      <trkpt lat="43.49282" lon="6.90743">
        <ele>253.60000610352</ele>
        <time>2012-01-07T08:25:52.000Z</time>
      </trkpt>
      <trkpt lat="43.49264" lon="6.90761">
        <ele>254.39999389648</ele>
        <time>2012-01-07T08:25:58.000Z</time>
      </trkpt>
      <trkpt lat="43.49252" lon="6.90784">
        <ele>257</ele>
        <time>2012-01-07T08:26:04.000Z</time>
      </trkpt>
      <trkpt lat="43.49242" lon="6.90807">
        <ele>259.39999389648</ele>
        <time>2012-01-07T08:26:12.000Z</time>
      </trkpt>
      <trkpt lat="43.49232" lon="6.9083">
        <ele>261.60000610352</ele>
        <time>2012-01-07T08:26:19.000Z</time>
      </trkpt>
      <trkpt lat="43.49218" lon="6.90856">
        <ele>263.39999389648</ele>
        <time>2012-01-07T08:26:27.000Z</time>
      </trkpt>
      <trkpt lat="43.49208" lon="6.90868">
        <ele>263.60000610352</ele>
        <time>2012-01-07T08:26:32.000Z</time>
      </trkpt>
      <trkpt lat="43.49196" lon="6.90881">
        <ele>262.79998779297</ele>
        <time>2012-01-07T08:26:37.000Z</time>
      </trkpt>
      <trkpt lat="43.49184" lon="6.90902">
        <ele>264.39999389648</ele>
        <time>2012-01-07T08:26:43.000Z</time>
      </trkpt>
      <trkpt lat="43.49175" lon="6.90914">
        <ele>264.39999389648</ele>
        <time>2012-01-07T08:26:47.000Z</time>
      </trkpt>
      <trkpt lat="43.49159" lon="6.90935">
        <ele>267</ele>
        <time>2012-01-07T08:26:54.000Z</time>
      </trkpt>
      <trkpt lat="43.49148" lon="6.90945">
        <ele>269.39999389648</ele>
        <time>2012-01-07T08:26:59.000Z</time>
      </trkpt>
      <trkpt lat="43.49133" lon="6.90954">
        <ele>271</ele>
        <time>2012-01-07T08:27:06.000Z</time>
      </trkpt>
      <trkpt lat="43.49118" lon="6.90965">
        <ele>273</ele>
        <time>2012-01-07T08:27:13.000Z</time>
      </trkpt>
      <trkpt lat="43.49106" lon="6.90965">
        <ele>272.39999389648</ele>
        <time>2012-01-07T08:27:19.000Z</time>
      </trkpt>
      <trkpt lat="43.49099" lon="6.90955">
        <ele>269</ele>
        <time>2012-01-07T08:27:25.000Z</time>
      </trkpt>
      <trkpt lat="43.49088" lon="6.90938">
        <ele>264</ele>
        <time>2012-01-07T08:27:31.000Z</time>
      </trkpt>
      <trkpt lat="43.49081" lon="6.90921">
        <ele>260</ele>
        <time>2012-01-07T08:27:37.000Z</time>
      </trkpt>
      <trkpt lat="43.49071" lon="6.90902">
        <ele>258.20001220703</ele>
        <time>2012-01-07T08:27:43.000Z</time>
      </trkpt>
      <trkpt lat="43.49059" lon="6.90878">
        <ele>255.80000305176</ele>
        <time>2012-01-07T08:27:49.000Z</time>
      </trkpt>
      <trkpt lat="43.4905" lon="6.9086">
        <ele>253.80000305176</ele>
        <time>2012-01-07T08:27:54.000Z</time>
      </trkpt>
      <trkpt lat="43.49034" lon="6.90839">
        <ele>253</ele>
        <time>2012-01-07T08:28:01.000Z</time>
      </trkpt>
      <trkpt lat="43.49016" lon="6.90824">
        <ele>254.39999389648</ele>
        <time>2012-01-07T08:28:07.000Z</time>
      </trkpt>
      <trkpt lat="43.49" lon="6.90825">
        <ele>259.60000610352</ele>
        <time>2012-01-07T08:28:11.000Z</time>
      </trkpt>
      <trkpt lat="43.48989" lon="6.90827">
        <ele>261</ele>
        <time>2012-01-07T08:28:13.000Z</time>
      </trkpt>
      <trkpt lat="43.48976" lon="6.90835">
        <ele>264.20001220703</ele>
        <time>2012-01-07T08:28:16.000Z</time>
      </trkpt>
      <trkpt lat="43.4895" lon="6.90848">
        <ele>269</ele>
        <time>2012-01-07T08:28:22.000Z</time>
      </trkpt>
      <trkpt lat="43.48932" lon="6.90856">
        <ele>271.79998779297</ele>
        <time>2012-01-07T08:28:27.000Z</time>
      </trkpt>
      <trkpt lat="43.48915" lon="6.90854">
        <ele>272.20001220703</ele>
        <time>2012-01-07T08:28:33.000Z</time>
      </trkpt>
      <trkpt lat="43.48903" lon="6.90844">
        <ele>271.60000610352</ele>
        <time>2012-01-07T08:28:39.000Z</time>
      </trkpt>
      <trkpt lat="43.48892" lon="6.90826">
        <ele>268.60000610352</ele>
        <time>2012-01-07T08:28:45.000Z</time>
      </trkpt>
      <trkpt lat="43.48885" lon="6.90808">
        <ele>264.20001220703</ele>
        <time>2012-01-07T08:28:51.000Z</time>
      </trkpt>
      <trkpt lat="43.48876" lon="6.90794">
        <ele>261.79998779297</ele>
        <time>2012-01-07T08:28:56.000Z</time>
      </trkpt>
      <trkpt lat="43.48867" lon="6.90773">
        <ele>257.20001220703</ele>
        <time>2012-01-07T08:29:03.000Z</time>
      </trkpt>
      <trkpt lat="43.48856" lon="6.9076">
        <ele>256.20001220703</ele>
        <time>2012-01-07T08:29:09.000Z</time>
      </trkpt>
      <trkpt lat="43.4884" lon="6.90748">
        <ele>257.39999389648</ele>
        <time>2012-01-07T08:29:15.000Z</time>
      </trkpt>
      <trkpt lat="43.4883" lon="6.90741">
        <ele>257.79998779297</ele>
        <time>2012-01-07T08:29:20.000Z</time>
      </trkpt>
      <trkpt lat="43.48808" lon="6.90739">
        <ele>258</ele>
        <time>2012-01-07T08:29:25.000Z</time>
      </trkpt>
      <trkpt lat="43.48787" lon="6.90749">
        <ele>261</ele>
        <time>2012-01-07T08:29:29.000Z</time>
      </trkpt>
      <trkpt lat="43.48784" lon="6.90752">
        <ele>261.60000610352</ele>
        <time>2012-01-07T08:29:30.000Z</time>
      </trkpt>
      <trkpt lat="43.48772" lon="6.90773">
        <ele>265</ele>
        <time>2012-01-07T08:29:35.000Z</time>
      </trkpt>
      <trkpt lat="43.48767" lon="6.90787">
        <ele>266.79998779297</ele>
        <time>2012-01-07T08:29:39.000Z</time>
      </trkpt>
      <trkpt lat="43.48764" lon="6.90815">
        <ele>270.20001220703</ele>
        <time>2012-01-07T08:29:47.000Z</time>
      </trkpt>
      <trkpt lat="43.48765" lon="6.90849">
        <ele>275.20001220703</ele>
        <time>2012-01-07T08:29:56.000Z</time>
      </trkpt>
      <trkpt lat="43.48765" lon="6.90877">
        <ele>279</ele>
        <time>2012-01-07T08:30:04.000Z</time>
      </trkpt>
      <trkpt lat="43.48762" lon="6.909">
        <ele>281.20001220703</ele>
        <time>2012-01-07T08:30:12.000Z</time>
      </trkpt>
      <trkpt lat="43.48755" lon="6.9092">
        <ele>282.20001220703</ele>
        <time>2012-01-07T08:30:19.000Z</time>
      </trkpt>
      <trkpt lat="43.4875" lon="6.90941">
        <ele>285.20001220703</ele>
        <time>2012-01-07T08:30:25.000Z</time>
      </trkpt>
      <trkpt lat="43.48742" lon="6.90959">
        <ele>287</ele>
        <time>2012-01-07T08:30:31.000Z</time>
      </trkpt>
      <trkpt lat="43.48734" lon="6.90977">
        <ele>289.60000610352</ele>
        <time>2012-01-07T08:30:37.000Z</time>
      </trkpt>
      <trkpt lat="43.48727" lon="6.90999">
        <ele>294.39999389648</ele>
        <time>2012-01-07T08:30:44.000Z</time>
      </trkpt>
      <trkpt lat="43.48716" lon="6.91017">
        <ele>300.60000610352</ele>
        <time>2012-01-07T08:30:51.000Z</time>
      </trkpt>
      <trkpt lat="43.487" lon="6.91014">
        <ele>296.79998779297</ele>
        <time>2012-01-07T08:30:57.000Z</time>
      </trkpt>
      <trkpt lat="43.48685" lon="6.91008">
        <ele>292.39999389648</ele>
        <time>2012-01-07T08:31:03.000Z</time>
      </trkpt>
      <trkpt lat="43.48667" lon="6.91005">
        <ele>288.60000610352</ele>
        <time>2012-01-07T08:31:09.000Z</time>
      </trkpt>
      <trkpt lat="43.48649" lon="6.91003">
        <ele>283.79998779297</ele>
        <time>2012-01-07T08:31:15.000Z</time>
      </trkpt>
      <trkpt lat="43.48629" lon="6.91008">
        <ele>281.79998779297</ele>
        <time>2012-01-07T08:31:22.000Z</time>
      </trkpt>
      <trkpt lat="43.48614" lon="6.91021">
        <ele>284</ele>
        <time>2012-01-07T08:31:28.000Z</time>
      </trkpt>
      <trkpt lat="43.48602" lon="6.91037">
        <ele>287.20001220703</ele>
        <time>2012-01-07T08:31:34.000Z</time>
      </trkpt>
      <trkpt lat="43.48587" lon="6.91058">
        <ele>291.39999389648</ele>
        <time>2012-01-07T08:31:42.000Z</time>
      </trkpt>
      <trkpt lat="43.48576" lon="6.91077">
        <ele>294.79998779297</ele>
        <time>2012-01-07T08:31:49.000Z</time>
      </trkpt>
      <trkpt lat="43.48562" lon="6.91098">
        <ele>296.60000610352</ele>
        <time>2012-01-07T08:31:57.000Z</time>
      </trkpt>
      <trkpt lat="43.48547" lon="6.9112">
        <ele>298</ele>
        <time>2012-01-07T08:32:04.000Z</time>
      </trkpt>
      <trkpt lat="43.48535" lon="6.9114">
        <ele>299.79998779297</ele>
        <time>2012-01-07T08:32:11.000Z</time>
      </trkpt>
      <trkpt lat="43.48518" lon="6.9116">
        <ele>299.79998779297</ele>
        <time>2012-01-07T08:32:18.000Z</time>
      </trkpt>
      <trkpt lat="43.48503" lon="6.91179">
        <ele>299.39999389648</ele>
        <time>2012-01-07T08:32:25.000Z</time>
      </trkpt>
      <trkpt lat="43.48494" lon="6.91193">
        <ele>300.79998779297</ele>
        <time>2012-01-07T08:32:30.000Z</time>
      </trkpt>
      <trkpt lat="43.48479" lon="6.91208">
        <ele>302</ele>
        <time>2012-01-07T08:32:36.000Z</time>
      </trkpt>
      <trkpt lat="43.48468" lon="6.91222">
        <ele>304.20001220703</ele>
        <time>2012-01-07T08:32:42.000Z</time>
      </trkpt>
      <trkpt lat="43.48451" lon="6.91232">
        <ele>304.20001220703</ele>
        <time>2012-01-07T08:32:49.000Z</time>
      </trkpt>
      <trkpt lat="43.48434" lon="6.91247">
        <ele>306.39999389648</ele>
        <time>2012-01-07T08:32:57.000Z</time>
      </trkpt>
      <trkpt lat="43.48418" lon="6.91255">
        <ele>306</ele>
        <time>2012-01-07T08:33:04.000Z</time>
      </trkpt>
      <trkpt lat="43.48402" lon="6.91263">
        <ele>309</ele>
        <time>2012-01-07T08:33:11.000Z</time>
      </trkpt>
      <trkpt lat="43.4839" lon="6.91268">
        <ele>311.39999389648</ele>
        <time>2012-01-07T08:33:16.000Z</time>
      </trkpt>
      <trkpt lat="43.48374" lon="6.91268">
        <ele>312.60000610352</ele>
        <time>2012-01-07T08:33:23.000Z</time>
      </trkpt>
      <trkpt lat="43.48359" lon="6.91263">
        <ele>312.20001220703</ele>
        <time>2012-01-07T08:33:29.000Z</time>
      </trkpt>
      <trkpt lat="43.48347" lon="6.91255">
        <ele>311.20001220703</ele>
        <time>2012-01-07T08:33:35.000Z</time>
      </trkpt>
      <trkpt lat="43.48337" lon="6.91244">
        <ele>308.79998779297</ele>
        <time>2012-01-07T08:33:41.000Z</time>
      </trkpt>
      <trkpt lat="43.48327" lon="6.91232">
        <ele>308.20001220703</ele>
        <time>2012-01-07T08:33:46.000Z</time>
      </trkpt>
      <trkpt lat="43.48325" lon="6.9123">
        <ele>308.20001220703</ele>
        <time>2012-01-07T08:33:47.000Z</time>
      </trkpt>
      <trkpt lat="43.48318" lon="6.91209">
        <ele>305.60000610352</ele>
        <time>2012-01-07T08:33:54.000Z</time>
      </trkpt>
      <trkpt lat="43.48311" lon="6.9119">
        <ele>303.39999389648</ele>
        <time>2012-01-07T08:34:01.000Z</time>
      </trkpt>
      <trkpt lat="43.483" lon="6.91171">
        <ele>302.79998779297</ele>
        <time>2012-01-07T08:34:08.000Z</time>
      </trkpt>
      <trkpt lat="43.48287" lon="6.91147">
        <ele>302</ele>
        <time>2012-01-07T08:34:16.000Z</time>
      </trkpt>
      <trkpt lat="43.48277" lon="6.91125">
        <ele>300.39999389648</ele>
        <time>2012-01-07T08:34:24.000Z</time>
      </trkpt>
      <trkpt lat="43.48267" lon="6.91107">
        <ele>299.60000610352</ele>
        <time>2012-01-07T08:34:31.000Z</time>
      </trkpt>
      <trkpt lat="43.48253" lon="6.91089">
        <ele>300.39999389648</ele>
        <time>2012-01-07T08:34:39.000Z</time>
      </trkpt>
      <trkpt lat="43.48236" lon="6.91079">
        <ele>300.20001220703</ele>
        <time>2012-01-07T08:34:45.000Z</time>
      </trkpt>
      <trkpt lat="43.48211" lon="6.91079">
        <ele>303</ele>
        <time>2012-01-07T08:34:51.000Z</time>
      </trkpt>
      <trkpt lat="43.4819" lon="6.91086">
        <ele>307.60000610352</ele>
        <time>2012-01-07T08:34:57.000Z</time>
      </trkpt>
      <trkpt lat="43.4817" lon="6.91095">
        <ele>312.79998779297</ele>
        <time>2012-01-07T08:35:04.000Z</time>
      </trkpt>
      <trkpt lat="43.48154" lon="6.91106">
        <ele>315.60000610352</ele>
        <time>2012-01-07T08:35:12.000Z</time>
      </trkpt>
      <trkpt lat="43.48138" lon="6.91116">
        <ele>317.20001220703</ele>
        <time>2012-01-07T08:35:20.000Z</time>
      </trkpt>
      <trkpt lat="43.48127" lon="6.91124">
        <ele>318.60000610352</ele>
        <time>2012-01-07T08:35:26.000Z</time>
      </trkpt>
      <trkpt lat="43.4811" lon="6.91139">
        <ele>321</ele>
        <time>2012-01-07T08:35:35.000Z</time>
      </trkpt>
      <trkpt lat="43.48094" lon="6.91152">
        <ele>322.39999389648</ele>
        <time>2012-01-07T08:35:42.000Z</time>
      </trkpt>
      <trkpt lat="43.48075" lon="6.91156">
        <ele>321.79998779297</ele>
        <time>2012-01-07T08:35:50.000Z</time>
      </trkpt>
      <trkpt lat="43.48065" lon="6.91167">
        <ele>323.79998779297</ele>
        <time>2012-01-07T08:35:55.000Z</time>
      </trkpt>
      <trkpt lat="43.48057" lon="6.91182">
        <ele>321.20001220703</ele>
        <time>2012-01-07T08:36:02.000Z</time>
      </trkpt>
      <trkpt lat="43.4805" lon="6.91196">
        <ele>317.79998779297</ele>
        <time>2012-01-07T08:36:09.000Z</time>
      </trkpt>
      <trkpt lat="43.48049" lon="6.91197">
        <ele>317.60000610352</ele>
        <time>2012-01-07T08:36:10.000Z</time>
      </trkpt>
      <trkpt lat="43.4805" lon="6.91198">
        <ele>317.60000610352</ele>
        <time>2012-01-07T08:36:19.000Z</time>
      </trkpt>
      <trkpt lat="43.48047" lon="6.91196">
        <ele>317.39999389648</ele>
        <time>2012-01-07T08:36:28.000Z</time>
      </trkpt>
      <trkpt lat="43.48046" lon="6.91196">
        <ele>317.39999389648</ele>
        <time>2012-01-07T08:36:35.000Z</time>
      </trkpt>
      <trkpt lat="43.48046" lon="6.91195">
        <ele>317.60000610352</ele>
        <time>2012-01-07T08:36:42.000Z</time>
      </trkpt>
      <trkpt lat="43.48048" lon="6.91196">
        <ele>317.60000610352</ele>
        <time>2012-01-07T08:36:51.000Z</time>
      </trkpt>
      <trkpt lat="43.48051" lon="6.91197">
        <ele>317.79998779297</ele>
        <time>2012-01-07T08:37:03.000Z</time>
      </trkpt>
      <trkpt lat="43.48051" lon="6.91197">
        <ele>318</ele>
        <time>2012-01-07T08:37:13.000Z</time>
      </trkpt>
      <trkpt lat="43.48048" lon="6.91197">
        <ele>317.60000610352</ele>
        <time>2012-01-07T08:37:21.000Z</time>
      </trkpt>
      <trkpt lat="43.48047" lon="6.91198">
        <ele>317</ele>
        <time>2012-01-07T08:37:28.000Z</time>
      </trkpt>
      <trkpt lat="43.48047" lon="6.912">
        <ele>316.79998779297</ele>
        <time>2012-01-07T08:37:40.000Z</time>
      </trkpt>
      <trkpt lat="43.48046" lon="6.912">
        <ele>316.60000610352</ele>
        <time>2012-01-07T08:37:48.000Z</time>
      </trkpt>
      <trkpt lat="43.48045" lon="6.91198">
        <ele>316.79998779297</ele>
        <time>2012-01-07T08:38:05.000Z</time>
      </trkpt>
      <trkpt lat="43.48045" lon="6.91197">
        <ele>317.20001220703</ele>
        <time>2012-01-07T08:38:19.000Z</time>
      </trkpt>
      <trkpt lat="43.48046" lon="6.91196">
        <ele>317.39999389648</ele>
        <time>2012-01-07T08:38:28.000Z</time>
      </trkpt>
      <trkpt lat="43.48046" lon="6.91196">
        <ele>317.39999389648</ele>
        <time>2012-01-07T08:38:36.000Z</time>
      </trkpt>
      <trkpt lat="43.48047" lon="6.91197">
        <ele>317.39999389648</ele>
        <time>2012-01-07T08:38:44.000Z</time>
      </trkpt>
      <trkpt lat="43.48046" lon="6.912">
        <ele>316.79998779297</ele>
        <time>2012-01-07T08:38:58.000Z</time>
      </trkpt>
      <trkpt lat="43.48047" lon="6.91201">
        <ele>316.60000610352</ele>
        <time>2012-01-07T08:39:06.000Z</time>
      </trkpt>
      <trkpt lat="43.48047" lon="6.91201">
        <ele>316.60000610352</ele>
        <time>2012-01-07T08:39:12.000Z</time>
      </trkpt>
      <trkpt lat="43.48045" lon="6.912">
        <ele>316.60000610352</ele>
        <time>2012-01-07T08:39:19.000Z</time>
      </trkpt>
      <trkpt lat="43.48045" lon="6.91196">
        <ele>317.20001220703</ele>
        <time>2012-01-07T08:39:54.000Z</time>
      </trkpt>
      <trkpt lat="43.48044" lon="6.91193">
        <ele>317.60000610352</ele>
        <time>2012-01-07T08:40:08.000Z</time>
      </trkpt>
      <trkpt lat="43.48044" lon="6.91193">
        <ele>317.79998779297</ele>
        <time>2012-01-07T08:40:13.000Z</time>
      </trkpt>
      <trkpt lat="43.48044" lon="6.91195">
        <ele>317.39999389648</ele>
        <time>2012-01-07T08:40:29.000Z</time>
      </trkpt>
      <trkpt lat="43.48044" lon="6.91195">
        <ele>317.20001220703</ele>
        <time>2012-01-07T08:40:37.000Z</time>
      </trkpt>
      <trkpt lat="43.48043" lon="6.91194">
        <ele>317.39999389648</ele>
        <time>2012-01-07T08:40:46.000Z</time>
      </trkpt>
      <trkpt lat="43.48043" lon="6.91193">
        <ele>317.60000610352</ele>
        <time>2012-01-07T08:40:52.000Z</time>
      </trkpt>
      <trkpt lat="43.48046" lon="6.91189">
        <ele>318.60000610352</ele>
        <time>2012-01-07T08:40:56.000Z</time>
      </trkpt>
      <trkpt lat="43.48055" lon="6.91184">
        <ele>320.39999389648</ele>
        <time>2012-01-07T08:41:03.000Z</time>
      </trkpt>
      <trkpt lat="43.48053" lon="6.91178">
        <ele>321.20001220703</ele>
        <time>2012-01-07T08:41:09.000Z</time>
      </trkpt>
      <trkpt lat="43.48051" lon="6.91186">
        <ele>319.79998779297</ele>
        <time>2012-01-07T08:41:15.000Z</time>
      </trkpt>
      <trkpt lat="43.48047" lon="6.91194">
        <ele>318</ele>
        <time>2012-01-07T08:41:20.000Z</time>
      </trkpt>
      <trkpt lat="43.48046" lon="6.91196">
        <ele>317.39999389648</ele>
        <time>2012-01-07T08:41:24.000Z</time>
      </trkpt>
      <trkpt lat="43.48046" lon="6.91196">
        <ele>317.39999389648</ele>
        <time>2012-01-07T08:41:30.000Z</time>
      </trkpt>
      <trkpt lat="43.48047" lon="6.912">
        <ele>316.79998779297</ele>
        <time>2012-01-07T08:41:41.000Z</time>
      </trkpt>
      <trkpt lat="43.48045" lon="6.91201">
        <ele>316.39999389648</ele>
        <time>2012-01-07T08:41:57.000Z</time>
      </trkpt>
      <trkpt lat="43.48047" lon="6.912">
        <ele>316.79998779297</ele>
        <time>2012-01-07T08:42:12.000Z</time>
      </trkpt>
      <trkpt lat="43.48049" lon="6.91196">
        <ele>317.79998779297</ele>
        <time>2012-01-07T08:42:35.000Z</time>
      </trkpt>
      <trkpt lat="43.48049" lon="6.91193">
        <ele>318.39999389648</ele>
        <time>2012-01-07T08:42:47.000Z</time>
      </trkpt>
      <trkpt lat="43.48048" lon="6.91194">
        <ele>318</ele>
        <time>2012-01-07T08:43:09.000Z</time>
      </trkpt>
      <trkpt lat="43.48048" lon="6.91197">
        <ele>317.60000610352</ele>
        <time>2012-01-07T08:43:32.000Z</time>
      </trkpt>
      <trkpt lat="43.48048" lon="6.91194">
        <ele>318</ele>
        <time>2012-01-07T08:43:50.000Z</time>
      </trkpt>
      <trkpt lat="43.48047" lon="6.91193">
        <ele>318.20001220703</ele>
        <time>2012-01-07T08:44:08.000Z</time>
      </trkpt>
      <trkpt lat="43.48047" lon="6.91192">
        <ele>318.20001220703</ele>
        <time>2012-01-07T08:44:18.000Z</time>
      </trkpt>
      <trkpt lat="43.48047" lon="6.91192">
        <ele>318.20001220703</ele>
        <time>2012-01-07T08:44:29.000Z</time>
      </trkpt>
      <trkpt lat="43.48046" lon="6.91195">
        <ele>317.60000610352</ele>
        <time>2012-01-07T08:44:43.000Z</time>
      </trkpt>
      <trkpt lat="43.48047" lon="6.91197">
        <ele>317.20001220703</ele>
        <time>2012-01-07T08:44:57.000Z</time>
      </trkpt>
      <trkpt lat="43.48048" lon="6.91199">
        <ele>317.20001220703</ele>
        <time>2012-01-07T08:45:10.000Z</time>
      </trkpt>
      <trkpt lat="43.48046" lon="6.91195">
        <ele>317.60000610352</ele>
        <time>2012-01-07T08:45:29.000Z</time>
      </trkpt>
      <trkpt lat="43.48048" lon="6.91191">
        <ele>318.39999389648</ele>
        <time>2012-01-07T08:45:59.000Z</time>
      </trkpt>
      <trkpt lat="43.48051" lon="6.91191">
        <ele>319</ele>
        <time>2012-01-07T08:46:11.000Z</time>
      </trkpt>
      <trkpt lat="43.48051" lon="6.91191">
        <ele>319</ele>
        <time>2012-01-07T08:46:32.000Z</time>
      </trkpt>
      <trkpt lat="43.48051" lon="6.91192">
        <ele>318.60000610352</ele>
        <time>2012-01-07T08:46:43.000Z</time>
      </trkpt>
      <trkpt lat="43.4805" lon="6.91193">
        <ele>318.39999389648</ele>
        <time>2012-01-07T08:46:57.000Z</time>
      </trkpt>
      <trkpt lat="43.48049" lon="6.91194">
        <ele>318.20001220703</ele>
        <time>2012-01-07T08:47:16.000Z</time>
      </trkpt>
      <trkpt lat="43.48048" lon="6.91193">
        <ele>318.20001220703</ele>
        <time>2012-01-07T08:47:36.000Z</time>
      </trkpt>
      <trkpt lat="43.48048" lon="6.91193">
        <ele>318.20001220703</ele>
        <time>2012-01-07T08:47:41.000Z</time>
      </trkpt>
      <trkpt lat="43.48049" lon="6.91196">
        <ele>317.79998779297</ele>
        <time>2012-01-07T08:47:52.000Z</time>
      </trkpt>
      <trkpt lat="43.48049" lon="6.91196">
        <ele>317.79998779297</ele>
        <time>2012-01-07T08:48:12.000Z</time>
      </trkpt>
      <trkpt lat="43.48049" lon="6.91196">
        <ele>317.79998779297</ele>
        <time>2012-01-07T08:48:44.000Z</time>
      </trkpt>
      <trkpt lat="43.4805" lon="6.91197">
        <ele>317.79998779297</ele>
        <time>2012-01-07T08:48:53.000Z</time>
      </trkpt>
      <trkpt lat="43.48049" lon="6.91197">
        <ele>317.60000610352</ele>
        <time>2012-01-07T08:49:12.000Z</time>
      </trkpt>
      <trkpt lat="43.4805" lon="6.91192">
        <ele>318.60000610352</ele>
        <time>2012-01-07T08:49:16.000Z</time>
      </trkpt>
      <trkpt lat="43.4805" lon="6.91185">
        <ele>319.79998779297</ele>
        <time>2012-01-07T08:49:20.000Z</time>
      </trkpt>
      <trkpt lat="43.48044" lon="6.91168">
        <ele>322.20001220703</ele>
        <time>2012-01-07T08:49:28.000Z</time>
      </trkpt>
      <trkpt lat="43.48033" lon="6.91152">
        <ele>319.39999389648</ele>
        <time>2012-01-07T08:49:35.000Z</time>
      </trkpt>
      <trkpt lat="43.48017" lon="6.9114">
        <ele>317</ele>
        <time>2012-01-07T08:49:43.000Z</time>
      </trkpt>
      <trkpt lat="43.48005" lon="6.91131">
        <ele>315.79998779297</ele>
        <time>2012-01-07T08:49:51.000Z</time>
      </trkpt>
      <trkpt lat="43.47987" lon="6.91116">
        <ele>316.39999389648</ele>
        <time>2012-01-07T08:50:03.000Z</time>
      </trkpt>
      <trkpt lat="43.47979" lon="6.91108">
        <ele>317.60000610352</ele>
        <time>2012-01-07T08:50:09.000Z</time>
      </trkpt>
      <trkpt lat="43.47968" lon="6.91092">
        <ele>319.79998779297</ele>
        <time>2012-01-07T08:50:18.000Z</time>
      </trkpt>
      <trkpt lat="43.47958" lon="6.91076">
        <ele>321</ele>
        <time>2012-01-07T08:50:25.000Z</time>
      </trkpt>
      <trkpt lat="43.47943" lon="6.91061">
        <ele>322</ele>
        <time>2012-01-07T08:50:33.000Z</time>
      </trkpt>
      <trkpt lat="43.47928" lon="6.91046">
        <ele>323.79998779297</ele>
        <time>2012-01-07T08:50:42.000Z</time>
      </trkpt>
      <trkpt lat="43.47907" lon="6.9103">
        <ele>328</ele>
        <time>2012-01-07T08:50:54.000Z</time>
      </trkpt>
      <trkpt lat="43.47889" lon="6.91015">
        <ele>331.79998779297</ele>
        <time>2012-01-07T08:51:04.000Z</time>
      </trkpt>
      <trkpt lat="43.47873" lon="6.90999">
        <ele>334.79998779297</ele>
        <time>2012-01-07T08:51:13.000Z</time>
      </trkpt>
      <trkpt lat="43.47869" lon="6.90993">
        <ele>334.60000610352</ele>
        <time>2012-01-07T08:51:19.000Z</time>
      </trkpt>
      <trkpt lat="43.47868" lon="6.90993">
        <ele>335.20001220703</ele>
        <time>2012-01-07T08:51:27.000Z</time>
      </trkpt>
      <trkpt lat="43.47866" lon="6.90992">
        <ele>335.60000610352</ele>
        <time>2012-01-07T08:51:45.000Z</time>
      </trkpt>
      <trkpt lat="43.47866" lon="6.90992">
        <ele>335.39999389648</ele>
        <time>2012-01-07T08:51:48.000Z</time>
      </trkpt>
      <trkpt lat="43.47867" lon="6.9099">
        <ele>334.60000610352</ele>
        <time>2012-01-07T08:51:50.000Z</time>
      </trkpt>
      <trkpt lat="43.47856" lon="6.90976">
        <ele>335</ele>
        <time>2012-01-07T08:51:58.000Z</time>
      </trkpt>
      <trkpt lat="43.47843" lon="6.9097">
        <ele>338.60000610352</ele>
        <time>2012-01-07T08:52:04.000Z</time>
      </trkpt>
      <trkpt lat="43.47838" lon="6.9097">
        <ele>340.79998779297</ele>
        <time>2012-01-07T08:52:06.000Z</time>
      </trkpt>
      <trkpt lat="43.47826" lon="6.90961">
        <ele>344.60000610352</ele>
        <time>2012-01-07T08:52:12.000Z</time>
      </trkpt>
      <trkpt lat="43.47817" lon="6.90946">
        <ele>346.60000610352</ele>
        <time>2012-01-07T08:52:18.000Z</time>
      </trkpt>
      <trkpt lat="43.47815" lon="6.90941">
        <ele>346.60000610352</ele>
        <time>2012-01-07T08:52:20.000Z</time>
      </trkpt>
      <trkpt lat="43.47815" lon="6.90921">
        <ele>342.20001220703</ele>
        <time>2012-01-07T08:52:26.000Z</time>
      </trkpt>
      <trkpt lat="43.47814" lon="6.90905">
        <ele>340.20001220703</ele>
        <time>2012-01-07T08:52:31.000Z</time>
      </trkpt>
      <trkpt lat="43.4781" lon="6.90885">
        <ele>340.20001220703</ele>
        <time>2012-01-07T08:52:38.000Z</time>
      </trkpt>
      <trkpt lat="43.4781" lon="6.90877">
        <ele>339</ele>
        <time>2012-01-07T08:52:41.000Z</time>
      </trkpt>
      <trkpt lat="43.47804" lon="6.90861">
        <ele>340.39999389648</ele>
        <time>2012-01-07T08:52:47.000Z</time>
      </trkpt>
      <trkpt lat="43.47799" lon="6.90839">
        <ele>340.79998779297</ele>
        <time>2012-01-07T08:52:55.000Z</time>
      </trkpt>
      <trkpt lat="43.47794" lon="6.90833">
        <ele>343.39999389648</ele>
        <time>2012-01-07T08:52:58.000Z</time>
      </trkpt>
      <trkpt lat="43.47795" lon="6.90814">
        <ele>343.20001220703</ele>
        <time>2012-01-07T08:53:04.000Z</time>
      </trkpt>
      <trkpt lat="43.47791" lon="6.90804">
        <ele>345.79998779297</ele>
        <time>2012-01-07T08:53:08.000Z</time>
      </trkpt>
      <trkpt lat="43.47772" lon="6.9079">
        <ele>357.20001220703</ele>
        <time>2012-01-07T08:53:16.000Z</time>
      </trkpt>
      <trkpt lat="43.47762" lon="6.90781">
        <ele>363.20001220703</ele>
        <time>2012-01-07T08:53:21.000Z</time>
      </trkpt>
      <trkpt lat="43.47757" lon="6.90765">
        <ele>365.79998779297</ele>
        <time>2012-01-07T08:53:26.000Z</time>
      </trkpt>
      <trkpt lat="43.47754" lon="6.90757">
        <ele>367</ele>
        <time>2012-01-07T08:53:28.000Z</time>
      </trkpt>
      <trkpt lat="43.47761" lon="6.90749">
        <ele>363.39999389648</ele>
        <time>2012-01-07T08:53:33.000Z</time>
      </trkpt>
      <trkpt lat="43.47764" lon="6.90744">
        <ele>363.60000610352</ele>
        <time>2012-01-07T08:53:35.000Z</time>
      </trkpt>
      <trkpt lat="43.47777" lon="6.90715">
        <ele>366.79998779297</ele>
        <time>2012-01-07T08:53:45.000Z</time>
      </trkpt>
      <trkpt lat="43.47778" lon="6.90712">
        <ele>367.39999389648</ele>
        <time>2012-01-07T08:53:46.000Z</time>
      </trkpt>
      <trkpt lat="43.47792" lon="6.90699">
        <ele>365.20001220703</ele>
        <time>2012-01-07T08:53:53.000Z</time>
      </trkpt>
      <trkpt lat="43.47799" lon="6.90697">
        <ele>362.39999389648</ele>
        <time>2012-01-07T08:53:59.000Z</time>
      </trkpt>
      <trkpt lat="43.47808" lon="6.90692">
        <ele>360</ele>
        <time>2012-01-07T08:54:03.000Z</time>
      </trkpt>
      <trkpt lat="43.47812" lon="6.90691">
        <ele>358.20001220703</ele>
        <time>2012-01-07T08:54:05.000Z</time>
      </trkpt>
      <trkpt lat="43.47827" lon="6.90675">
        <ele>357.20001220703</ele>
        <time>2012-01-07T08:54:13.000Z</time>
      </trkpt>
      <trkpt lat="43.47837" lon="6.90663">
        <ele>358</ele>
        <time>2012-01-07T08:54:19.000Z</time>
      </trkpt>
      <trkpt lat="43.47851" lon="6.90649">
        <ele>357.20001220703</ele>
        <time>2012-01-07T08:54:26.000Z</time>
      </trkpt>
      <trkpt lat="43.47861" lon="6.90636">
        <ele>356.60000610352</ele>
        <time>2012-01-07T08:54:33.000Z</time>
      </trkpt>
      <trkpt lat="43.47867" lon="6.90621">
        <ele>359</ele>
        <time>2012-01-07T08:54:39.000Z</time>
      </trkpt>
      <trkpt lat="43.47874" lon="6.90602">
        <ele>361.60000610352</ele>
        <time>2012-01-07T08:54:45.000Z</time>
      </trkpt>
      <trkpt lat="43.47878" lon="6.90586">
        <ele>364.39999389648</ele>
        <time>2012-01-07T08:54:51.000Z</time>
      </trkpt>
      <trkpt lat="43.47883" lon="6.90562">
        <ele>366.20001220703</ele>
        <time>2012-01-07T08:54:58.000Z</time>
      </trkpt>
      <trkpt lat="43.47887" lon="6.90543">
        <ele>367.20001220703</ele>
        <time>2012-01-07T08:55:05.000Z</time>
      </trkpt>
      <trkpt lat="43.47888" lon="6.90522">
        <ele>370</ele>
        <time>2012-01-07T08:55:12.000Z</time>
      </trkpt>
      <trkpt lat="43.47886" lon="6.90505">
        <ele>373.79998779297</ele>
        <time>2012-01-07T08:55:20.000Z</time>
      </trkpt>
      <trkpt lat="43.47888" lon="6.90488">
        <ele>375.39999389648</ele>
        <time>2012-01-07T08:55:27.000Z</time>
      </trkpt>
      <trkpt lat="43.47889" lon="6.90474">
        <ele>376.39999389648</ele>
        <time>2012-01-07T08:55:32.000Z</time>
      </trkpt>
      <trkpt lat="43.47889" lon="6.90447">
        <ele>379.39999389648</ele>
        <time>2012-01-07T08:55:41.000Z</time>
      </trkpt>
      <trkpt lat="43.47891" lon="6.90435">
        <ele>379.60000610352</ele>
        <time>2012-01-07T08:55:46.000Z</time>
      </trkpt>
      <trkpt lat="43.47892" lon="6.90419">
        <ele>381</ele>
        <time>2012-01-07T08:55:54.000Z</time>
      </trkpt>
      <trkpt lat="43.47896" lon="6.90402">
        <ele>380.79998779297</ele>
        <time>2012-01-07T08:56:01.000Z</time>
      </trkpt>
      <trkpt lat="43.47899" lon="6.90382">
        <ele>381.20001220703</ele>
        <time>2012-01-07T08:56:08.000Z</time>
      </trkpt>
      <trkpt lat="43.4791" lon="6.90361">
        <ele>381</ele>
        <time>2012-01-07T08:56:17.000Z</time>
      </trkpt>
      <trkpt lat="43.4792" lon="6.90347">
        <ele>381</ele>
        <time>2012-01-07T08:56:25.000Z</time>
      </trkpt>
      <trkpt lat="43.47928" lon="6.9034">
        <ele>380.20001220703</ele>
        <time>2012-01-07T08:56:31.000Z</time>
      </trkpt>
      <trkpt lat="43.47928" lon="6.90334">
        <ele>381.20001220703</ele>
        <time>2012-01-07T08:56:38.000Z</time>
      </trkpt>
      <trkpt lat="43.47927" lon="6.90329">
        <ele>380.79998779297</ele>
        <time>2012-01-07T08:56:45.000Z</time>
      </trkpt>
      <trkpt lat="43.47926" lon="6.90329">
        <ele>381.20001220703</ele>
        <time>2012-01-07T08:56:51.000Z</time>
      </trkpt>
      <trkpt lat="43.47927" lon="6.90329">
        <ele>381</ele>
        <time>2012-01-07T08:56:59.000Z</time>
      </trkpt>
      <trkpt lat="43.47928" lon="6.90329">
        <ele>380.79998779297</ele>
        <time>2012-01-07T08:57:05.000Z</time>
      </trkpt>
      <trkpt lat="43.47928" lon="6.90329">
        <ele>380.79998779297</ele>
        <time>2012-01-07T08:57:15.000Z</time>
      </trkpt>
      <trkpt lat="43.47927" lon="6.90331">
        <ele>381.20001220703</ele>
        <time>2012-01-07T08:57:26.000Z</time>
      </trkpt>
      <trkpt lat="43.47925" lon="6.90334">
        <ele>382</ele>
        <time>2012-01-07T08:57:40.000Z</time>
      </trkpt>
      <trkpt lat="43.47923" lon="6.90337">
        <ele>381.79998779297</ele>
        <time>2012-01-07T08:57:45.000Z</time>
      </trkpt>
      <trkpt lat="43.47923" lon="6.90338">
        <ele>381.79998779297</ele>
        <time>2012-01-07T08:57:50.000Z</time>
      </trkpt>
      <trkpt lat="43.47924" lon="6.90337">
        <ele>381.79998779297</ele>
        <time>2012-01-07T08:57:58.000Z</time>
      </trkpt>
      <trkpt lat="43.47925" lon="6.90336">
        <ele>381.79998779297</ele>
        <time>2012-01-07T08:58:11.000Z</time>
      </trkpt>
      <trkpt lat="43.47924" lon="6.90335">
        <ele>382</ele>
        <time>2012-01-07T08:58:36.000Z</time>
      </trkpt>
      <trkpt lat="43.47923" lon="6.90335">
        <ele>382.20001220703</ele>
        <time>2012-01-07T08:58:50.000Z</time>
      </trkpt>
      <trkpt lat="43.47922" lon="6.90334">
        <ele>382.60000610352</ele>
        <time>2012-01-07T08:59:22.000Z</time>
      </trkpt>
      <trkpt lat="43.47923" lon="6.90331">
        <ele>382.20001220703</ele>
        <time>2012-01-07T08:59:52.000Z</time>
      </trkpt>
      <trkpt lat="43.47926" lon="6.9033">
        <ele>381.20001220703</ele>
        <time>2012-01-07T08:59:58.000Z</time>
      </trkpt>
      <trkpt lat="43.47927" lon="6.90329">
        <ele>380.79998779297</ele>
        <time>2012-01-07T09:00:08.000Z</time>
      </trkpt>
      <trkpt lat="43.47927" lon="6.90328">
        <ele>380.60000610352</ele>
        <time>2012-01-07T09:00:18.000Z</time>
      </trkpt>
      <trkpt lat="43.47929" lon="6.90327">
        <ele>380.20001220703</ele>
        <time>2012-01-07T09:00:30.000Z</time>
      </trkpt>
      <trkpt lat="43.47929" lon="6.90326">
        <ele>379.79998779297</ele>
        <time>2012-01-07T09:00:54.000Z</time>
      </trkpt>
      <trkpt lat="43.47929" lon="6.90325">
        <ele>379.60000610352</ele>
        <time>2012-01-07T09:01:03.000Z</time>
      </trkpt>
      <trkpt lat="43.47929" lon="6.90325">
        <ele>379.79998779297</ele>
        <time>2012-01-07T09:01:13.000Z</time>
      </trkpt>
      <trkpt lat="43.4793" lon="6.90324">
        <ele>379.39999389648</ele>
        <time>2012-01-07T09:01:20.000Z</time>
      </trkpt>
      <trkpt lat="43.4793" lon="6.90324">
        <ele>379.39999389648</ele>
        <time>2012-01-07T09:01:31.000Z</time>
      </trkpt>
      <trkpt lat="43.47926" lon="6.90319">
        <ele>379.20001220703</ele>
        <time>2012-01-07T09:01:36.000Z</time>
      </trkpt>
      <trkpt lat="43.47925" lon="6.90317">
        <ele>379</ele>
        <time>2012-01-07T09:01:38.000Z</time>
      </trkpt>
      <trkpt lat="43.47911" lon="6.90316">
        <ele>380.39999389648</ele>
        <time>2012-01-07T09:01:44.000Z</time>
      </trkpt>
      <trkpt lat="43.47891" lon="6.90311">
        <ele>379.79998779297</ele>
        <time>2012-01-07T09:01:49.000Z</time>
      </trkpt>
      <trkpt lat="43.47867" lon="6.90301">
        <ele>377.39999389648</ele>
        <time>2012-01-07T09:01:54.000Z</time>
      </trkpt>
      <trkpt lat="43.47858" lon="6.90296">
        <ele>375.79998779297</ele>
        <time>2012-01-07T09:01:56.000Z</time>
      </trkpt>
      <trkpt lat="43.47838" lon="6.90294">
        <ele>375.20001220703</ele>
        <time>2012-01-07T09:02:01.000Z</time>
      </trkpt>
      <trkpt lat="43.47822" lon="6.90298">
        <ele>377.39999389648</ele>
        <time>2012-01-07T09:02:05.000Z</time>
      </trkpt>
      <trkpt lat="43.47797" lon="6.90303">
        <ele>381.39999389648</ele>
        <time>2012-01-07T09:02:12.000Z</time>
      </trkpt>
      <trkpt lat="43.47778" lon="6.90303">
        <ele>383.39999389648</ele>
        <time>2012-01-07T09:02:17.000Z</time>
      </trkpt>
      <trkpt lat="43.47767" lon="6.90305">
        <ele>385.20001220703</ele>
        <time>2012-01-07T09:02:19.000Z</time>
      </trkpt>
      <trkpt lat="43.47752" lon="6.90304">
        <ele>386</ele>
        <time>2012-01-07T09:02:23.000Z</time>
      </trkpt>
      <trkpt lat="43.47744" lon="6.90304">
        <ele>388.39999389648</ele>
        <time>2012-01-07T09:02:27.000Z</time>
      </trkpt>
      <trkpt lat="43.47743" lon="6.90304">
        <ele>389.20001220703</ele>
        <time>2012-01-07T09:02:30.000Z</time>
      </trkpt>
      <trkpt lat="43.4774" lon="6.90294">
        <ele>386</ele>
        <time>2012-01-07T09:02:33.000Z</time>
      </trkpt>
      <trkpt lat="43.47734" lon="6.90283">
        <ele>383.79998779297</ele>
        <time>2012-01-07T09:02:37.000Z</time>
      </trkpt>
      <trkpt lat="43.47725" lon="6.90271">
        <ele>382.60000610352</ele>
        <time>2012-01-07T09:02:42.000Z</time>
      </trkpt>
      <trkpt lat="43.47713" lon="6.90257">
        <ele>381.39999389648</ele>
        <time>2012-01-07T09:02:48.000Z</time>
      </trkpt>
      <trkpt lat="43.47706" lon="6.90243">
        <ele>379.60000610352</ele>
        <time>2012-01-07T09:02:57.000Z</time>
      </trkpt>
      <trkpt lat="43.477" lon="6.90222">
        <ele>374.60000610352</ele>
        <time>2012-01-07T09:03:02.000Z</time>
      </trkpt>
      <trkpt lat="43.477" lon="6.90202">
        <ele>368</ele>
        <time>2012-01-07T09:03:07.000Z</time>
      </trkpt>
      <trkpt lat="43.47701" lon="6.90199">
        <ele>366.39999389648</ele>
        <time>2012-01-07T09:03:08.000Z</time>
      </trkpt>
      <trkpt lat="43.47699" lon="6.9018">
        <ele>360.79998779297</ele>
        <time>2012-01-07T09:03:14.000Z</time>
      </trkpt>
      <trkpt lat="43.47699" lon="6.9018">
        <ele>360.79998779297</ele>
        <time>2012-01-07T09:03:15.000Z</time>
      </trkpt>
      <trkpt lat="43.47698" lon="6.90176">
        <ele>360</ele>
        <time>2012-01-07T09:03:21.000Z</time>
      </trkpt>
      <trkpt lat="43.47691" lon="6.90168">
        <ele>361</ele>
        <time>2012-01-07T09:03:25.000Z</time>
      </trkpt>
      <trkpt lat="43.47684" lon="6.90158">
        <ele>361</ele>
        <time>2012-01-07T09:03:29.000Z</time>
      </trkpt>
      <trkpt lat="43.47678" lon="6.90142">
        <ele>359.60000610352</ele>
        <time>2012-01-07T09:03:34.000Z</time>
      </trkpt>
      <trkpt lat="43.47675" lon="6.90136">
        <ele>359.20001220703</ele>
        <time>2012-01-07T09:03:36.000Z</time>
      </trkpt>
      <trkpt lat="43.47669" lon="6.90121">
        <ele>358</ele>
        <time>2012-01-07T09:03:40.000Z</time>
      </trkpt>
      <trkpt lat="43.4766" lon="6.90104">
        <ele>357</ele>
        <time>2012-01-07T09:03:45.000Z</time>
      </trkpt>
      <trkpt lat="43.47657" lon="6.90094">
        <ele>355.20001220703</ele>
        <time>2012-01-07T09:03:48.000Z</time>
      </trkpt>
      <trkpt lat="43.47646" lon="6.90072">
        <ele>354.20001220703</ele>
        <time>2012-01-07T09:03:53.000Z</time>
      </trkpt>
      <trkpt lat="43.47643" lon="6.90067">
        <ele>354.79998779297</ele>
        <time>2012-01-07T09:03:55.000Z</time>
      </trkpt>
      <trkpt lat="43.47636" lon="6.90061">
        <ele>357</ele>
        <time>2012-01-07T09:04:04.000Z</time>
      </trkpt>
      <trkpt lat="43.47627" lon="6.90037">
        <ele>356.39999389648</ele>
        <time>2012-01-07T09:04:10.000Z</time>
      </trkpt>
      <trkpt lat="43.47627" lon="6.90027">
        <ele>354.79998779297</ele>
        <time>2012-01-07T09:04:12.000Z</time>
      </trkpt>
      <trkpt lat="43.47626" lon="6.89991">
        <ele>351</ele>
        <time>2012-01-07T09:04:19.000Z</time>
      </trkpt>
      <trkpt lat="43.47623" lon="6.89965">
        <ele>351.39999389648</ele>
        <time>2012-01-07T09:04:24.000Z</time>
      </trkpt>
      <trkpt lat="43.47623" lon="6.89947">
        <ele>350.79998779297</ele>
        <time>2012-01-07T09:04:28.000Z</time>
      </trkpt>
      <trkpt lat="43.47624" lon="6.89929">
        <ele>349.79998779297</ele>
        <time>2012-01-07T09:04:32.000Z</time>
      </trkpt>
      <trkpt lat="43.47625" lon="6.89898">
        <ele>349.39999389648</ele>
        <time>2012-01-07T09:04:37.000Z</time>
      </trkpt>
      <trkpt lat="43.47627" lon="6.89857">
        <ele>348.39999389648</ele>
        <time>2012-01-07T09:04:43.000Z</time>
      </trkpt>
      <trkpt lat="43.47628" lon="6.89839">
        <ele>348.20001220703</ele>
        <time>2012-01-07T09:04:46.000Z</time>
      </trkpt>
      <trkpt lat="43.47622" lon="6.89817">
        <ele>350</ele>
        <time>2012-01-07T09:04:51.000Z</time>
      </trkpt>
      <trkpt lat="43.4762" lon="6.89813">
        <ele>351</ele>
        <time>2012-01-07T09:04:52.000Z</time>
      </trkpt>
      <trkpt lat="43.4761" lon="6.89784">
        <ele>353.79998779297</ele>
        <time>2012-01-07T09:04:58.000Z</time>
      </trkpt>
      <trkpt lat="43.47608" lon="6.89763">
        <ele>353.20001220703</ele>
        <time>2012-01-07T09:05:03.000Z</time>
      </trkpt>
      <trkpt lat="43.47609" lon="6.8975">
        <ele>351.60000610352</ele>
        <time>2012-01-07T09:05:08.000Z</time>
      </trkpt>
      <trkpt lat="43.47608" lon="6.89735">
        <ele>350.79998779297</ele>
        <time>2012-01-07T09:05:13.000Z</time>
      </trkpt>
      <trkpt lat="43.47614" lon="6.89715">
        <ele>347</ele>
        <time>2012-01-07T09:05:19.000Z</time>
      </trkpt>
      <trkpt lat="43.47614" lon="6.8969">
        <ele>345.20001220703</ele>
        <time>2012-01-07T09:05:25.000Z</time>
      </trkpt>
      <trkpt lat="43.47616" lon="6.89684">
        <ele>344.60000610352</ele>
        <time>2012-01-07T09:05:27.000Z</time>
      </trkpt>
      <trkpt lat="43.47616" lon="6.8968">
        <ele>344.20001220703</ele>
        <time>2012-01-07T09:05:31.000Z</time>
      </trkpt>
      <trkpt lat="43.47616" lon="6.89669">
        <ele>343.39999389648</ele>
        <time>2012-01-07T09:05:37.000Z</time>
      </trkpt>
      <trkpt lat="43.47616" lon="6.89657">
        <ele>342</ele>
        <time>2012-01-07T09:05:43.000Z</time>
      </trkpt>
      <trkpt lat="43.47616" lon="6.89644">
        <ele>340.20001220703</ele>
        <time>2012-01-07T09:05:49.000Z</time>
      </trkpt>
      <trkpt lat="43.47616" lon="6.89643">
        <ele>340</ele>
        <time>2012-01-07T09:05:50.000Z</time>
      </trkpt>
      <trkpt lat="43.47617" lon="6.8964">
        <ele>339.39999389648</ele>
        <time>2012-01-07T09:05:53.000Z</time>
      </trkpt>
      <trkpt lat="43.47616" lon="6.89634">
        <ele>338.79998779297</ele>
        <time>2012-01-07T09:05:57.000Z</time>
      </trkpt>
      <trkpt lat="43.47617" lon="6.89631">
        <ele>338.20001220703</ele>
        <time>2012-01-07T09:06:05.000Z</time>
      </trkpt>
      <trkpt lat="43.47618" lon="6.89633">
        <ele>338.20001220703</ele>
        <time>2012-01-07T09:06:16.000Z</time>
      </trkpt>
      <trkpt lat="43.47618" lon="6.89634">
        <ele>338.39999389648</ele>
        <time>2012-01-07T09:06:29.000Z</time>
      </trkpt>
      <trkpt lat="43.47617" lon="6.89635">
        <ele>338.79998779297</ele>
        <time>2012-01-07T09:06:50.000Z</time>
      </trkpt>
      <trkpt lat="43.47617" lon="6.89634">
        <ele>338.60000610352</ele>
        <time>2012-01-07T09:07:10.000Z</time>
      </trkpt>
      <trkpt lat="43.4762" lon="6.89636">
        <ele>338.39999389648</ele>
        <time>2012-01-07T09:07:30.000Z</time>
      </trkpt>
      <trkpt lat="43.4762" lon="6.89634">
        <ele>338.20001220703</ele>
        <time>2012-01-07T09:07:53.000Z</time>
      </trkpt>
      <trkpt lat="43.47618" lon="6.89636">
        <ele>338.79998779297</ele>
        <time>2012-01-07T09:08:14.000Z</time>
      </trkpt>
      <trkpt lat="43.47614" lon="6.89638">
        <ele>339.79998779297</ele>
        <time>2012-01-07T09:08:23.000Z</time>
      </trkpt>
      <trkpt lat="43.47603" lon="6.89648">
        <ele>342.79998779297</ele>
        <time>2012-01-07T09:08:28.000Z</time>
      </trkpt>
      <trkpt lat="43.47587" lon="6.89654">
        <ele>346.79998779297</ele>
        <time>2012-01-07T09:08:33.000Z</time>
      </trkpt>
      <trkpt lat="43.47571" lon="6.89663">
        <ele>346.20001220703</ele>
        <time>2012-01-07T09:08:38.000Z</time>
      </trkpt>
      <trkpt lat="43.47561" lon="6.8967">
        <ele>345.20001220703</ele>
        <time>2012-01-07T09:08:42.000Z</time>
      </trkpt>
      <trkpt lat="43.4755" lon="6.89679">
        <ele>344.79998779297</ele>
        <time>2012-01-07T09:08:46.000Z</time>
      </trkpt>
      <trkpt lat="43.47532" lon="6.89689">
        <ele>343.79998779297</ele>
        <time>2012-01-07T09:08:51.000Z</time>
      </trkpt>
      <trkpt lat="43.47515" lon="6.89693">
        <ele>342</ele>
        <time>2012-01-07T09:08:55.000Z</time>
      </trkpt>
      <trkpt lat="43.47498" lon="6.89697">
        <ele>340.20001220703</ele>
        <time>2012-01-07T09:09:00.000Z</time>
      </trkpt>
      <trkpt lat="43.47488" lon="6.897">
        <ele>339.20001220703</ele>
        <time>2012-01-07T09:09:04.000Z</time>
      </trkpt>
      <trkpt lat="43.47494" lon="6.89691">
        <ele>337.39999389648</ele>
        <time>2012-01-07T09:09:08.000Z</time>
      </trkpt>
      <trkpt lat="43.47515" lon="6.89659">
        <ele>331.20001220703</ele>
        <time>2012-01-07T09:09:15.000Z</time>
      </trkpt>
      <trkpt lat="43.47528" lon="6.8963">
        <ele>325.79998779297</ele>
        <time>2012-01-07T09:09:22.000Z</time>
      </trkpt>
      <trkpt lat="43.47534" lon="6.89613">
        <ele>322.79998779297</ele>
        <time>2012-01-07T09:09:26.000Z</time>
      </trkpt>
      <trkpt lat="43.47539" lon="6.89608">
        <ele>322.79998779297</ele>
        <time>2012-01-07T09:09:28.000Z</time>
      </trkpt>
      <trkpt lat="43.47546" lon="6.89588">
        <ele>320</ele>
        <time>2012-01-07T09:09:32.000Z</time>
      </trkpt>
      <trkpt lat="43.47554" lon="6.89567">
        <ele>317.20001220703</ele>
        <time>2012-01-07T09:09:36.000Z</time>
      </trkpt>
      <trkpt lat="43.47563" lon="6.89533">
        <ele>311.79998779297</ele>
        <time>2012-01-07T09:09:42.000Z</time>
      </trkpt>
      <trkpt lat="43.47564" lon="6.89528">
        <ele>310.79998779297</ele>
        <time>2012-01-07T09:09:43.000Z</time>
      </trkpt>
      <trkpt lat="43.47567" lon="6.89519">
        <ele>309.79998779297</ele>
        <time>2012-01-07T09:09:48.000Z</time>
      </trkpt>
      <trkpt lat="43.47566" lon="6.89519">
        <ele>309.20001220703</ele>
        <time>2012-01-07T09:09:52.000Z</time>
      </trkpt>
      <trkpt lat="43.47557" lon="6.89531">
        <ele>308.39999389648</ele>
        <time>2012-01-07T09:09:57.000Z</time>
      </trkpt>
      <trkpt lat="43.47536" lon="6.89557">
        <ele>307.20001220703</ele>
        <time>2012-01-07T09:10:03.000Z</time>
      </trkpt>
      <trkpt lat="43.47519" lon="6.89572">
        <ele>305.39999389648</ele>
        <time>2012-01-07T09:10:07.000Z</time>
      </trkpt>
      <trkpt lat="43.47508" lon="6.89581">
        <ele>304</ele>
        <time>2012-01-07T09:10:10.000Z</time>
      </trkpt>
      <trkpt lat="43.47494" lon="6.89588">
        <ele>302.39999389648</ele>
        <time>2012-01-07T09:10:14.000Z</time>
      </trkpt>
      <trkpt lat="43.47476" lon="6.896">
        <ele>302.79998779297</ele>
        <time>2012-01-07T09:10:20.000Z</time>
      </trkpt>
      <trkpt lat="43.47469" lon="6.89604">
        <ele>302.79998779297</ele>
        <time>2012-01-07T09:10:22.000Z</time>
      </trkpt>
      <trkpt lat="43.47446" lon="6.89609">
        <ele>300.20001220703</ele>
        <time>2012-01-07T09:10:28.000Z</time>
      </trkpt>
      <trkpt lat="43.47431" lon="6.89613">
        <ele>298.60000610352</ele>
        <time>2012-01-07T09:10:33.000Z</time>
      </trkpt>
      <trkpt lat="43.47419" lon="6.89621">
        <ele>299.20001220703</ele>
        <time>2012-01-07T09:10:37.000Z</time>
      </trkpt>
      <trkpt lat="43.47409" lon="6.89621">
        <ele>299.60000610352</ele>
        <time>2012-01-07T09:10:43.000Z</time>
      </trkpt>
      <trkpt lat="43.47404" lon="6.89623">
        <ele>300.39999389648</ele>
        <time>2012-01-07T09:10:46.000Z</time>
      </trkpt>
      <trkpt lat="43.47403" lon="6.89625">
        <ele>301.20001220703</ele>
        <time>2012-01-07T09:10:55.000Z</time>
      </trkpt>
      <trkpt lat="43.47402" lon="6.89628">
        <ele>302.20001220703</ele>
        <time>2012-01-07T09:11:07.000Z</time>
      </trkpt>
      <trkpt lat="43.47397" lon="6.89628">
        <ele>302.79998779297</ele>
        <time>2012-01-07T09:11:12.000Z</time>
      </trkpt>
      <trkpt lat="43.47379" lon="6.8963">
        <ele>304.79998779297</ele>
        <time>2012-01-07T09:11:20.000Z</time>
      </trkpt>
      <trkpt lat="43.47368" lon="6.8962">
        <ele>303.20001220703</ele>
        <time>2012-01-07T09:11:25.000Z</time>
      </trkpt>
      <trkpt lat="43.47357" lon="6.89606">
        <ele>300.60000610352</ele>
        <time>2012-01-07T09:11:30.000Z</time>
      </trkpt>
      <trkpt lat="43.47344" lon="6.89588">
        <ele>297.60000610352</ele>
        <time>2012-01-07T09:11:36.000Z</time>
      </trkpt>
      <trkpt lat="43.47334" lon="6.89566">
        <ele>294.79998779297</ele>
        <time>2012-01-07T09:11:44.000Z</time>
      </trkpt>
      <trkpt lat="43.4733" lon="6.89559">
        <ele>293</ele>
        <time>2012-01-07T09:11:47.000Z</time>
      </trkpt>
      <trkpt lat="43.47326" lon="6.89548">
        <ele>290</ele>
        <time>2012-01-07T09:11:51.000Z</time>
      </trkpt>
      <trkpt lat="43.4732" lon="6.8954">
        <ele>287.20001220703</ele>
        <time>2012-01-07T09:11:57.000Z</time>
      </trkpt>
      <trkpt lat="43.47314" lon="6.89537">
        <ele>285.39999389648</ele>
        <time>2012-01-07T09:12:03.000Z</time>
      </trkpt>
      <trkpt lat="43.47313" lon="6.89535">
        <ele>284.79998779297</ele>
        <time>2012-01-07T09:12:13.000Z</time>
      </trkpt>
      <trkpt lat="43.47315" lon="6.89533">
        <ele>284.79998779297</ele>
        <time>2012-01-07T09:12:24.000Z</time>
      </trkpt>
      <trkpt lat="43.47318" lon="6.89531">
        <ele>285.20001220703</ele>
        <time>2012-01-07T09:12:46.000Z</time>
      </trkpt>
      <trkpt lat="43.47318" lon="6.89531">
        <ele>285.20001220703</ele>
        <time>2012-01-07T09:12:54.000Z</time>
      </trkpt>
      <trkpt lat="43.47317" lon="6.89531">
        <ele>285</ele>
        <time>2012-01-07T09:13:46.000Z</time>
      </trkpt>
      <trkpt lat="43.47317" lon="6.89532">
        <ele>285.20001220703</ele>
        <time>2012-01-07T09:14:00.000Z</time>
      </trkpt>
      <trkpt lat="43.47318" lon="6.89533">
        <ele>285.60000610352</ele>
        <time>2012-01-07T09:14:28.000Z</time>
      </trkpt>
      <trkpt lat="43.47322" lon="6.89533">
        <ele>286.39999389648</ele>
        <time>2012-01-07T09:14:41.000Z</time>
      </trkpt>
      <trkpt lat="43.47323" lon="6.89533">
        <ele>286.79998779297</ele>
        <time>2012-01-07T09:14:51.000Z</time>
      </trkpt>
      <trkpt lat="43.47322" lon="6.89534">
        <ele>286.79998779297</ele>
        <time>2012-01-07T09:15:28.000Z</time>
      </trkpt>
      <trkpt lat="43.47322" lon="6.89535">
        <ele>286.79998779297</ele>
        <time>2012-01-07T09:15:45.000Z</time>
      </trkpt>
      <trkpt lat="43.47321" lon="6.89537">
        <ele>286.79998779297</ele>
        <time>2012-01-07T09:15:53.000Z</time>
      </trkpt>
      <trkpt lat="43.47317" lon="6.89544">
        <ele>287.20001220703</ele>
        <time>2012-01-07T09:16:14.000Z</time>
      </trkpt>
      <trkpt lat="43.47316" lon="6.89543">
        <ele>287</ele>
        <time>2012-01-07T09:16:28.000Z</time>
      </trkpt>
      <trkpt lat="43.47316" lon="6.89539">
        <ele>286</ele>
        <time>2012-01-07T09:16:40.000Z</time>
      </trkpt>
      <trkpt lat="43.47316" lon="6.89535">
        <ele>285.39999389648</ele>
        <time>2012-01-07T09:17:05.000Z</time>
      </trkpt>
      <trkpt lat="43.47317" lon="6.89533">
        <ele>285.20001220703</ele>
        <time>2012-01-07T09:17:20.000Z</time>
      </trkpt>
      <trkpt lat="43.47317" lon="6.89532">
        <ele>285.20001220703</ele>
        <time>2012-01-07T09:17:31.000Z</time>
      </trkpt>
      <trkpt lat="43.47316" lon="6.89532">
        <ele>285</ele>
        <time>2012-01-07T09:17:42.000Z</time>
      </trkpt>
      <trkpt lat="43.47317" lon="6.89532">
        <ele>285</ele>
        <time>2012-01-07T09:17:52.000Z</time>
      </trkpt>
      <trkpt lat="43.47316" lon="6.89538">
        <ele>285.79998779297</ele>
        <time>2012-01-07T09:17:58.000Z</time>
      </trkpt>
      <trkpt lat="43.47308" lon="6.89558">
        <ele>288</ele>
        <time>2012-01-07T09:18:04.000Z</time>
      </trkpt>
      <trkpt lat="43.47295" lon="6.89576">
        <ele>288.39999389648</ele>
        <time>2012-01-07T09:18:09.000Z</time>
      </trkpt>
      <trkpt lat="43.47285" lon="6.89591">
        <ele>289.60000610352</ele>
        <time>2012-01-07T09:18:14.000Z</time>
      </trkpt>
      <trkpt lat="43.47274" lon="6.89603">
        <ele>290.39999389648</ele>
        <time>2012-01-07T09:18:18.000Z</time>
      </trkpt>
      <trkpt lat="43.47258" lon="6.89619">
        <ele>291.39999389648</ele>
        <time>2012-01-07T09:18:23.000Z</time>
      </trkpt>
      <trkpt lat="43.47248" lon="6.89636">
        <ele>293.20001220703</ele>
        <time>2012-01-07T09:18:28.000Z</time>
      </trkpt>
      <trkpt lat="43.4723" lon="6.89654">
        <ele>288.79998779297</ele>
        <time>2012-01-07T09:18:34.000Z</time>
      </trkpt>
      <trkpt lat="43.4722" lon="6.89666">
        <ele>286</ele>
        <time>2012-01-07T09:18:39.000Z</time>
      </trkpt>
      <trkpt lat="43.4721" lon="6.89682">
        <ele>282.60000610352</ele>
        <time>2012-01-07T09:18:44.000Z</time>
      </trkpt>
      <trkpt lat="43.47201" lon="6.89708">
        <ele>280.60000610352</ele>
        <time>2012-01-07T09:18:49.000Z</time>
      </trkpt>
      <trkpt lat="43.47194" lon="6.89738">
        <ele>280.20001220703</ele>
        <time>2012-01-07T09:18:54.000Z</time>
      </trkpt>
      <trkpt lat="43.47185" lon="6.89786">
        <ele>276.39999389648</ele>
        <time>2012-01-07T09:19:01.000Z</time>
      </trkpt>
      <trkpt lat="43.47184" lon="6.8979">
        <ele>275.79998779297</ele>
        <time>2012-01-07T09:19:02.000Z</time>
      </trkpt>
      <trkpt lat="43.47182" lon="6.89795">
        <ele>275.20001220703</ele>
        <time>2012-01-07T09:19:07.000Z</time>
      </trkpt>
      <trkpt lat="43.4718" lon="6.898">
        <ele>274.20001220703</ele>
        <time>2012-01-07T09:19:11.000Z</time>
      </trkpt>
      <trkpt lat="43.4718" lon="6.89809">
        <ele>274</ele>
        <time>2012-01-07T09:19:17.000Z</time>
      </trkpt>
      <trkpt lat="43.47179" lon="6.89819">
        <ele>273.60000610352</ele>
        <time>2012-01-07T09:19:21.000Z</time>
      </trkpt>
      <trkpt lat="43.47178" lon="6.89839">
        <ele>271.60000610352</ele>
        <time>2012-01-07T09:19:27.000Z</time>
      </trkpt>
      <trkpt lat="43.47188" lon="6.8985">
        <ele>271.79998779297</ele>
        <time>2012-01-07T09:19:31.000Z</time>
      </trkpt>
      <trkpt lat="43.47193" lon="6.89853">
        <ele>272.20001220703</ele>
        <time>2012-01-07T09:19:34.000Z</time>
      </trkpt>
      <trkpt lat="43.47195" lon="6.89856">
        <ele>272.20001220703</ele>
        <time>2012-01-07T09:19:40.000Z</time>
      </trkpt>
      <trkpt lat="43.4721" lon="6.89864">
        <ele>273.60000610352</ele>
        <time>2012-01-07T09:19:46.000Z</time>
      </trkpt>
      <trkpt lat="43.47238" lon="6.89883">
        <ele>275.20001220703</ele>
        <time>2012-01-07T09:19:53.000Z</time>
      </trkpt>
      <trkpt lat="43.47246" lon="6.89887">
        <ele>275.60000610352</ele>
        <time>2012-01-07T09:19:55.000Z</time>
      </trkpt>
      <trkpt lat="43.47259" lon="6.89904">
        <ele>275.20001220703</ele>
        <time>2012-01-07T09:20:00.000Z</time>
      </trkpt>
      <trkpt lat="43.47275" lon="6.89929">
        <ele>275.60000610352</ele>
        <time>2012-01-07T09:20:06.000Z</time>
      </trkpt>
      <trkpt lat="43.47283" lon="6.89948">
        <ele>275</ele>
        <time>2012-01-07T09:20:10.000Z</time>
      </trkpt>
      <trkpt lat="43.47289" lon="6.89956">
        <ele>276.20001220703</ele>
        <time>2012-01-07T09:20:12.000Z</time>
      </trkpt>
      <trkpt lat="43.47296" lon="6.89979">
        <ele>274.79998779297</ele>
        <time>2012-01-07T09:20:16.000Z</time>
      </trkpt>
      <trkpt lat="43.47298" lon="6.89991">
        <ele>273</ele>
        <time>2012-01-07T09:20:18.000Z</time>
      </trkpt>
      <trkpt lat="43.47304" lon="6.90016">
        <ele>271.60000610352</ele>
        <time>2012-01-07T09:20:22.000Z</time>
      </trkpt>
      <trkpt lat="43.47313" lon="6.90039">
        <ele>272.39999389648</ele>
        <time>2012-01-07T09:20:26.000Z</time>
      </trkpt>
      <trkpt lat="43.47327" lon="6.90054">
        <ele>277</ele>
        <time>2012-01-07T09:20:30.000Z</time>
      </trkpt>
      <trkpt lat="43.4734" lon="6.9007">
        <ele>281.60000610352</ele>
        <time>2012-01-07T09:20:35.000Z</time>
      </trkpt>
      <trkpt lat="43.47335" lon="6.90091">
        <ele>276.20001220703</ele>
        <time>2012-01-07T09:20:39.000Z</time>
      </trkpt>
      <trkpt lat="43.4734" lon="6.90106">
        <ele>281</ele>
        <time>2012-01-07T09:20:42.000Z</time>
      </trkpt>
      <trkpt lat="43.47351" lon="6.90127">
        <ele>290</ele>
        <time>2012-01-07T09:20:47.000Z</time>
      </trkpt>
      <trkpt lat="43.47355" lon="6.90132">
        <ele>293</ele>
        <time>2012-01-07T09:20:49.000Z</time>
      </trkpt>
      <trkpt lat="43.47351" lon="6.90144">
        <ele>291.39999389648</ele>
        <time>2012-01-07T09:20:54.000Z</time>
      </trkpt>
      <trkpt lat="43.47349" lon="6.90145">
        <ele>290.60000610352</ele>
        <time>2012-01-07T09:20:55.000Z</time>
      </trkpt>
      <trkpt lat="43.4733" lon="6.90149">
        <ele>280.60000610352</ele>
        <time>2012-01-07T09:21:01.000Z</time>
      </trkpt>
      <trkpt lat="43.4732" lon="6.90161">
        <ele>278.79998779297</ele>
        <time>2012-01-07T09:21:05.000Z</time>
      </trkpt>
      <trkpt lat="43.47312" lon="6.90175">
        <ele>279.79998779297</ele>
        <time>2012-01-07T09:21:08.000Z</time>
      </trkpt>
      <trkpt lat="43.4729" lon="6.90171">
        <ele>270.79998779297</ele>
        <time>2012-01-07T09:21:13.000Z</time>
      </trkpt>
      <trkpt lat="43.47283" lon="6.90172">
        <ele>269</ele>
        <time>2012-01-07T09:21:15.000Z</time>
      </trkpt>
      <trkpt lat="43.47255" lon="6.90192">
        <ele>265.79998779297</ele>
        <time>2012-01-07T09:21:23.000Z</time>
      </trkpt>
      <trkpt lat="43.47231" lon="6.90207">
        <ele>262.39999389648</ele>
        <time>2012-01-07T09:21:29.000Z</time>
      </trkpt>
      <trkpt lat="43.47218" lon="6.90214">
        <ele>260</ele>
        <time>2012-01-07T09:21:32.000Z</time>
      </trkpt>
      <trkpt lat="43.47202" lon="6.90229">
        <ele>258.60000610352</ele>
        <time>2012-01-07T09:21:36.000Z</time>
      </trkpt>
      <trkpt lat="43.47192" lon="6.90256">
        <ele>260.79998779297</ele>
        <time>2012-01-07T09:21:41.000Z</time>
      </trkpt>
      <trkpt lat="43.47193" lon="6.903">
        <ele>263.39999389648</ele>
        <time>2012-01-07T09:21:48.000Z</time>
      </trkpt>
      <trkpt lat="43.47199" lon="6.90339">
        <ele>268.60000610352</ele>
        <time>2012-01-07T09:21:54.000Z</time>
      </trkpt>
      <trkpt lat="43.47202" lon="6.90351">
        <ele>270.60000610352</ele>
        <time>2012-01-07T09:21:56.000Z</time>
      </trkpt>
      <trkpt lat="43.472" lon="6.90382">
        <ele>270</ele>
        <time>2012-01-07T09:22:01.000Z</time>
      </trkpt>
      <trkpt lat="43.47189" lon="6.90417">
        <ele>265.20001220703</ele>
        <time>2012-01-07T09:22:07.000Z</time>
      </trkpt>
      <trkpt lat="43.47187" lon="6.90451">
        <ele>262</ele>
        <time>2012-01-07T09:22:12.000Z</time>
      </trkpt>
      <trkpt lat="43.47195" lon="6.90471">
        <ele>264.39999389648</ele>
        <time>2012-01-07T09:22:15.000Z</time>
      </trkpt>
      <trkpt lat="43.4722" lon="6.90521">
        <ele>270.79998779297</ele>
        <time>2012-01-07T09:22:23.000Z</time>
      </trkpt>
      <trkpt lat="43.47239" lon="6.90555">
        <ele>272.39999389648</ele>
        <time>2012-01-07T09:22:29.000Z</time>
      </trkpt>
      <trkpt lat="43.47249" lon="6.90579">
        <ele>271.60000610352</ele>
        <time>2012-01-07T09:22:33.000Z</time>
      </trkpt>
      <trkpt lat="43.47259" lon="6.90605">
        <ele>278.79998779297</ele>
        <time>2012-01-07T09:22:38.000Z</time>
      </trkpt>
      <trkpt lat="43.47254" lon="6.90617">
        <ele>277.79998779297</ele>
        <time>2012-01-07T09:22:41.000Z</time>
      </trkpt>
      <trkpt lat="43.4724" lon="6.90627">
        <ele>274.60000610352</ele>
        <time>2012-01-07T09:22:46.000Z</time>
      </trkpt>
      <trkpt lat="43.47232" lon="6.90632">
        <ele>273.20001220703</ele>
        <time>2012-01-07T09:22:50.000Z</time>
      </trkpt>
      <trkpt lat="43.47215" lon="6.90642">
        <ele>271</ele>
        <time>2012-01-07T09:22:55.000Z</time>
      </trkpt>
      <trkpt lat="43.47204" lon="6.90647">
        <ele>269.60000610352</ele>
        <time>2012-01-07T09:22:59.000Z</time>
      </trkpt>
      <trkpt lat="43.47182" lon="6.9066">
        <ele>268</ele>
        <time>2012-01-07T09:23:05.000Z</time>
      </trkpt>
      <trkpt lat="43.47167" lon="6.90662">
        <ele>265.60000610352</ele>
        <time>2012-01-07T09:23:08.000Z</time>
      </trkpt>
      <trkpt lat="43.47139" lon="6.90675">
        <ele>263.39999389648</ele>
        <time>2012-01-07T09:23:14.000Z</time>
      </trkpt>
      <trkpt lat="43.47125" lon="6.9068">
        <ele>261.79998779297</ele>
        <time>2012-01-07T09:23:17.000Z</time>
      </trkpt>
      <trkpt lat="43.47105" lon="6.90695">
        <ele>261</ele>
        <time>2012-01-07T09:23:22.000Z</time>
      </trkpt>
      <trkpt lat="43.47096" lon="6.90707">
        <ele>261.79998779297</ele>
        <time>2012-01-07T09:23:25.000Z</time>
      </trkpt>
      <trkpt lat="43.47086" lon="6.90725">
        <ele>263</ele>
        <time>2012-01-07T09:23:29.000Z</time>
      </trkpt>
      <trkpt lat="43.47072" lon="6.90748">
        <ele>264.20001220703</ele>
        <time>2012-01-07T09:23:36.000Z</time>
      </trkpt>
      <trkpt lat="43.47064" lon="6.90765">
        <ele>265.20001220703</ele>
        <time>2012-01-07T09:23:41.000Z</time>
      </trkpt>
      <trkpt lat="43.47052" lon="6.90789">
        <ele>266.60000610352</ele>
        <time>2012-01-07T09:23:47.000Z</time>
      </trkpt>
      <trkpt lat="43.47042" lon="6.90812">
        <ele>268.39999389648</ele>
        <time>2012-01-07T09:23:53.000Z</time>
      </trkpt>
      <trkpt lat="43.47026" lon="6.90837">
        <ele>268.20001220703</ele>
        <time>2012-01-07T09:24:00.000Z</time>
      </trkpt>
      <trkpt lat="43.47012" lon="6.90864">
        <ele>264.79998779297</ele>
        <time>2012-01-07T09:24:08.000Z</time>
      </trkpt>
      <trkpt lat="43.47002" lon="6.90868">
        <ele>262</ele>
        <time>2012-01-07T09:24:12.000Z</time>
      </trkpt>
      <trkpt lat="43.46989" lon="6.90854">
        <ele>263</ele>
        <time>2012-01-07T09:24:17.000Z</time>
      </trkpt>
      <trkpt lat="43.46968" lon="6.90825">
        <ele>264.60000610352</ele>
        <time>2012-01-07T09:24:24.000Z</time>
      </trkpt>
      <trkpt lat="43.4695" lon="6.90801">
        <ele>262.60000610352</ele>
        <time>2012-01-07T09:24:29.000Z</time>
      </trkpt>
      <trkpt lat="43.46934" lon="6.90785">
        <ele>261.60000610352</ele>
        <time>2012-01-07T09:24:32.000Z</time>
      </trkpt>
      <trkpt lat="43.46899" lon="6.90737">
        <ele>257.39999389648</ele>
        <time>2012-01-07T09:24:40.000Z</time>
      </trkpt>
      <trkpt lat="43.46879" lon="6.90703">
        <ele>254</ele>
        <time>2012-01-07T09:24:45.000Z</time>
      </trkpt>
      <trkpt lat="43.46847" lon="6.90649">
        <ele>251</ele>
        <time>2012-01-07T09:24:53.000Z</time>
      </trkpt>
      <trkpt lat="43.46837" lon="6.90638">
        <ele>251.19999694824</ele>
        <time>2012-01-07T09:24:55.000Z</time>
      </trkpt>
      <trkpt lat="43.46798" lon="6.90611">
        <ele>244</ele>
        <time>2012-01-07T09:25:02.000Z</time>
      </trkpt>
      <trkpt lat="43.46761" lon="6.90592">
        <ele>241.80000305176</ele>
        <time>2012-01-07T09:25:08.000Z</time>
      </trkpt>
      <trkpt lat="43.46739" lon="6.9057">
        <ele>238.39999389648</ele>
        <time>2012-01-07T09:25:13.000Z</time>
      </trkpt>
      <trkpt lat="43.46737" lon="6.90566">
        <ele>237.60000610352</ele>
        <time>2012-01-07T09:25:14.000Z</time>
      </trkpt>
      <trkpt lat="43.46731" lon="6.90551">
        <ele>236.60000610352</ele>
        <time>2012-01-07T09:25:18.000Z</time>
      </trkpt>
      <trkpt lat="43.46727" lon="6.90521">
        <ele>237.19999694824</ele>
        <time>2012-01-07T09:25:26.000Z</time>
      </trkpt>
      <trkpt lat="43.46725" lon="6.90497">
        <ele>238.19999694824</ele>
        <time>2012-01-07T09:25:33.000Z</time>
      </trkpt>
      <trkpt lat="43.46724" lon="6.90473">
        <ele>239.19999694824</ele>
        <time>2012-01-07T09:25:39.000Z</time>
      </trkpt>
      <trkpt lat="43.46728" lon="6.90443">
        <ele>240</ele>
        <time>2012-01-07T09:25:45.000Z</time>
      </trkpt>
      <trkpt lat="43.46734" lon="6.90412">
        <ele>240.39999389648</ele>
        <time>2012-01-07T09:25:50.000Z</time>
      </trkpt>
      <trkpt lat="43.46737" lon="6.90389">
        <ele>241</ele>
        <time>2012-01-07T09:25:54.000Z</time>
      </trkpt>
      <trkpt lat="43.46736" lon="6.90362">
        <ele>242.60000610352</ele>
        <time>2012-01-07T09:26:00.000Z</time>
      </trkpt>
      <trkpt lat="43.46735" lon="6.9033">
        <ele>243.80000305176</ele>
        <time>2012-01-07T09:26:06.000Z</time>
      </trkpt>
      <trkpt lat="43.4673" lon="6.90305">
        <ele>242.39999389648</ele>
        <time>2012-01-07T09:26:11.000Z</time>
      </trkpt>
      <trkpt lat="43.46722" lon="6.90281">
        <ele>242.39999389648</ele>
        <time>2012-01-07T09:26:16.000Z</time>
      </trkpt>
      <trkpt lat="43.46715" lon="6.9026">
        <ele>242.39999389648</ele>
        <time>2012-01-07T09:26:20.000Z</time>
      </trkpt>
      <trkpt lat="43.46711" lon="6.90218">
        <ele>242.60000610352</ele>
        <time>2012-01-07T09:26:27.000Z</time>
      </trkpt>
      <trkpt lat="43.4671" lon="6.90196">
        <ele>242.60000610352</ele>
        <time>2012-01-07T09:26:31.000Z</time>
      </trkpt>
      <trkpt lat="43.46707" lon="6.90166">
        <ele>243.60000610352</ele>
        <time>2012-01-07T09:26:36.000Z</time>
      </trkpt>
      <trkpt lat="43.46704" lon="6.90146">
        <ele>245.19999694824</ele>
        <time>2012-01-07T09:26:39.000Z</time>
      </trkpt>
      <trkpt lat="43.46708" lon="6.90123">
        <ele>244.39999389648</ele>
        <time>2012-01-07T09:26:43.000Z</time>
      </trkpt>
      <trkpt lat="43.46711" lon="6.90076">
        <ele>243.80000305176</ele>
        <time>2012-01-07T09:26:51.000Z</time>
      </trkpt>
      <trkpt lat="43.46705" lon="6.90029">
        <ele>244.80000305176</ele>
        <time>2012-01-07T09:26:59.000Z</time>
      </trkpt>
      <trkpt lat="43.46699" lon="6.9001">
        <ele>247</ele>
        <time>2012-01-07T09:27:04.000Z</time>
      </trkpt>
      <trkpt lat="43.46692" lon="6.89994">
        <ele>249.39999389648</ele>
        <time>2012-01-07T09:27:09.000Z</time>
      </trkpt>
      <trkpt lat="43.46677" lon="6.89967">
        <ele>253.19999694824</ele>
        <time>2012-01-07T09:27:14.000Z</time>
      </trkpt>
      <trkpt lat="43.46665" lon="6.89951">
        <ele>256.79998779297</ele>
        <time>2012-01-07T09:27:19.000Z</time>
      </trkpt>
      <trkpt lat="43.4666" lon="6.89926">
        <ele>254.19999694824</ele>
        <time>2012-01-07T09:27:24.000Z</time>
      </trkpt>
      <trkpt lat="43.4666" lon="6.89893">
        <ele>252.19999694824</ele>
        <time>2012-01-07T09:27:30.000Z</time>
      </trkpt>
      <trkpt lat="43.46661" lon="6.89855">
        <ele>250.60000610352</ele>
        <time>2012-01-07T09:27:37.000Z</time>
      </trkpt>
      <trkpt lat="43.46659" lon="6.89815">
        <ele>251.60000610352</ele>
        <time>2012-01-07T09:27:44.000Z</time>
      </trkpt>
      <trkpt lat="43.46657" lon="6.89786">
        <ele>254.60000610352</ele>
        <time>2012-01-07T09:27:49.000Z</time>
      </trkpt>
      <trkpt lat="43.46658" lon="6.89745">
        <ele>258.39999389648</ele>
        <time>2012-01-07T09:27:57.000Z</time>
      </trkpt>
      <trkpt lat="43.46664" lon="6.89707">
        <ele>261.79998779297</ele>
        <time>2012-01-07T09:28:04.000Z</time>
      </trkpt>
      <trkpt lat="43.46671" lon="6.89678">
        <ele>261.79998779297</ele>
        <time>2012-01-07T09:28:11.000Z</time>
      </trkpt>
      <trkpt lat="43.46678" lon="6.89661">
        <ele>260</ele>
        <time>2012-01-07T09:28:16.000Z</time>
      </trkpt>
      <trkpt lat="43.46687" lon="6.89632">
        <ele>259.60000610352</ele>
        <time>2012-01-07T09:28:24.000Z</time>
      </trkpt>
      <trkpt lat="43.46691" lon="6.89616">
        <ele>259.60000610352</ele>
        <time>2012-01-07T09:28:30.000Z</time>
      </trkpt>
      <trkpt lat="43.46695" lon="6.89592">
        <ele>261.20001220703</ele>
        <time>2012-01-07T09:28:38.000Z</time>
      </trkpt>
      <trkpt lat="43.467" lon="6.89573">
        <ele>260.39999389648</ele>
        <time>2012-01-07T09:28:46.000Z</time>
      </trkpt>
      <trkpt lat="43.46703" lon="6.89559">
        <ele>260.60000610352</ele>
        <time>2012-01-07T09:28:53.000Z</time>
      </trkpt>
      <trkpt lat="43.46708" lon="6.89537">
        <ele>259.79998779297</ele>
        <time>2012-01-07T09:29:01.000Z</time>
      </trkpt>
      <trkpt lat="43.46712" lon="6.89511">
        <ele>260.39999389648</ele>
        <time>2012-01-07T09:29:09.000Z</time>
      </trkpt>
      <trkpt lat="43.46712" lon="6.8949">
        <ele>262.39999389648</ele>
        <time>2012-01-07T09:29:15.000Z</time>
      </trkpt>
      <trkpt lat="43.46712" lon="6.89468">
        <ele>264</ele>
        <time>2012-01-07T09:29:21.000Z</time>
      </trkpt>
      <trkpt lat="43.46713" lon="6.89441">
        <ele>265.79998779297</ele>
        <time>2012-01-07T09:29:28.000Z</time>
      </trkpt>
      <trkpt lat="43.46718" lon="6.89418">
        <ele>264.79998779297</ele>
        <time>2012-01-07T09:29:34.000Z</time>
      </trkpt>
      <trkpt lat="43.46725" lon="6.8939">
        <ele>266.20001220703</ele>
        <time>2012-01-07T09:29:41.000Z</time>
      </trkpt>
      <trkpt lat="43.46737" lon="6.89363">
        <ele>266</ele>
        <time>2012-01-07T09:29:48.000Z</time>
      </trkpt>
      <trkpt lat="43.46749" lon="6.89342">
        <ele>265</ele>
        <time>2012-01-07T09:29:54.000Z</time>
      </trkpt>
      <trkpt lat="43.46766" lon="6.89319">
        <ele>263</ele>
        <time>2012-01-07T09:30:02.000Z</time>
      </trkpt>
      <trkpt lat="43.46778" lon="6.89302">
        <ele>261.39999389648</ele>
        <time>2012-01-07T09:30:09.000Z</time>
      </trkpt>
      <trkpt lat="43.4679" lon="6.89283">
        <ele>260.39999389648</ele>
        <time>2012-01-07T09:30:16.000Z</time>
      </trkpt>
      <trkpt lat="43.468" lon="6.89259">
        <ele>261</ele>
        <time>2012-01-07T09:30:23.000Z</time>
      </trkpt>
      <trkpt lat="43.46803" lon="6.89243">
        <ele>262</ele>
        <time>2012-01-07T09:30:28.000Z</time>
      </trkpt>
      <trkpt lat="43.46798" lon="6.89209">
        <ele>266.20001220703</ele>
        <time>2012-01-07T09:30:35.000Z</time>
      </trkpt>
      <trkpt lat="43.46795" lon="6.89185">
        <ele>269.60000610352</ele>
        <time>2012-01-07T09:30:41.000Z</time>
      </trkpt>
      <trkpt lat="43.46791" lon="6.89152">
        <ele>272.39999389648</ele>
        <time>2012-01-07T09:30:49.000Z</time>
      </trkpt>
      <trkpt lat="43.46788" lon="6.89122">
        <ele>274.20001220703</ele>
        <time>2012-01-07T09:30:56.000Z</time>
      </trkpt>
      <trkpt lat="43.46789" lon="6.891">
        <ele>273.60000610352</ele>
        <time>2012-01-07T09:31:02.000Z</time>
      </trkpt>
      <trkpt lat="43.46791" lon="6.89072">
        <ele>272.79998779297</ele>
        <time>2012-01-07T09:31:08.000Z</time>
      </trkpt>
      <trkpt lat="43.46796" lon="6.89035">
        <ele>272</ele>
        <time>2012-01-07T09:31:16.000Z</time>
      </trkpt>
      <trkpt lat="43.46801" lon="6.89002">
        <ele>270.79998779297</ele>
        <time>2012-01-07T09:31:23.000Z</time>
      </trkpt>
      <trkpt lat="43.46807" lon="6.88962">
        <ele>269.79998779297</ele>
        <time>2012-01-07T09:31:32.000Z</time>
      </trkpt>
      <trkpt lat="43.46809" lon="6.88936">
        <ele>270.60000610352</ele>
        <time>2012-01-07T09:31:38.000Z</time>
      </trkpt>
      <trkpt lat="43.46809" lon="6.88912">
        <ele>271.79998779297</ele>
        <time>2012-01-07T09:31:43.000Z</time>
      </trkpt>
      <trkpt lat="43.46808" lon="6.88883">
        <ele>270.79998779297</ele>
        <time>2012-01-07T09:31:49.000Z</time>
      </trkpt>
      <trkpt lat="43.46805" lon="6.88863">
        <ele>271.20001220703</ele>
        <time>2012-01-07T09:31:54.000Z</time>
      </trkpt>
      <trkpt lat="43.46801" lon="6.8884">
        <ele>272.60000610352</ele>
        <time>2012-01-07T09:32:00.000Z</time>
      </trkpt>
      <trkpt lat="43.46798" lon="6.88819">
        <ele>272.79998779297</ele>
        <time>2012-01-07T09:32:07.000Z</time>
      </trkpt>
      <trkpt lat="43.46793" lon="6.88791">
        <ele>274.39999389648</ele>
        <time>2012-01-07T09:32:15.000Z</time>
      </trkpt>
      <trkpt lat="43.4679" lon="6.88766">
        <ele>274.39999389648</ele>
        <time>2012-01-07T09:32:22.000Z</time>
      </trkpt>
      <trkpt lat="43.46789" lon="6.88744">
        <ele>274</ele>
        <time>2012-01-07T09:32:28.000Z</time>
      </trkpt>
      <trkpt lat="43.46792" lon="6.88721">
        <ele>272.20001220703</ele>
        <time>2012-01-07T09:32:34.000Z</time>
      </trkpt>
      <trkpt lat="43.46797" lon="6.88695">
        <ele>270.20001220703</ele>
        <time>2012-01-07T09:32:40.000Z</time>
      </trkpt>
      <trkpt lat="43.46802" lon="6.88666">
        <ele>269.20001220703</ele>
        <time>2012-01-07T09:32:47.000Z</time>
      </trkpt>
      <trkpt lat="43.46811" lon="6.88648">
        <ele>267</ele>
        <time>2012-01-07T09:32:53.000Z</time>
      </trkpt>
      <trkpt lat="43.46817" lon="6.88636">
        <ele>265.79998779297</ele>
        <time>2012-01-07T09:32:58.000Z</time>
      </trkpt>
      <trkpt lat="43.46818" lon="6.88633">
        <ele>265.39999389648</ele>
        <time>2012-01-07T09:33:05.000Z</time>
      </trkpt>
      <trkpt lat="43.46819" lon="6.88631">
        <ele>265.20001220703</ele>
        <time>2012-01-07T09:33:22.000Z</time>
      </trkpt>
      <trkpt lat="43.46824" lon="6.88628">
        <ele>264.60000610352</ele>
        <time>2012-01-07T09:33:47.000Z</time>
      </trkpt>
      <trkpt lat="43.46824" lon="6.88627">
        <ele>264.60000610352</ele>
        <time>2012-01-07T09:33:59.000Z</time>
      </trkpt>
      <trkpt lat="43.46824" lon="6.88628">
        <ele>264.60000610352</ele>
        <time>2012-01-07T09:34:19.000Z</time>
      </trkpt>
      <trkpt lat="43.46826" lon="6.88628">
        <ele>264.39999389648</ele>
        <time>2012-01-07T09:34:34.000Z</time>
      </trkpt>
      <trkpt lat="43.46828" lon="6.88626">
        <ele>264.20001220703</ele>
        <time>2012-01-07T09:34:55.000Z</time>
      </trkpt>
      <trkpt lat="43.46829" lon="6.88624">
        <ele>264</ele>
        <time>2012-01-07T09:35:13.000Z</time>
      </trkpt>
      <trkpt lat="43.46823" lon="6.88626">
        <ele>264.60000610352</ele>
        <time>2012-01-07T09:35:35.000Z</time>
      </trkpt>
      <trkpt lat="43.4682" lon="6.88617">
        <ele>264.60000610352</ele>
        <time>2012-01-07T09:35:43.000Z</time>
      </trkpt>
      <trkpt lat="43.46814" lon="6.88595">
        <ele>264.39999389648</ele>
        <time>2012-01-07T09:35:48.000Z</time>
      </trkpt>
      <trkpt lat="43.46799" lon="6.88581">
        <ele>264.39999389648</ele>
        <time>2012-01-07T09:35:52.000Z</time>
      </trkpt>
      <trkpt lat="43.4678" lon="6.88571">
        <ele>264</ele>
        <time>2012-01-07T09:35:56.000Z</time>
      </trkpt>
      <trkpt lat="43.46755" lon="6.88565">
        <ele>264.79998779297</ele>
        <time>2012-01-07T09:36:01.000Z</time>
      </trkpt>
      <trkpt lat="43.46748" lon="6.88563">
        <ele>264.39999389648</ele>
        <time>2012-01-07T09:36:05.000Z</time>
      </trkpt>
      <trkpt lat="43.46749" lon="6.8855">
        <ele>263.20001220703</ele>
        <time>2012-01-07T09:36:09.000Z</time>
      </trkpt>
      <trkpt lat="43.4675" lon="6.88527">
        <ele>260.79998779297</ele>
        <time>2012-01-07T09:36:14.000Z</time>
      </trkpt>
      <trkpt lat="43.46751" lon="6.88502">
        <ele>258.20001220703</ele>
        <time>2012-01-07T09:36:18.000Z</time>
      </trkpt>
      <trkpt lat="43.46748" lon="6.8849">
        <ele>257.79998779297</ele>
        <time>2012-01-07T09:36:21.000Z</time>
      </trkpt>
      <trkpt lat="43.46742" lon="6.88471">
        <ele>257</ele>
        <time>2012-01-07T09:36:25.000Z</time>
      </trkpt>
      <trkpt lat="43.46727" lon="6.88453">
        <ele>254.60000610352</ele>
        <time>2012-01-07T09:36:30.000Z</time>
      </trkpt>
      <trkpt lat="43.46718" lon="6.88435">
        <ele>253.60000610352</ele>
        <time>2012-01-07T09:36:34.000Z</time>
      </trkpt>
      <trkpt lat="43.46715" lon="6.88431">
        <ele>253.39999389648</ele>
        <time>2012-01-07T09:36:36.000Z</time>
      </trkpt>
      <trkpt lat="43.46702" lon="6.88423">
        <ele>251.19999694824</ele>
        <time>2012-01-07T09:36:42.000Z</time>
      </trkpt>
      <trkpt lat="43.46694" lon="6.88419">
        <ele>250</ele>
        <time>2012-01-07T09:36:47.000Z</time>
      </trkpt>
      <trkpt lat="43.46681" lon="6.88414">
        <ele>248.19999694824</ele>
        <time>2012-01-07T09:36:52.000Z</time>
      </trkpt>
      <trkpt lat="43.46667" lon="6.8841">
        <ele>246.39999389648</ele>
        <time>2012-01-07T09:36:56.000Z</time>
      </trkpt>
      <trkpt lat="43.46643" lon="6.88401">
        <ele>240.60000610352</ele>
        <time>2012-01-07T09:37:02.000Z</time>
      </trkpt>
      <trkpt lat="43.46624" lon="6.88389">
        <ele>237</ele>
        <time>2012-01-07T09:37:07.000Z</time>
      </trkpt>
      <trkpt lat="43.46608" lon="6.88374">
        <ele>234.60000610352</ele>
        <time>2012-01-07T09:37:12.000Z</time>
      </trkpt>
      <trkpt lat="43.46589" lon="6.88354">
        <ele>232.19999694824</ele>
        <time>2012-01-07T09:37:18.000Z</time>
      </trkpt>
      <trkpt lat="43.46577" lon="6.8834">
        <ele>230.80000305176</ele>
        <time>2012-01-07T09:37:23.000Z</time>
      </trkpt>
      <trkpt lat="43.46564" lon="6.88332">
        <ele>228.39999389648</ele>
        <time>2012-01-07T09:37:27.000Z</time>
      </trkpt>
      <trkpt lat="43.46557" lon="6.88327">
        <ele>226</ele>
        <time>2012-01-07T09:37:30.000Z</time>
      </trkpt>
      <trkpt lat="43.46549" lon="6.88309">
        <ele>222.39999389648</ele>
        <time>2012-01-07T09:37:35.000Z</time>
      </trkpt>
      <trkpt lat="43.46548" lon="6.88288">
        <ele>220.80000305176</ele>
        <time>2012-01-07T09:37:40.000Z</time>
      </trkpt>
      <trkpt lat="43.46551" lon="6.88267">
        <ele>220.19999694824</ele>
        <time>2012-01-07T09:37:45.000Z</time>
      </trkpt>
      <trkpt lat="43.46556" lon="6.88247">
        <ele>219.39999389648</ele>
        <time>2012-01-07T09:37:50.000Z</time>
      </trkpt>
      <trkpt lat="43.46559" lon="6.88241">
        <ele>218.19999694824</ele>
        <time>2012-01-07T09:37:56.000Z</time>
      </trkpt>
      <trkpt lat="43.46562" lon="6.88228">
        <ele>215</ele>
        <time>2012-01-07T09:38:02.000Z</time>
      </trkpt>
      <trkpt lat="43.46567" lon="6.88214">
        <ele>212</ele>
        <time>2012-01-07T09:38:07.000Z</time>
      </trkpt>
      <trkpt lat="43.46571" lon="6.88191">
        <ele>206</ele>
        <time>2012-01-07T09:38:12.000Z</time>
      </trkpt>
      <trkpt lat="43.46573" lon="6.88184">
        <ele>204.39999389648</ele>
        <time>2012-01-07T09:38:14.000Z</time>
      </trkpt>
      <trkpt lat="43.4658" lon="6.8817">
        <ele>201.19999694824</ele>
        <time>2012-01-07T09:38:20.000Z</time>
      </trkpt>
      <trkpt lat="43.46581" lon="6.88168">
        <ele>200.80000305176</ele>
        <time>2012-01-07T09:38:25.000Z</time>
      </trkpt>
      <trkpt lat="43.46583" lon="6.8817">
        <ele>202</ele>
        <time>2012-01-07T09:38:37.000Z</time>
      </trkpt>
      <trkpt lat="43.46583" lon="6.88172">
        <ele>202.39999389648</ele>
        <time>2012-01-07T09:38:46.000Z</time>
      </trkpt>
      <trkpt lat="43.46582" lon="6.88172">
        <ele>202.60000610352</ele>
        <time>2012-01-07T09:38:47.000Z</time>
      </trkpt>
      <trkpt lat="43.46563" lon="6.88177">
        <ele>200.39999389648</ele>
        <time>2012-01-07T09:38:54.000Z</time>
      </trkpt>
      <trkpt lat="43.46551" lon="6.88183">
        <ele>200</ele>
        <time>2012-01-07T09:38:58.000Z</time>
      </trkpt>
      <trkpt lat="43.46539" lon="6.88187">
        <ele>198.60000610352</ele>
        <time>2012-01-07T09:39:02.000Z</time>
      </trkpt>
      <trkpt lat="43.46523" lon="6.88187">
        <ele>195.80000305176</ele>
        <time>2012-01-07T09:39:07.000Z</time>
      </trkpt>
      <trkpt lat="43.46519" lon="6.88187">
        <ele>194.80000305176</ele>
        <time>2012-01-07T09:39:09.000Z</time>
      </trkpt>
      <trkpt lat="43.4651" lon="6.88185">
        <ele>192.60000610352</ele>
        <time>2012-01-07T09:39:15.000Z</time>
      </trkpt>
      <trkpt lat="43.46496" lon="6.88176">
        <ele>189</ele>
        <time>2012-01-07T09:39:20.000Z</time>
      </trkpt>
      <trkpt lat="43.46482" lon="6.88162">
        <ele>187.60000610352</ele>
        <time>2012-01-07T09:39:26.000Z</time>
      </trkpt>
      <trkpt lat="43.46476" lon="6.88154">
        <ele>186.60000610352</ele>
        <time>2012-01-07T09:39:29.000Z</time>
      </trkpt>
      <trkpt lat="43.46476" lon="6.88155">
        <ele>187</ele>
        <time>2012-01-07T09:39:38.000Z</time>
      </trkpt>
      <trkpt lat="43.46478" lon="6.88157">
        <ele>187</ele>
        <time>2012-01-07T09:39:47.000Z</time>
      </trkpt>
      <trkpt lat="43.46482" lon="6.88158">
        <ele>186.80000305176</ele>
        <time>2012-01-07T09:40:05.000Z</time>
      </trkpt>
      <trkpt lat="43.46483" lon="6.88157">
        <ele>186</ele>
        <time>2012-01-07T09:40:13.000Z</time>
      </trkpt>
      <trkpt lat="43.46481" lon="6.88151">
        <ele>185</ele>
        <time>2012-01-07T09:40:20.000Z</time>
      </trkpt>
      <trkpt lat="43.46479" lon="6.88146">
        <ele>183.80000305176</ele>
        <time>2012-01-07T09:40:27.000Z</time>
      </trkpt>
      <trkpt lat="43.46478" lon="6.88141">
        <ele>182.80000305176</ele>
        <time>2012-01-07T09:40:32.000Z</time>
      </trkpt>
      <trkpt lat="43.46478" lon="6.8814">
        <ele>182.39999389648</ele>
        <time>2012-01-07T09:40:40.000Z</time>
      </trkpt>
      <trkpt lat="43.46477" lon="6.88139">
        <ele>182.60000610352</ele>
        <time>2012-01-07T09:40:49.000Z</time>
      </trkpt>
      <trkpt lat="43.46476" lon="6.88138">
        <ele>182.19999694824</ele>
        <time>2012-01-07T09:40:50.000Z</time>
      </trkpt>
      <trkpt lat="43.46473" lon="6.88126">
        <ele>179.80000305176</ele>
        <time>2012-01-07T09:40:55.000Z</time>
      </trkpt>
      <trkpt lat="43.4647" lon="6.88105">
        <ele>175</ele>
        <time>2012-01-07T09:41:01.000Z</time>
      </trkpt>
      <trkpt lat="43.46468" lon="6.881">
        <ele>174.39999389648</ele>
        <time>2012-01-07T09:41:05.000Z</time>
      </trkpt>
      <trkpt lat="43.46467" lon="6.88096">
        <ele>173.60000610352</ele>
        <time>2012-01-07T09:41:09.000Z</time>
      </trkpt>
      <trkpt lat="43.46465" lon="6.88088">
        <ele>172</ele>
        <time>2012-01-07T09:41:16.000Z</time>
      </trkpt>
      <trkpt lat="43.46463" lon="6.88071">
        <ele>168.19999694824</ele>
        <time>2012-01-07T09:41:22.000Z</time>
      </trkpt>
      <trkpt lat="43.4646" lon="6.88054">
        <ele>164.39999389648</ele>
        <time>2012-01-07T09:41:27.000Z</time>
      </trkpt>
      <trkpt lat="43.46456" lon="6.88038">
        <ele>160.80000305176</ele>
        <time>2012-01-07T09:41:32.000Z</time>
      </trkpt>
      <trkpt lat="43.46452" lon="6.88017">
        <ele>156</ele>
        <time>2012-01-07T09:41:37.000Z</time>
      </trkpt>
      <trkpt lat="43.46449" lon="6.87999">
        <ele>151.80000305176</ele>
        <time>2012-01-07T09:41:41.000Z</time>
      </trkpt>
      <trkpt lat="43.46445" lon="6.87985">
        <ele>148.39999389648</ele>
        <time>2012-01-07T09:41:45.000Z</time>
      </trkpt>
      <trkpt lat="43.46441" lon="6.87968">
        <ele>144.19999694824</ele>
        <time>2012-01-07T09:41:50.000Z</time>
      </trkpt>
      <trkpt lat="43.46433" lon="6.87942">
        <ele>138.19999694824</ele>
        <time>2012-01-07T09:41:57.000Z</time>
      </trkpt>
      <trkpt lat="43.46425" lon="6.87926">
        <ele>135.60000610352</ele>
        <time>2012-01-07T09:42:03.000Z</time>
      </trkpt>
      <trkpt lat="43.46416" lon="6.8791">
        <ele>132</ele>
        <time>2012-01-07T09:42:09.000Z</time>
      </trkpt>
      <trkpt lat="43.46403" lon="6.87897">
        <ele>124</ele>
        <time>2012-01-07T09:42:15.000Z</time>
      </trkpt>
      <trkpt lat="43.46392" lon="6.87892">
        <ele>120.19999694824</ele>
        <time>2012-01-07T09:42:19.000Z</time>
      </trkpt>
      <trkpt lat="43.46378" lon="6.8789">
        <ele>117.80000305176</ele>
        <time>2012-01-07T09:42:24.000Z</time>
      </trkpt>
      <trkpt lat="43.46359" lon="6.87894">
        <ele>116.80000305176</ele>
        <time>2012-01-07T09:42:30.000Z</time>
      </trkpt>
      <trkpt lat="43.46343" lon="6.87898">
        <ele>116.59999847412</ele>
        <time>2012-01-07T09:42:35.000Z</time>
      </trkpt>
      <trkpt lat="43.46321" lon="6.87906">
        <ele>114.40000152588</ele>
        <time>2012-01-07T09:42:41.000Z</time>
      </trkpt>
      <trkpt lat="43.46301" lon="6.87914">
        <ele>110.40000152588</ele>
        <time>2012-01-07T09:42:47.000Z</time>
      </trkpt>
      <trkpt lat="43.46287" lon="6.8792">
        <ele>108</ele>
        <time>2012-01-07T09:42:52.000Z</time>
      </trkpt>
      <trkpt lat="43.46276" lon="6.87926">
        <ele>106.19999694824</ele>
        <time>2012-01-07T09:42:57.000Z</time>
      </trkpt>
      <trkpt lat="43.46261" lon="6.87932">
        <ele>103.59999847412</ele>
        <time>2012-01-07T09:43:02.000Z</time>
      </trkpt>
      <trkpt lat="43.46251" lon="6.87935">
        <ele>100.80000305176</ele>
        <time>2012-01-07T09:43:06.000Z</time>
      </trkpt>
      <trkpt lat="43.46244" lon="6.87942">
        <ele>101</ele>
        <time>2012-01-07T09:43:11.000Z</time>
      </trkpt>
      <trkpt lat="43.46238" lon="6.87949">
        <ele>101.40000152588</ele>
        <time>2012-01-07T09:43:14.000Z</time>
      </trkpt>
      <trkpt lat="43.46225" lon="6.87949">
        <ele>96</ele>
        <time>2012-01-07T09:43:20.000Z</time>
      </trkpt>
      <trkpt lat="43.46214" lon="6.87953">
        <ele>93</ele>
        <time>2012-01-07T09:43:24.000Z</time>
      </trkpt>
      <trkpt lat="43.46197" lon="6.87961">
        <ele>89.199996948242</ele>
        <time>2012-01-07T09:43:30.000Z</time>
      </trkpt>
      <trkpt lat="43.46184" lon="6.87971">
        <ele>87.199996948242</ele>
        <time>2012-01-07T09:43:35.000Z</time>
      </trkpt>
      <trkpt lat="43.46171" lon="6.87976">
        <ele>83.400001525879</ele>
        <time>2012-01-07T09:43:40.000Z</time>
      </trkpt>
      <trkpt lat="43.46161" lon="6.87984">
        <ele>82.599998474121</ele>
        <time>2012-01-07T09:43:44.000Z</time>
      </trkpt>
      <trkpt lat="43.46146" lon="6.87991">
        <ele>80.199996948242</ele>
        <time>2012-01-07T09:43:49.000Z</time>
      </trkpt>
      <trkpt lat="43.46139" lon="6.88">
        <ele>81.199996948242</ele>
        <time>2012-01-07T09:43:53.000Z</time>
      </trkpt>
      <trkpt lat="43.4613" lon="6.88015">
        <ele>83.400001525879</ele>
        <time>2012-01-07T09:43:58.000Z</time>
      </trkpt>
      <trkpt lat="43.46128" lon="6.88017">
        <ele>83.599998474121</ele>
        <time>2012-01-07T09:43:59.000Z</time>
      </trkpt>
      <trkpt lat="43.46113" lon="6.88019">
        <ele>79</ele>
        <time>2012-01-07T09:44:04.000Z</time>
      </trkpt>
      <trkpt lat="43.46105" lon="6.88018">
        <ele>75.800003051758</ele>
        <time>2012-01-07T09:44:07.000Z</time>
      </trkpt>
      <trkpt lat="43.46091" lon="6.88015">
        <ele>69.599998474121</ele>
        <time>2012-01-07T09:44:12.000Z</time>
      </trkpt>
      <trkpt lat="43.46081" lon="6.88011">
        <ele>65</ele>
        <time>2012-01-07T09:44:17.000Z</time>
      </trkpt>
      <trkpt lat="43.46073" lon="6.88012">
        <ele>63.599998474121</ele>
        <time>2012-01-07T09:44:22.000Z</time>
      </trkpt>
      <trkpt lat="43.46073" lon="6.88011">
        <ele>63</ele>
        <time>2012-01-07T09:44:32.000Z</time>
      </trkpt>
      <trkpt lat="43.46073" lon="6.88011">
        <ele>63</ele>
        <time>2012-01-07T09:44:42.000Z</time>
      </trkpt>
      <trkpt lat="43.46077" lon="6.8801">
        <ele>63.599998474121</ele>
        <time>2012-01-07T09:44:54.000Z</time>
      </trkpt>
      <trkpt lat="43.46078" lon="6.88008">
        <ele>63.200000762939</ele>
        <time>2012-01-07T09:45:00.000Z</time>
      </trkpt>
      <trkpt lat="43.46087" lon="6.88">
        <ele>63.400001525879</ele>
        <time>2012-01-07T09:45:05.000Z</time>
      </trkpt>
      <trkpt lat="43.46094" lon="6.87998">
        <ele>65.199996948242</ele>
        <time>2012-01-07T09:45:08.000Z</time>
      </trkpt>
      <trkpt lat="43.46096" lon="6.87983">
        <ele>60.799999237061</ele>
        <time>2012-01-07T09:45:12.000Z</time>
      </trkpt>
      <trkpt lat="43.46102" lon="6.87977">
        <ele>60.799999237061</ele>
        <time>2012-01-07T09:45:15.000Z</time>
      </trkpt>
      <trkpt lat="43.46112" lon="6.8797">
        <ele>61.400001525879</ele>
        <time>2012-01-07T09:45:19.000Z</time>
      </trkpt>
      <trkpt lat="43.46112" lon="6.87962">
        <ele>58.799999237061</ele>
        <time>2012-01-07T09:45:21.000Z</time>
      </trkpt>
      <trkpt lat="43.4612" lon="6.87932">
        <ele>50.799999237061</ele>
        <time>2012-01-07T09:45:29.000Z</time>
      </trkpt>
      <trkpt lat="43.46129" lon="6.87904">
        <ele>45.599998474121</ele>
        <time>2012-01-07T09:45:36.000Z</time>
      </trkpt>
      <trkpt lat="43.46136" lon="6.87887">
        <ele>44.400001525879</ele>
        <time>2012-01-07T09:45:41.000Z</time>
      </trkpt>
      <trkpt lat="43.46142" lon="6.87869">
        <ele>42</ele>
        <time>2012-01-07T09:45:46.000Z</time>
      </trkpt>
      <trkpt lat="43.46145" lon="6.87864">
        <ele>41.200000762939</ele>
        <time>2012-01-07T09:45:50.000Z</time>
      </trkpt>
      <trkpt lat="43.46145" lon="6.87862">
        <ele>41.200000762939</ele>
        <time>2012-01-07T09:45:52.000Z</time>
      </trkpt>
      <trkpt lat="43.46147" lon="6.87861">
        <ele>41.200000762939</ele>
        <time>2012-01-07T09:45:56.000Z</time>
      </trkpt>
      <trkpt lat="43.4615" lon="6.87853">
        <ele>39.599998474121</ele>
        <time>2012-01-07T09:46:01.000Z</time>
      </trkpt>
      <trkpt lat="43.46151" lon="6.8785">
        <ele>39</ele>
        <time>2012-01-07T09:46:03.000Z</time>
      </trkpt>
      <trkpt lat="43.46152" lon="6.87848">
        <ele>38.599998474121</ele>
        <time>2012-01-07T09:46:09.000Z</time>
      </trkpt>
      <trkpt lat="43.4615" lon="6.87852">
        <ele>39.400001525879</ele>
        <time>2012-01-07T09:46:15.000Z</time>
      </trkpt>
      <trkpt lat="43.4615" lon="6.87854">
        <ele>39.799999237061</ele>
        <time>2012-01-07T09:46:27.000Z</time>
      </trkpt>
      <trkpt lat="43.46151" lon="6.87854">
        <ele>40</ele>
        <time>2012-01-07T09:46:35.000Z</time>
      </trkpt>
      <trkpt lat="43.46152" lon="6.87857">
        <ele>40.799999237061</ele>
        <time>2012-01-07T09:46:48.000Z</time>
      </trkpt>
      <trkpt lat="43.46147" lon="6.87859">
        <ele>40.599998474121</ele>
        <time>2012-01-07T09:46:53.000Z</time>
      </trkpt>
      <trkpt lat="43.46143" lon="6.87859">
        <ele>40.200000762939</ele>
        <time>2012-01-07T09:46:58.000Z</time>
      </trkpt>
      <trkpt lat="43.46144" lon="6.87859">
        <ele>40.200000762939</ele>
        <time>2012-01-07T09:47:09.000Z</time>
      </trkpt>
      <trkpt lat="43.46142" lon="6.87859">
        <ele>40</ele>
        <time>2012-01-07T09:47:20.000Z</time>
      </trkpt>
      <trkpt lat="43.46139" lon="6.87859">
        <ele>39.599998474121</ele>
        <time>2012-01-07T09:47:31.000Z</time>
      </trkpt>
      <trkpt lat="43.4614" lon="6.87855">
        <ele>39</ele>
        <time>2012-01-07T09:47:36.000Z</time>
      </trkpt>
      <trkpt lat="43.4614" lon="6.87853">
        <ele>38.799999237061</ele>
        <time>2012-01-07T09:47:37.000Z</time>
      </trkpt>
      <trkpt lat="43.46146" lon="6.87845">
        <ele>37.599998474121</ele>
        <time>2012-01-07T09:47:43.000Z</time>
      </trkpt>
      <trkpt lat="43.46151" lon="6.87838">
        <ele>36.400001525879</ele>
        <time>2012-01-07T09:47:49.000Z</time>
      </trkpt>
      <trkpt lat="43.46158" lon="6.87826">
        <ele>36.799999237061</ele>
        <time>2012-01-07T09:47:56.000Z</time>
      </trkpt>
      <trkpt lat="43.46168" lon="6.8782">
        <ele>38</ele>
        <time>2012-01-07T09:48:03.000Z</time>
      </trkpt>
      <trkpt lat="43.46183" lon="6.87815">
        <ele>41</ele>
        <time>2012-01-07T09:48:09.000Z</time>
      </trkpt>
      <trkpt lat="43.462" lon="6.87806">
        <ele>43.599998474121</ele>
        <time>2012-01-07T09:48:15.000Z</time>
      </trkpt>
      <trkpt lat="43.46217" lon="6.87797">
        <ele>45.400001525879</ele>
        <time>2012-01-07T09:48:21.000Z</time>
      </trkpt>
      <trkpt lat="43.46233" lon="6.8779">
        <ele>46</ele>
        <time>2012-01-07T09:48:27.000Z</time>
      </trkpt>
      <trkpt lat="43.46248" lon="6.87781">
        <ele>45.799999237061</ele>
        <time>2012-01-07T09:48:34.000Z</time>
      </trkpt>
      <trkpt lat="43.46267" lon="6.87766">
        <ele>46.799999237061</ele>
        <time>2012-01-07T09:48:42.000Z</time>
      </trkpt>
      <trkpt lat="43.46283" lon="6.87749">
        <ele>45.799999237061</ele>
        <time>2012-01-07T09:48:50.000Z</time>
      </trkpt>
      <trkpt lat="43.46298" lon="6.87731">
        <ele>48.400001525879</ele>
        <time>2012-01-07T09:48:57.000Z</time>
      </trkpt>
      <trkpt lat="43.46315" lon="6.87708">
        <ele>47.799999237061</ele>
        <time>2012-01-07T09:49:05.000Z</time>
      </trkpt>
      <trkpt lat="43.46328" lon="6.87697">
        <ele>45.400001525879</ele>
        <time>2012-01-07T09:49:10.000Z</time>
      </trkpt>
      <trkpt lat="43.46348" lon="6.87687">
        <ele>44.400001525879</ele>
        <time>2012-01-07T09:49:17.000Z</time>
      </trkpt>
      <trkpt lat="43.4637" lon="6.87683">
        <ele>45.400001525879</ele>
        <time>2012-01-07T09:49:23.000Z</time>
      </trkpt>
      <trkpt lat="43.46392" lon="6.87677">
        <ele>45.799999237061</ele>
        <time>2012-01-07T09:49:29.000Z</time>
      </trkpt>
      <trkpt lat="43.4641" lon="6.87662">
        <ele>44.599998474121</ele>
        <time>2012-01-07T09:49:35.000Z</time>
      </trkpt>
      <trkpt lat="43.46421" lon="6.87644">
        <ele>45.200000762939</ele>
        <time>2012-01-07T09:49:41.000Z</time>
      </trkpt>
      <trkpt lat="43.46428" lon="6.87622">
        <ele>45.200000762939</ele>
        <time>2012-01-07T09:49:48.000Z</time>
      </trkpt>
      <trkpt lat="43.46431" lon="6.87599">
        <ele>43.799999237061</ele>
        <time>2012-01-07T09:49:55.000Z</time>
      </trkpt>
      <trkpt lat="43.46435" lon="6.87583">
        <ele>42.799999237061</ele>
        <time>2012-01-07T09:50:01.000Z</time>
      </trkpt>
      <trkpt lat="43.4644" lon="6.87565">
        <ele>47.200000762939</ele>
        <time>2012-01-07T09:50:07.000Z</time>
      </trkpt>
      <trkpt lat="43.46451" lon="6.87552">
        <ele>50</ele>
        <time>2012-01-07T09:50:14.000Z</time>
      </trkpt>
      <trkpt lat="43.46467" lon="6.8755">
        <ele>49.599998474121</ele>
        <time>2012-01-07T09:50:19.000Z</time>
      </trkpt>
      <trkpt lat="43.46488" lon="6.87552">
        <ele>48.400001525879</ele>
        <time>2012-01-07T09:50:26.000Z</time>
      </trkpt>
      <trkpt lat="43.46502" lon="6.87555">
        <ele>47.799999237061</ele>
        <time>2012-01-07T09:50:31.000Z</time>
      </trkpt>
      <trkpt lat="43.46524" lon="6.87562">
        <ele>47.599998474121</ele>
        <time>2012-01-07T09:50:39.000Z</time>
      </trkpt>
      <trkpt lat="43.46543" lon="6.87573">
        <ele>46.400001525879</ele>
        <time>2012-01-07T09:50:46.000Z</time>
      </trkpt>
      <trkpt lat="43.46564" lon="6.87587">
        <ele>46.200000762939</ele>
        <time>2012-01-07T09:50:53.000Z</time>
      </trkpt>
      <trkpt lat="43.46579" lon="6.87605">
        <ele>51.400001525879</ele>
        <time>2012-01-07T09:50:59.000Z</time>
      </trkpt>
      <trkpt lat="43.46593" lon="6.87615">
        <ele>54.599998474121</ele>
        <time>2012-01-07T09:51:05.000Z</time>
      </trkpt>
      <trkpt lat="43.46603" lon="6.87617">
        <ele>55</ele>
        <time>2012-01-07T09:51:11.000Z</time>
      </trkpt>
      <trkpt lat="43.46622" lon="6.87627">
        <ele>56.200000762939</ele>
        <time>2012-01-07T09:51:20.000Z</time>
      </trkpt>
      <trkpt lat="43.4664" lon="6.87637">
        <ele>56</ele>
        <time>2012-01-07T09:51:27.000Z</time>
      </trkpt>
      <trkpt lat="43.46665" lon="6.87647">
        <ele>53.599998474121</ele>
        <time>2012-01-07T09:51:36.000Z</time>
      </trkpt>
      <trkpt lat="43.4669" lon="6.87657">
        <ele>53.599998474121</ele>
        <time>2012-01-07T09:51:44.000Z</time>
      </trkpt>
      <trkpt lat="43.46711" lon="6.87667">
        <ele>52.200000762939</ele>
        <time>2012-01-07T09:51:51.000Z</time>
      </trkpt>
      <trkpt lat="43.46727" lon="6.87678">
        <ele>55.400001525879</ele>
        <time>2012-01-07T09:51:57.000Z</time>
      </trkpt>
      <trkpt lat="43.46744" lon="6.87691">
        <ele>58.400001525879</ele>
        <time>2012-01-07T09:52:03.000Z</time>
      </trkpt>
      <trkpt lat="43.46761" lon="6.87699">
        <ele>61.200000762939</ele>
        <time>2012-01-07T09:52:09.000Z</time>
      </trkpt>
      <trkpt lat="43.4678" lon="6.87714">
        <ele>64.599998474121</ele>
        <time>2012-01-07T09:52:15.000Z</time>
      </trkpt>
      <trkpt lat="43.46797" lon="6.87727">
        <ele>64.800003051758</ele>
        <time>2012-01-07T09:52:20.000Z</time>
      </trkpt>
      <trkpt lat="43.46817" lon="6.87739">
        <ele>62.200000762939</ele>
        <time>2012-01-07T09:52:26.000Z</time>
      </trkpt>
      <trkpt lat="43.46834" lon="6.87749">
        <ele>58.200000762939</ele>
        <time>2012-01-07T09:52:31.000Z</time>
      </trkpt>
      <trkpt lat="43.46853" lon="6.87763">
        <ele>63.400001525879</ele>
        <time>2012-01-07T09:52:38.000Z</time>
      </trkpt>
      <trkpt lat="43.46868" lon="6.87771">
        <ele>64.800003051758</ele>
        <time>2012-01-07T09:52:45.000Z</time>
      </trkpt>
      <trkpt lat="43.46884" lon="6.87781">
        <ele>64.800003051758</ele>
        <time>2012-01-07T09:52:53.000Z</time>
      </trkpt>
      <trkpt lat="43.46895" lon="6.87796">
        <ele>63.599998474121</ele>
        <time>2012-01-07T09:52:59.000Z</time>
      </trkpt>
      <trkpt lat="43.46906" lon="6.87812">
        <ele>60.400001525879</ele>
        <time>2012-01-07T09:53:06.000Z</time>
      </trkpt>
      <trkpt lat="43.46919" lon="6.87829">
        <ele>55</ele>
        <time>2012-01-07T09:53:14.000Z</time>
      </trkpt>
      <trkpt lat="43.46927" lon="6.87841">
        <ele>58.200000762939</ele>
        <time>2012-01-07T09:53:19.000Z</time>
      </trkpt>
      <trkpt lat="43.4694" lon="6.87859">
        <ele>63.599998474121</ele>
        <time>2012-01-07T09:53:27.000Z</time>
      </trkpt>
      <trkpt lat="43.46952" lon="6.87871">
        <ele>65.400001525879</ele>
        <time>2012-01-07T09:53:34.000Z</time>
      </trkpt>
      <trkpt lat="43.4697" lon="6.87884">
        <ele>64.800003051758</ele>
        <time>2012-01-07T09:53:42.000Z</time>
      </trkpt>
      <trkpt lat="43.46988" lon="6.87896">
        <ele>61.200000762939</ele>
        <time>2012-01-07T09:53:50.000Z</time>
      </trkpt>
      <trkpt lat="43.46997" lon="6.87905">
        <ele>57.799999237061</ele>
        <time>2012-01-07T09:53:55.000Z</time>
      </trkpt>
      <trkpt lat="43.47011" lon="6.87917">
        <ele>56</ele>
        <time>2012-01-07T09:54:02.000Z</time>
      </trkpt>
      <trkpt lat="43.47018" lon="6.87936">
        <ele>59.799999237061</ele>
        <time>2012-01-07T09:54:08.000Z</time>
      </trkpt>
      <trkpt lat="43.47025" lon="6.87959">
        <ele>63.599998474121</ele>
        <time>2012-01-07T09:54:15.000Z</time>
      </trkpt>
      <trkpt lat="43.47033" lon="6.87978">
        <ele>65.599998474121</ele>
        <time>2012-01-07T09:54:22.000Z</time>
      </trkpt>
      <trkpt lat="43.47044" lon="6.87988">
        <ele>65.199996948242</ele>
        <time>2012-01-07T09:54:28.000Z</time>
      </trkpt>
      <trkpt lat="43.47063" lon="6.87994">
        <ele>62.599998474121</ele>
        <time>2012-01-07T09:54:36.000Z</time>
      </trkpt>
      <trkpt lat="43.47077" lon="6.87991">
        <ele>60.200000762939</ele>
        <time>2012-01-07T09:54:42.000Z</time>
      </trkpt>
      <trkpt lat="43.47094" lon="6.87983">
        <ele>61.400001525879</ele>
        <time>2012-01-07T09:54:50.000Z</time>
      </trkpt>
      <trkpt lat="43.47107" lon="6.87967">
        <ele>63.200000762939</ele>
        <time>2012-01-07T09:54:56.000Z</time>
      </trkpt>
      <trkpt lat="43.47122" lon="6.87945">
        <ele>63.599998474121</ele>
        <time>2012-01-07T09:55:04.000Z</time>
      </trkpt>
      <trkpt lat="43.4713" lon="6.87931">
        <ele>63</ele>
        <time>2012-01-07T09:55:10.000Z</time>
      </trkpt>
      <trkpt lat="43.47139" lon="6.87917">
        <ele>61.799999237061</ele>
        <time>2012-01-07T09:55:15.000Z</time>
      </trkpt>
      <trkpt lat="43.47155" lon="6.87903">
        <ele>63.400001525879</ele>
        <time>2012-01-07T09:55:23.000Z</time>
      </trkpt>
      <trkpt lat="43.47162" lon="6.87898">
        <ele>63.400001525879</ele>
        <time>2012-01-07T09:55:27.000Z</time>
      </trkpt>
      <trkpt lat="43.47175" lon="6.87892">
        <ele>63.400001525879</ele>
        <time>2012-01-07T09:55:33.000Z</time>
      </trkpt>
      <trkpt lat="43.47182" lon="6.87879">
        <ele>64.199996948242</ele>
        <time>2012-01-07T09:55:39.000Z</time>
      </trkpt>
      <trkpt lat="43.47192" lon="6.87867">
        <ele>65.199996948242</ele>
        <time>2012-01-07T09:55:46.000Z</time>
      </trkpt>
      <trkpt lat="43.47197" lon="6.87859">
        <ele>65.599998474121</ele>
        <time>2012-01-07T09:55:52.000Z</time>
      </trkpt>
      <trkpt lat="43.47196" lon="6.87858">
        <ele>65.599998474121</ele>
        <time>2012-01-07T09:55:53.000Z</time>
      </trkpt>
      <trkpt lat="43.47194" lon="6.87856">
        <ele>65.599998474121</ele>
        <time>2012-01-07T09:56:05.000Z</time>
      </trkpt>
      <trkpt lat="43.47196" lon="6.87856">
        <ele>65.599998474121</ele>
        <time>2012-01-07T09:56:24.000Z</time>
      </trkpt>
      <trkpt lat="43.47196" lon="6.87855">
        <ele>65.800003051758</ele>
        <time>2012-01-07T09:56:25.000Z</time>
      </trkpt>
      <trkpt lat="43.47208" lon="6.87853">
        <ele>66.199996948242</ele>
        <time>2012-01-07T09:56:32.000Z</time>
      </trkpt>
      <trkpt lat="43.47219" lon="6.87867">
        <ele>65.800003051758</ele>
        <time>2012-01-07T09:56:37.000Z</time>
      </trkpt>
      <trkpt lat="43.4722" lon="6.8788">
        <ele>65.400001525879</ele>
        <time>2012-01-07T09:56:40.000Z</time>
      </trkpt>
      <trkpt lat="43.4722" lon="6.87908">
        <ele>64.199996948242</ele>
        <time>2012-01-07T09:56:48.000Z</time>
      </trkpt>
      <trkpt lat="43.4723" lon="6.87926">
        <ele>64.199996948242</ele>
        <time>2012-01-07T09:56:55.000Z</time>
      </trkpt>
      <trkpt lat="43.47238" lon="6.8794">
        <ele>64</ele>
        <time>2012-01-07T09:57:01.000Z</time>
      </trkpt>
      <trkpt lat="43.47249" lon="6.87964">
        <ele>62.200000762939</ele>
        <time>2012-01-07T09:57:10.000Z</time>
      </trkpt>
      <trkpt lat="43.47257" lon="6.87991">
        <ele>60.599998474121</ele>
        <time>2012-01-07T09:57:19.000Z</time>
      </trkpt>
      <trkpt lat="43.47255" lon="6.88013">
        <ele>60.799999237061</ele>
        <time>2012-01-07T09:57:26.000Z</time>
      </trkpt>
      <trkpt lat="43.47258" lon="6.88023">
        <ele>61.400001525879</ele>
        <time>2012-01-07T09:57:29.000Z</time>
      </trkpt>
      <trkpt lat="43.47256" lon="6.88033">
        <ele>62.200000762939</ele>
        <time>2012-01-07T09:57:33.000Z</time>
      </trkpt>
      <trkpt lat="43.47248" lon="6.88063">
        <ele>65.400001525879</ele>
        <time>2012-01-07T09:57:44.000Z</time>
      </trkpt>
      <trkpt lat="43.47256" lon="6.88082">
        <ele>65.400001525879</ele>
        <time>2012-01-07T09:57:49.000Z</time>
      </trkpt>
      <trkpt lat="43.47266" lon="6.88092">
        <ele>66.800003051758</ele>
        <time>2012-01-07T09:57:54.000Z</time>
      </trkpt>
      <trkpt lat="43.47286" lon="6.88098">
        <ele>66</ele>
        <time>2012-01-07T09:58:01.000Z</time>
      </trkpt>
      <trkpt lat="43.473" lon="6.88095">
        <ele>63.599998474121</ele>
        <time>2012-01-07T09:58:07.000Z</time>
      </trkpt>
      <trkpt lat="43.47308" lon="6.88082">
        <ele>60.400001525879</ele>
        <time>2012-01-07T09:58:12.000Z</time>
      </trkpt>
      <trkpt lat="43.47319" lon="6.88054">
        <ele>59.200000762939</ele>
        <time>2012-01-07T09:58:21.000Z</time>
      </trkpt>
      <trkpt lat="43.47331" lon="6.88039">
        <ele>58.599998474121</ele>
        <time>2012-01-07T09:58:28.000Z</time>
      </trkpt>
      <trkpt lat="43.47341" lon="6.8803">
        <ele>58.799999237061</ele>
        <time>2012-01-07T09:58:35.000Z</time>
      </trkpt>
      <trkpt lat="43.47352" lon="6.88024">
        <ele>59</ele>
        <time>2012-01-07T09:58:41.000Z</time>
      </trkpt>
      <trkpt lat="43.47366" lon="6.88022">
        <ele>59.400001525879</ele>
        <time>2012-01-07T09:58:49.000Z</time>
      </trkpt>
      <trkpt lat="43.47379" lon="6.88026">
        <ele>59.799999237061</ele>
        <time>2012-01-07T09:58:57.000Z</time>
      </trkpt>
      <trkpt lat="43.47388" lon="6.88041">
        <ele>60.400001525879</ele>
        <time>2012-01-07T09:59:04.000Z</time>
      </trkpt>
      <trkpt lat="43.47392" lon="6.88061">
        <ele>61.400001525879</ele>
        <time>2012-01-07T09:59:11.000Z</time>
      </trkpt>
      <trkpt lat="43.47392" lon="6.88078">
        <ele>62</ele>
        <time>2012-01-07T09:59:16.000Z</time>
      </trkpt>
      <trkpt lat="43.47386" lon="6.88102">
        <ele>63</ele>
        <time>2012-01-07T09:59:23.000Z</time>
      </trkpt>
      <trkpt lat="43.47376" lon="6.88121">
        <ele>64</ele>
        <time>2012-01-07T09:59:29.000Z</time>
      </trkpt>
      <trkpt lat="43.47372" lon="6.88143">
        <ele>65.599998474121</ele>
        <time>2012-01-07T09:59:36.000Z</time>
      </trkpt>
      <trkpt lat="43.47373" lon="6.88168">
        <ele>67.599998474121</ele>
        <time>2012-01-07T09:59:43.000Z</time>
      </trkpt>
      <trkpt lat="43.47379" lon="6.88192">
        <ele>69</ele>
        <time>2012-01-07T09:59:48.000Z</time>
      </trkpt>
      <trkpt lat="43.47383" lon="6.88199">
        <ele>69.199996948242</ele>
        <time>2012-01-07T09:59:52.000Z</time>
      </trkpt>
      <trkpt lat="43.47387" lon="6.88205">
        <ele>69.199996948242</ele>
        <time>2012-01-07T09:59:59.000Z</time>
      </trkpt>
      <trkpt lat="43.47399" lon="6.8822">
        <ele>69.199996948242</ele>
        <time>2012-01-07T10:00:07.000Z</time>
      </trkpt>
      <trkpt lat="43.47406" lon="6.88232">
        <ele>69.199996948242</ele>
        <time>2012-01-07T10:00:13.000Z</time>
      </trkpt>
      <trkpt lat="43.47405" lon="6.8825">
        <ele>70.199996948242</ele>
        <time>2012-01-07T10:00:21.000Z</time>
      </trkpt>
      <trkpt lat="43.47402" lon="6.88263">
        <ele>70.400001525879</ele>
        <time>2012-01-07T10:00:30.000Z</time>
      </trkpt>
      <trkpt lat="43.47401" lon="6.88274">
        <ele>70.199996948242</ele>
        <time>2012-01-07T10:00:37.000Z</time>
      </trkpt>
      <trkpt lat="43.47401" lon="6.88286">
        <ele>70.199996948242</ele>
        <time>2012-01-07T10:00:45.000Z</time>
      </trkpt>
      <trkpt lat="43.47399" lon="6.88303">
        <ele>70.199996948242</ele>
        <time>2012-01-07T10:00:54.000Z</time>
      </trkpt>
      <trkpt lat="43.47398" lon="6.88312">
        <ele>70</ele>
        <time>2012-01-07T10:00:59.000Z</time>
      </trkpt>
      <trkpt lat="43.47395" lon="6.88328">
        <ele>69.800003051758</ele>
        <time>2012-01-07T10:01:08.000Z</time>
      </trkpt>
      <trkpt lat="43.47394" lon="6.88344">
        <ele>69.199996948242</ele>
        <time>2012-01-07T10:01:16.000Z</time>
      </trkpt>
      <trkpt lat="43.47393" lon="6.88365">
        <ele>68.199996948242</ele>
        <time>2012-01-07T10:01:25.000Z</time>
      </trkpt>
      <trkpt lat="43.47394" lon="6.88386">
        <ele>67.199996948242</ele>
        <time>2012-01-07T10:01:34.000Z</time>
      </trkpt>
      <trkpt lat="43.47396" lon="6.88402">
        <ele>66.800003051758</ele>
        <time>2012-01-07T10:01:41.000Z</time>
      </trkpt>
      <trkpt lat="43.47403" lon="6.88417">
        <ele>66.599998474121</ele>
        <time>2012-01-07T10:01:48.000Z</time>
      </trkpt>
      <trkpt lat="43.4741" lon="6.88436">
        <ele>66.800003051758</ele>
        <time>2012-01-07T10:01:56.000Z</time>
      </trkpt>
      <trkpt lat="43.47419" lon="6.88457">
        <ele>66.800003051758</ele>
        <time>2012-01-07T10:02:05.000Z</time>
      </trkpt>
      <trkpt lat="43.4743" lon="6.88472">
        <ele>67.400001525879</ele>
        <time>2012-01-07T10:02:13.000Z</time>
      </trkpt>
      <trkpt lat="43.47435" lon="6.88474">
        <ele>67.800003051758</ele>
        <time>2012-01-07T10:02:19.000Z</time>
      </trkpt>
      <trkpt lat="43.47441" lon="6.88479">
        <ele>68</ele>
        <time>2012-01-07T10:02:28.000Z</time>
      </trkpt>
      <trkpt lat="43.47449" lon="6.88481">
        <ele>68.599998474121</ele>
        <time>2012-01-07T10:02:37.000Z</time>
      </trkpt>
      <trkpt lat="43.47455" lon="6.88479">
        <ele>69.199996948242</ele>
        <time>2012-01-07T10:02:45.000Z</time>
      </trkpt>
      <trkpt lat="43.47457" lon="6.88477">
        <ele>69.800003051758</ele>
        <time>2012-01-07T10:02:51.000Z</time>
      </trkpt>
      <trkpt lat="43.47465" lon="6.88461">
        <ele>71.800003051758</ele>
        <time>2012-01-07T10:02:59.000Z</time>
      </trkpt>
      <trkpt lat="43.47471" lon="6.88449">
        <ele>73.599998474121</ele>
        <time>2012-01-07T10:03:06.000Z</time>
      </trkpt>
      <trkpt lat="43.47476" lon="6.88441">
        <ele>75</ele>
        <time>2012-01-07T10:03:15.000Z</time>
      </trkpt>
      <trkpt lat="43.47483" lon="6.88438">
        <ele>76.199996948242</ele>
        <time>2012-01-07T10:03:22.000Z</time>
      </trkpt>
      <trkpt lat="43.4749" lon="6.88437">
        <ele>77.199996948242</ele>
        <time>2012-01-07T10:03:29.000Z</time>
      </trkpt>
      <trkpt lat="43.47498" lon="6.88436">
        <ele>78.400001525879</ele>
        <time>2012-01-07T10:03:35.000Z</time>
      </trkpt>
      <trkpt lat="43.47506" lon="6.88433">
        <ele>79.599998474121</ele>
        <time>2012-01-07T10:03:42.000Z</time>
      </trkpt>
      <trkpt lat="43.47511" lon="6.88434">
        <ele>79.800003051758</ele>
        <time>2012-01-07T10:03:45.000Z</time>
      </trkpt>
      <trkpt lat="43.47519" lon="6.88433">
        <ele>80.599998474121</ele>
        <time>2012-01-07T10:03:51.000Z</time>
      </trkpt>
      <trkpt lat="43.47531" lon="6.88435">
        <ele>81.400001525879</ele>
        <time>2012-01-07T10:03:58.000Z</time>
      </trkpt>
      <trkpt lat="43.4754" lon="6.88436">
        <ele>82</ele>
        <time>2012-01-07T10:04:04.000Z</time>
      </trkpt>
      <trkpt lat="43.47552" lon="6.8844">
        <ele>82.199996948242</ele>
        <time>2012-01-07T10:04:11.000Z</time>
      </trkpt>
      <trkpt lat="43.47565" lon="6.88444">
        <ele>82.400001525879</ele>
        <time>2012-01-07T10:04:19.000Z</time>
      </trkpt>
      <trkpt lat="43.47577" lon="6.88451">
        <ele>82</ele>
        <time>2012-01-07T10:04:28.000Z</time>
      </trkpt>
      <trkpt lat="43.47588" lon="6.88458">
        <ele>81.599998474121</ele>
        <time>2012-01-07T10:04:36.000Z</time>
      </trkpt>
      <trkpt lat="43.47595" lon="6.88465">
        <ele>80.800003051758</ele>
        <time>2012-01-07T10:04:44.000Z</time>
      </trkpt>
      <trkpt lat="43.47602" lon="6.88464">
        <ele>81.599998474121</ele>
        <time>2012-01-07T10:04:48.000Z</time>
      </trkpt>
      <trkpt lat="43.47605" lon="6.88466">
        <ele>81.599998474121</ele>
        <time>2012-01-07T10:04:54.000Z</time>
      </trkpt>
      <trkpt lat="43.47606" lon="6.88466">
        <ele>81.599998474121</ele>
        <time>2012-01-07T10:05:04.000Z</time>
      </trkpt>
      <trkpt lat="43.47607" lon="6.88465">
        <ele>82</ele>
        <time>2012-01-07T10:05:18.000Z</time>
      </trkpt>
      <trkpt lat="43.47608" lon="6.88465">
        <ele>82</ele>
        <time>2012-01-07T10:05:31.000Z</time>
      </trkpt>
      <trkpt lat="43.47609" lon="6.88465">
        <ele>82</ele>
        <time>2012-01-07T10:05:51.000Z</time>
      </trkpt>
      <trkpt lat="43.47608" lon="6.88466">
        <ele>81.800003051758</ele>
        <time>2012-01-07T10:06:14.000Z</time>
      </trkpt>
      <trkpt lat="43.47609" lon="6.88465">
        <ele>82.199996948242</ele>
        <time>2012-01-07T10:06:33.000Z</time>
      </trkpt>
      <trkpt lat="43.47621" lon="6.88467">
        <ele>82.599998474121</ele>
        <time>2012-01-07T10:06:42.000Z</time>
      </trkpt>
      <trkpt lat="43.47636" lon="6.8847">
        <ele>83.400001525879</ele>
        <time>2012-01-07T10:06:52.000Z</time>
      </trkpt>
      <trkpt lat="43.47648" lon="6.88471">
        <ele>84.400001525879</ele>
        <time>2012-01-07T10:07:01.000Z</time>
      </trkpt>
      <trkpt lat="43.47659" lon="6.88471">
        <ele>85.199996948242</ele>
        <time>2012-01-07T10:07:09.000Z</time>
      </trkpt>
      <trkpt lat="43.4767" lon="6.88475">
        <ele>85.400001525879</ele>
        <time>2012-01-07T10:07:17.000Z</time>
      </trkpt>
      <trkpt lat="43.47683" lon="6.88479">
        <ele>86</ele>
        <time>2012-01-07T10:07:26.000Z</time>
      </trkpt>
      <trkpt lat="43.47695" lon="6.88479">
        <ele>87.400001525879</ele>
        <time>2012-01-07T10:07:34.000Z</time>
      </trkpt>
      <trkpt lat="43.47712" lon="6.88478">
        <ele>89.400001525879</ele>
        <time>2012-01-07T10:07:43.000Z</time>
      </trkpt>
      <trkpt lat="43.47728" lon="6.88479">
        <ele>91</ele>
        <time>2012-01-07T10:07:51.000Z</time>
      </trkpt>
      <trkpt lat="43.4774" lon="6.8848">
        <ele>92.400001525879</ele>
        <time>2012-01-07T10:07:58.000Z</time>
      </trkpt>
      <trkpt lat="43.47753" lon="6.88485">
        <ele>93.199996948242</ele>
        <time>2012-01-07T10:08:05.000Z</time>
      </trkpt>
      <trkpt lat="43.47761" lon="6.88495">
        <ele>92.599998474121</ele>
        <time>2012-01-07T10:08:10.000Z</time>
      </trkpt>
      <trkpt lat="43.47764" lon="6.88516">
        <ele>90.199996948242</ele>
        <time>2012-01-07T10:08:19.000Z</time>
      </trkpt>
      <trkpt lat="43.4777" lon="6.88531">
        <ele>89.400001525879</ele>
        <time>2012-01-07T10:08:27.000Z</time>
      </trkpt>
      <trkpt lat="43.4778" lon="6.88538">
        <ele>89.800003051758</ele>
        <time>2012-01-07T10:08:35.000Z</time>
      </trkpt>
      <trkpt lat="43.47793" lon="6.88548">
        <ele>90.400001525879</ele>
        <time>2012-01-07T10:08:45.000Z</time>
      </trkpt>
      <trkpt lat="43.47804" lon="6.88554">
        <ele>90.599998474121</ele>
        <time>2012-01-07T10:08:52.000Z</time>
      </trkpt>
      <trkpt lat="43.47817" lon="6.88558">
        <ele>91.400001525879</ele>
        <time>2012-01-07T10:08:59.000Z</time>
      </trkpt>
      <trkpt lat="43.4783" lon="6.88557">
        <ele>93.400001525879</ele>
        <time>2012-01-07T10:09:07.000Z</time>
      </trkpt>
      <trkpt lat="43.47841" lon="6.88552">
        <ele>94.800003051758</ele>
        <time>2012-01-07T10:09:15.000Z</time>
      </trkpt>
      <trkpt lat="43.47848" lon="6.88546">
        <ele>95.800003051758</ele>
        <time>2012-01-07T10:09:22.000Z</time>
      </trkpt>
      <trkpt lat="43.47856" lon="6.88537">
        <ele>97.800003051758</ele>
        <time>2012-01-07T10:09:29.000Z</time>
      </trkpt>
      <trkpt lat="43.47866" lon="6.88528">
        <ele>99.599998474121</ele>
        <time>2012-01-07T10:09:36.000Z</time>
      </trkpt>
      <trkpt lat="43.47877" lon="6.88519">
        <ele>101.19999694824</ele>
        <time>2012-01-07T10:09:44.000Z</time>
      </trkpt>
      <trkpt lat="43.47886" lon="6.88515">
        <ele>101.80000305176</ele>
        <time>2012-01-07T10:09:50.000Z</time>
      </trkpt>
      <trkpt lat="43.479" lon="6.8851">
        <ele>102.40000152588</ele>
        <time>2012-01-07T10:09:59.000Z</time>
      </trkpt>
      <trkpt lat="43.47912" lon="6.885">
        <ele>104.19999694824</ele>
        <time>2012-01-07T10:10:07.000Z</time>
      </trkpt>
      <trkpt lat="43.47923" lon="6.88489">
        <ele>107.19999694824</ele>
        <time>2012-01-07T10:10:14.000Z</time>
      </trkpt>
      <trkpt lat="43.47935" lon="6.88475">
        <ele>110</ele>
        <time>2012-01-07T10:10:21.000Z</time>
      </trkpt>
      <trkpt lat="43.47956" lon="6.88461">
        <ele>111.40000152588</ele>
        <time>2012-01-07T10:10:31.000Z</time>
      </trkpt>
      <trkpt lat="43.4797" lon="6.88454">
        <ele>111.40000152588</ele>
        <time>2012-01-07T10:10:38.000Z</time>
      </trkpt>
      <trkpt lat="43.47981" lon="6.88444">
        <ele>112.40000152588</ele>
        <time>2012-01-07T10:10:45.000Z</time>
      </trkpt>
      <trkpt lat="43.47997" lon="6.88428">
        <ele>114.40000152588</ele>
        <time>2012-01-07T10:10:55.000Z</time>
      </trkpt>
      <trkpt lat="43.48007" lon="6.88412">
        <ele>116.80000305176</ele>
        <time>2012-01-07T10:11:03.000Z</time>
      </trkpt>
      <trkpt lat="43.48019" lon="6.88403">
        <ele>117.19999694824</ele>
        <time>2012-01-07T10:11:10.000Z</time>
      </trkpt>
      <trkpt lat="43.4803" lon="6.88394">
        <ele>117.19999694824</ele>
        <time>2012-01-07T10:11:17.000Z</time>
      </trkpt>
      <trkpt lat="43.48041" lon="6.88383">
        <ele>118.19999694824</ele>
        <time>2012-01-07T10:11:25.000Z</time>
      </trkpt>
      <trkpt lat="43.48053" lon="6.88371">
        <ele>119</ele>
        <time>2012-01-07T10:11:33.000Z</time>
      </trkpt>
      <trkpt lat="43.48069" lon="6.88356">
        <ele>119.19999694824</ele>
        <time>2012-01-07T10:11:44.000Z</time>
      </trkpt>
      <trkpt lat="43.48079" lon="6.88343">
        <ele>120.40000152588</ele>
        <time>2012-01-07T10:11:52.000Z</time>
      </trkpt>
      <trkpt lat="43.48088" lon="6.88329">
        <ele>122</ele>
        <time>2012-01-07T10:12:00.000Z</time>
      </trkpt>
      <trkpt lat="43.48096" lon="6.88314">
        <ele>123.19999694824</ele>
        <time>2012-01-07T10:12:08.000Z</time>
      </trkpt>
      <trkpt lat="43.48102" lon="6.88302">
        <ele>124.19999694824</ele>
        <time>2012-01-07T10:12:14.000Z</time>
      </trkpt>
      <trkpt lat="43.48111" lon="6.88287">
        <ele>125.19999694824</ele>
        <time>2012-01-07T10:12:22.000Z</time>
      </trkpt>
      <trkpt lat="43.48118" lon="6.88268">
        <ele>127.59999847412</ele>
        <time>2012-01-07T10:12:31.000Z</time>
      </trkpt>
      <trkpt lat="43.4812" lon="6.88252">
        <ele>130.39999389648</ele>
        <time>2012-01-07T10:12:39.000Z</time>
      </trkpt>
      <trkpt lat="43.4812" lon="6.88237">
        <ele>132.19999694824</ele>
        <time>2012-01-07T10:12:46.000Z</time>
      </trkpt>
      <trkpt lat="43.48119" lon="6.88221">
        <ele>134.39999389648</ele>
        <time>2012-01-07T10:12:53.000Z</time>
      </trkpt>
      <trkpt lat="43.48119" lon="6.88205">
        <ele>136.19999694824</ele>
        <time>2012-01-07T10:12:59.000Z</time>
      </trkpt>
      <trkpt lat="43.48118" lon="6.88185">
        <ele>138.39999389648</ele>
        <time>2012-01-07T10:13:06.000Z</time>
      </trkpt>
      <trkpt lat="43.48119" lon="6.88171">
        <ele>139.80000305176</ele>
        <time>2012-01-07T10:13:12.000Z</time>
      </trkpt>
      <trkpt lat="43.48119" lon="6.88155">
        <ele>140.39999389648</ele>
        <time>2012-01-07T10:13:18.000Z</time>
      </trkpt>
      <trkpt lat="43.48122" lon="6.88128">
        <ele>140.80000305176</ele>
        <time>2012-01-07T10:13:26.000Z</time>
      </trkpt>
      <trkpt lat="43.48124" lon="6.8811">
        <ele>141.19999694824</ele>
        <time>2012-01-07T10:13:32.000Z</time>
      </trkpt>
      <trkpt lat="43.48132" lon="6.88086">
        <ele>141.80000305176</ele>
        <time>2012-01-07T10:13:40.000Z</time>
      </trkpt>
      <trkpt lat="43.48141" lon="6.88066">
        <ele>140.60000610352</ele>
        <time>2012-01-07T10:13:48.000Z</time>
      </trkpt>
      <trkpt lat="43.48143" lon="6.88059">
        <ele>140.19999694824</ele>
        <time>2012-01-07T10:13:51.000Z</time>
      </trkpt>
      <trkpt lat="43.48144" lon="6.88058">
        <ele>140.19999694824</ele>
        <time>2012-01-07T10:13:58.000Z</time>
      </trkpt>
      <trkpt lat="43.48147" lon="6.88059">
        <ele>140.60000610352</ele>
        <time>2012-01-07T10:14:18.000Z</time>
      </trkpt>
      <trkpt lat="43.48146" lon="6.88064">
        <ele>140.80000305176</ele>
        <time>2012-01-07T10:14:31.000Z</time>
      </trkpt>
      <trkpt lat="43.48144" lon="6.88057">
        <ele>140.19999694824</ele>
        <time>2012-01-07T10:15:24.000Z</time>
      </trkpt>
      <trkpt lat="43.48143" lon="6.88054">
        <ele>139.80000305176</ele>
        <time>2012-01-07T10:15:36.000Z</time>
      </trkpt>
      <trkpt lat="43.48139" lon="6.88062">
        <ele>140.19999694824</ele>
        <time>2012-01-07T10:16:06.000Z</time>
      </trkpt>
      <trkpt lat="43.48142" lon="6.88056">
        <ele>139.80000305176</ele>
        <time>2012-01-07T10:16:15.000Z</time>
      </trkpt>
      <trkpt lat="43.48144" lon="6.88055">
        <ele>140</ele>
        <time>2012-01-07T10:16:28.000Z</time>
      </trkpt>
      <trkpt lat="43.48139" lon="6.88057">
        <ele>139.60000610352</ele>
        <time>2012-01-07T10:16:44.000Z</time>
      </trkpt>
      <trkpt lat="43.48139" lon="6.8806">
        <ele>140</ele>
        <time>2012-01-07T10:17:09.000Z</time>
      </trkpt>
      <trkpt lat="43.48142" lon="6.88061">
        <ele>140.39999389648</ele>
        <time>2012-01-07T10:17:26.000Z</time>
      </trkpt>
      <trkpt lat="43.48143" lon="6.88053">
        <ele>139.80000305176</ele>
        <time>2012-01-07T10:18:05.000Z</time>
      </trkpt>
      <trkpt lat="43.48144" lon="6.88052">
        <ele>139.80000305176</ele>
        <time>2012-01-07T10:18:20.000Z</time>
      </trkpt>
      <trkpt lat="43.48147" lon="6.8805">
        <ele>140</ele>
        <time>2012-01-07T10:18:49.000Z</time>
      </trkpt>
      <trkpt lat="43.48146" lon="6.88049">
        <ele>140</ele>
        <time>2012-01-07T10:19:11.000Z</time>
      </trkpt>
      <trkpt lat="43.48149" lon="6.88049">
        <ele>140.19999694824</ele>
        <time>2012-01-07T10:19:26.000Z</time>
      </trkpt>
      <trkpt lat="43.4815" lon="6.8805">
        <ele>140.39999389648</ele>
        <time>2012-01-07T10:19:43.000Z</time>
      </trkpt>
      <trkpt lat="43.48152" lon="6.88051">
        <ele>140.60000610352</ele>
        <time>2012-01-07T10:19:58.000Z</time>
      </trkpt>
      <trkpt lat="43.48149" lon="6.8805">
        <ele>140.19999694824</ele>
        <time>2012-01-07T10:20:18.000Z</time>
      </trkpt>
      <trkpt lat="43.48145" lon="6.88058">
        <ele>140.39999389648</ele>
        <time>2012-01-07T10:22:13.000Z</time>
      </trkpt>
      <trkpt lat="43.48147" lon="6.88051">
        <ele>140</ele>
        <time>2012-01-07T10:22:23.000Z</time>
      </trkpt>
      <trkpt lat="43.4815" lon="6.88045">
        <ele>140.19999694824</ele>
        <time>2012-01-07T10:22:30.000Z</time>
      </trkpt>
      <trkpt lat="43.48152" lon="6.88041">
        <ele>140.19999694824</ele>
        <time>2012-01-07T10:22:36.000Z</time>
      </trkpt>
      <trkpt lat="43.48152" lon="6.8804">
        <ele>140.19999694824</ele>
        <time>2012-01-07T10:22:51.000Z</time>
      </trkpt>
      <trkpt lat="43.48153" lon="6.88041">
        <ele>140.39999389648</ele>
        <time>2012-01-07T10:22:57.000Z</time>
      </trkpt>
      <trkpt lat="43.48153" lon="6.88042">
        <ele>140.39999389648</ele>
        <time>2012-01-07T10:23:09.000Z</time>
      </trkpt>
      <trkpt lat="43.48152" lon="6.88045">
        <ele>140.39999389648</ele>
        <time>2012-01-07T10:24:09.000Z</time>
      </trkpt>
      <trkpt lat="43.48151" lon="6.88054">
        <ele>140.80000305176</ele>
        <time>2012-01-07T10:24:31.000Z</time>
      </trkpt>
      <trkpt lat="43.48153" lon="6.88042">
        <ele>140.39999389648</ele>
        <time>2012-01-07T10:25:22.000Z</time>
      </trkpt>
      <trkpt lat="43.48153" lon="6.8804">
        <ele>140.39999389648</ele>
        <time>2012-01-07T10:26:10.000Z</time>
      </trkpt>
      <trkpt lat="43.48153" lon="6.88041">
        <ele>140.39999389648</ele>
        <time>2012-01-07T10:26:19.000Z</time>
      </trkpt>
      <trkpt lat="43.48153" lon="6.8804">
        <ele>140.39999389648</ele>
        <time>2012-01-07T10:26:24.000Z</time>
      </trkpt>
      <trkpt lat="43.48154" lon="6.8804">
        <ele>140.60000610352</ele>
        <time>2012-01-07T10:26:31.000Z</time>
      </trkpt>
      <trkpt lat="43.48155" lon="6.88038">
        <ele>140.60000610352</ele>
        <time>2012-01-07T10:26:36.000Z</time>
      </trkpt>
      <trkpt lat="43.48156" lon="6.88032">
        <ele>140.60000610352</ele>
        <time>2012-01-07T10:26:42.000Z</time>
      </trkpt>
      <trkpt lat="43.48156" lon="6.8803">
        <ele>140.60000610352</ele>
        <time>2012-01-07T10:26:43.000Z</time>
      </trkpt>
      <trkpt lat="43.4816" lon="6.88012">
        <ele>141.19999694824</ele>
        <time>2012-01-07T10:26:51.000Z</time>
      </trkpt>
      <trkpt lat="43.48166" lon="6.87993">
        <ele>141.39999389648</ele>
        <time>2012-01-07T10:26:58.000Z</time>
      </trkpt>
      <trkpt lat="43.48172" lon="6.87979">
        <ele>141.39999389648</ele>
        <time>2012-01-07T10:27:04.000Z</time>
      </trkpt>
      <trkpt lat="43.4818" lon="6.87962">
        <ele>141.80000305176</ele>
        <time>2012-01-07T10:27:10.000Z</time>
      </trkpt>
      <trkpt lat="43.48191" lon="6.87938">
        <ele>143.19999694824</ele>
        <time>2012-01-07T10:27:18.000Z</time>
      </trkpt>
      <trkpt lat="43.48205" lon="6.87913">
        <ele>145.60000610352</ele>
        <time>2012-01-07T10:27:28.000Z</time>
      </trkpt>
      <trkpt lat="43.48214" lon="6.87893">
        <ele>144.80000305176</ele>
        <time>2012-01-07T10:27:35.000Z</time>
      </trkpt>
      <trkpt lat="43.4823" lon="6.87864">
        <ele>144</ele>
        <time>2012-01-07T10:27:45.000Z</time>
      </trkpt>
      <trkpt lat="43.48248" lon="6.87835">
        <ele>141.80000305176</ele>
        <time>2012-01-07T10:27:53.000Z</time>
      </trkpt>
      <trkpt lat="43.48264" lon="6.87819">
        <ele>140</ele>
        <time>2012-01-07T10:27:57.000Z</time>
      </trkpt>
      <trkpt lat="43.48289" lon="6.87811">
        <ele>141.39999389648</ele>
        <time>2012-01-07T10:28:02.000Z</time>
      </trkpt>
      <trkpt lat="43.48334" lon="6.87811">
        <ele>149</ele>
        <time>2012-01-07T10:28:11.000Z</time>
      </trkpt>
      <trkpt lat="43.48379" lon="6.87815">
        <ele>149</ele>
        <time>2012-01-07T10:28:20.000Z</time>
      </trkpt>
      <trkpt lat="43.48411" lon="6.87824">
        <ele>150.39999389648</ele>
        <time>2012-01-07T10:28:27.000Z</time>
      </trkpt>
      <trkpt lat="43.4843" lon="6.87828">
        <ele>150.19999694824</ele>
        <time>2012-01-07T10:28:32.000Z</time>
      </trkpt>
      <trkpt lat="43.48445" lon="6.87833">
        <ele>150</ele>
        <time>2012-01-07T10:28:36.000Z</time>
      </trkpt>
      <trkpt lat="43.48476" lon="6.87845">
        <ele>151.39999389648</ele>
        <time>2012-01-07T10:28:44.000Z</time>
      </trkpt>
      <trkpt lat="43.48506" lon="6.8785">
        <ele>150.19999694824</ele>
        <time>2012-01-07T10:28:52.000Z</time>
      </trkpt>
      <trkpt lat="43.48528" lon="6.87851">
        <ele>149.19999694824</ele>
        <time>2012-01-07T10:28:59.000Z</time>
      </trkpt>
      <trkpt lat="43.48552" lon="6.87861">
        <ele>149.60000610352</ele>
        <time>2012-01-07T10:29:07.000Z</time>
      </trkpt>
      <trkpt lat="43.48576" lon="6.87877">
        <ele>150.19999694824</ele>
        <time>2012-01-07T10:29:16.000Z</time>
      </trkpt>
      <trkpt lat="43.48599" lon="6.87899">
        <ele>153.39999389648</ele>
        <time>2012-01-07T10:29:26.000Z</time>
      </trkpt>
      <trkpt lat="43.48611" lon="6.87898">
        <ele>154</ele>
        <time>2012-01-07T10:29:31.000Z</time>
      </trkpt>
      <trkpt lat="43.48624" lon="6.87884">
        <ele>154.19999694824</ele>
        <time>2012-01-07T10:29:38.000Z</time>
      </trkpt>
      <trkpt lat="43.48629" lon="6.87865">
        <ele>154.19999694824</ele>
        <time>2012-01-07T10:29:43.000Z</time>
      </trkpt>
      <trkpt lat="43.48631" lon="6.87823">
        <ele>153.39999389648</ele>
        <time>2012-01-07T10:29:51.000Z</time>
      </trkpt>
      <trkpt lat="43.48633" lon="6.87794">
        <ele>152.39999389648</ele>
        <time>2012-01-07T10:29:58.000Z</time>
      </trkpt>
      <trkpt lat="43.48634" lon="6.87754">
        <ele>150.60000610352</ele>
        <time>2012-01-07T10:30:08.000Z</time>
      </trkpt>
      <trkpt lat="43.48632" lon="6.87713">
        <ele>148.60000610352</ele>
        <time>2012-01-07T10:30:17.000Z</time>
      </trkpt>
      <trkpt lat="43.48633" lon="6.87675">
        <ele>147.60000610352</ele>
        <time>2012-01-07T10:30:24.000Z</time>
      </trkpt>
      <trkpt lat="43.4863" lon="6.87652">
        <ele>146.19999694824</ele>
        <time>2012-01-07T10:30:28.000Z</time>
      </trkpt>
      <trkpt lat="43.48624" lon="6.87634">
        <ele>144.80000305176</ele>
        <time>2012-01-07T10:30:31.000Z</time>
      </trkpt>
      <trkpt lat="43.48623" lon="6.876">
        <ele>144.19999694824</ele>
        <time>2012-01-07T10:30:36.000Z</time>
      </trkpt>
      <trkpt lat="43.48636" lon="6.87578">
        <ele>145.19999694824</ele>
        <time>2012-01-07T10:30:40.000Z</time>
      </trkpt>
      <trkpt lat="43.48644" lon="6.87569">
        <ele>145.80000305176</ele>
        <time>2012-01-07T10:30:42.000Z</time>
      </trkpt>
      <trkpt lat="43.48654" lon="6.87552">
        <ele>146</ele>
        <time>2012-01-07T10:30:45.000Z</time>
      </trkpt>
      <trkpt lat="43.48664" lon="6.87514">
        <ele>144</ele>
        <time>2012-01-07T10:30:51.000Z</time>
      </trkpt>
      <trkpt lat="43.4866" lon="6.875">
        <ele>143.80000305176</ele>
        <time>2012-01-07T10:30:54.000Z</time>
      </trkpt>
      <trkpt lat="43.48655" lon="6.87493">
        <ele>144.80000305176</ele>
        <time>2012-01-07T10:30:56.000Z</time>
      </trkpt>
      <trkpt lat="43.48644" lon="6.87473">
        <ele>147.19999694824</ele>
        <time>2012-01-07T10:31:01.000Z</time>
      </trkpt>
      <trkpt lat="43.48644" lon="6.87457">
        <ele>148</ele>
        <time>2012-01-07T10:31:07.000Z</time>
      </trkpt>
      <trkpt lat="43.48643" lon="6.87442">
        <ele>149</ele>
        <time>2012-01-07T10:31:15.000Z</time>
      </trkpt>
      <trkpt lat="43.48642" lon="6.87426">
        <ele>150</ele>
        <time>2012-01-07T10:31:22.000Z</time>
      </trkpt>
      <trkpt lat="43.48637" lon="6.87411">
        <ele>151.80000305176</ele>
        <time>2012-01-07T10:31:28.000Z</time>
      </trkpt>
      <trkpt lat="43.48634" lon="6.87396">
        <ele>152.60000610352</ele>
        <time>2012-01-07T10:31:34.000Z</time>
      </trkpt>
      <trkpt lat="43.48633" lon="6.87394">
        <ele>152.80000305176</ele>
        <time>2012-01-07T10:31:35.000Z</time>
      </trkpt>
      <trkpt lat="43.48631" lon="6.87392">
        <ele>153.39999389648</ele>
        <time>2012-01-07T10:31:37.000Z</time>
      </trkpt>
      <trkpt lat="43.48626" lon="6.87397">
        <ele>154.60000610352</ele>
        <time>2012-01-07T10:31:42.000Z</time>
      </trkpt>
      <trkpt lat="43.48626" lon="6.87401">
        <ele>154.60000610352</ele>
        <time>2012-01-07T10:31:44.000Z</time>
      </trkpt>
      <trkpt lat="43.4863" lon="6.87422">
        <ele>153.39999389648</ele>
        <time>2012-01-07T10:31:53.000Z</time>
      </trkpt>
      <trkpt lat="43.48629" lon="6.87441">
        <ele>152.19999694824</ele>
        <time>2012-01-07T10:32:00.000Z</time>
      </trkpt>
      <trkpt lat="43.48625" lon="6.87462">
        <ele>151.39999389648</ele>
        <time>2012-01-07T10:32:08.000Z</time>
      </trkpt>
      <trkpt lat="43.48621" lon="6.87471">
        <ele>151.39999389648</ele>
        <time>2012-01-07T10:32:12.000Z</time>
      </trkpt>
      <trkpt lat="43.48614" lon="6.87467">
        <ele>153.19999694824</ele>
        <time>2012-01-07T10:32:17.000Z</time>
      </trkpt>
      <trkpt lat="43.48614" lon="6.8746">
        <ele>153.60000610352</ele>
        <time>2012-01-07T10:32:19.000Z</time>
      </trkpt>
      <trkpt lat="43.48618" lon="6.8743">
        <ele>155.60000610352</ele>
        <time>2012-01-07T10:32:29.000Z</time>
      </trkpt>
      <trkpt lat="43.48613" lon="6.87408">
        <ele>158</ele>
        <time>2012-01-07T10:32:37.000Z</time>
      </trkpt>
      <trkpt lat="43.48606" lon="6.87388">
        <ele>159.39999389648</ele>
        <time>2012-01-07T10:32:45.000Z</time>
      </trkpt>
      <trkpt lat="43.48601" lon="6.87371">
        <ele>160.19999694824</ele>
        <time>2012-01-07T10:32:52.000Z</time>
      </trkpt>
      <trkpt lat="43.48596" lon="6.87355">
        <ele>161</ele>
        <time>2012-01-07T10:32:58.000Z</time>
      </trkpt>
      <trkpt lat="43.48589" lon="6.87339">
        <ele>162</ele>
        <time>2012-01-07T10:33:04.000Z</time>
      </trkpt>
      <trkpt lat="43.4858" lon="6.87317">
        <ele>162.60000610352</ele>
        <time>2012-01-07T10:33:12.000Z</time>
      </trkpt>
      <trkpt lat="43.48573" lon="6.87305">
        <ele>163.80000305176</ele>
        <time>2012-01-07T10:33:17.000Z</time>
      </trkpt>
      <trkpt lat="43.48565" lon="6.87295">
        <ele>165</ele>
        <time>2012-01-07T10:33:22.000Z</time>
      </trkpt>
      <trkpt lat="43.48558" lon="6.87284">
        <ele>165.80000305176</ele>
        <time>2012-01-07T10:33:27.000Z</time>
      </trkpt>
      <trkpt lat="43.48545" lon="6.87271">
        <ele>167.80000305176</ele>
        <time>2012-01-07T10:33:33.000Z</time>
      </trkpt>
      <trkpt lat="43.48534" lon="6.87263">
        <ele>169.60000610352</ele>
        <time>2012-01-07T10:33:38.000Z</time>
      </trkpt>
      <trkpt lat="43.48521" lon="6.87258">
        <ele>172.19999694824</ele>
        <time>2012-01-07T10:33:43.000Z</time>
      </trkpt>
      <trkpt lat="43.48505" lon="6.87249">
        <ele>174.80000305176</ele>
        <time>2012-01-07T10:33:50.000Z</time>
      </trkpt>
      <trkpt lat="43.48493" lon="6.87236">
        <ele>175.19999694824</ele>
        <time>2012-01-07T10:33:56.000Z</time>
      </trkpt>
      <trkpt lat="43.48478" lon="6.87222">
        <ele>176</ele>
        <time>2012-01-07T10:34:03.000Z</time>
      </trkpt>
      <trkpt lat="43.48461" lon="6.87209">
        <ele>177.39999389648</ele>
        <time>2012-01-07T10:34:11.000Z</time>
      </trkpt>
      <trkpt lat="43.48445" lon="6.87196">
        <ele>178.80000305176</ele>
        <time>2012-01-07T10:34:20.000Z</time>
      </trkpt>
      <trkpt lat="43.4843" lon="6.87184">
        <ele>180.19999694824</ele>
        <time>2012-01-07T10:34:28.000Z</time>
      </trkpt>
      <trkpt lat="43.48417" lon="6.8717">
        <ele>181.39999389648</ele>
        <time>2012-01-07T10:34:36.000Z</time>
      </trkpt>
      <trkpt lat="43.48404" lon="6.87156">
        <ele>182.39999389648</ele>
        <time>2012-01-07T10:34:43.000Z</time>
      </trkpt>
      <trkpt lat="43.48381" lon="6.8713">
        <ele>185.39999389648</ele>
        <time>2012-01-07T10:34:55.000Z</time>
      </trkpt>
      <trkpt lat="43.48364" lon="6.87111">
        <ele>188.60000610352</ele>
        <time>2012-01-07T10:35:04.000Z</time>
      </trkpt>
      <trkpt lat="43.48349" lon="6.87091">
        <ele>191.80000305176</ele>
        <time>2012-01-07T10:35:13.000Z</time>
      </trkpt>
      <trkpt lat="43.4834" lon="6.87069">
        <ele>195.19999694824</ele>
        <time>2012-01-07T10:35:21.000Z</time>
      </trkpt>
      <trkpt lat="43.48338" lon="6.87048">
        <ele>197.19999694824</ele>
        <time>2012-01-07T10:35:27.000Z</time>
      </trkpt>
      <trkpt lat="43.48342" lon="6.87029">
        <ele>198.39999389648</ele>
        <time>2012-01-07T10:35:33.000Z</time>
      </trkpt>
      <trkpt lat="43.4835" lon="6.87008">
        <ele>199.60000610352</ele>
        <time>2012-01-07T10:35:40.000Z</time>
      </trkpt>
      <trkpt lat="43.48361" lon="6.86987">
        <ele>200.80000305176</ele>
        <time>2012-01-07T10:35:48.000Z</time>
      </trkpt>
      <trkpt lat="43.48369" lon="6.86972">
        <ele>201.19999694824</ele>
        <time>2012-01-07T10:35:54.000Z</time>
      </trkpt>
      <trkpt lat="43.48382" lon="6.86958">
        <ele>201.19999694824</ele>
        <time>2012-01-07T10:36:00.000Z</time>
      </trkpt>
      <trkpt lat="43.48396" lon="6.86953">
        <ele>200.19999694824</ele>
        <time>2012-01-07T10:36:05.000Z</time>
      </trkpt>
      <trkpt lat="43.48407" lon="6.86948">
        <ele>199.60000610352</ele>
        <time>2012-01-07T10:36:09.000Z</time>
      </trkpt>
      <trkpt lat="43.48407" lon="6.86933">
        <ele>200.60000610352</ele>
        <time>2012-01-07T10:36:14.000Z</time>
      </trkpt>
      <trkpt lat="43.48405" lon="6.86931">
        <ele>201</ele>
        <time>2012-01-07T10:36:15.000Z</time>
      </trkpt>
      <trkpt lat="43.48397" lon="6.86917">
        <ele>202.80000305176</ele>
        <time>2012-01-07T10:36:22.000Z</time>
      </trkpt>
      <trkpt lat="43.48399" lon="6.86913">
        <ele>202.39999389648</ele>
        <time>2012-01-07T10:36:27.000Z</time>
      </trkpt>
      <trkpt lat="43.48398" lon="6.86913">
        <ele>202.39999389648</ele>
        <time>2012-01-07T10:36:34.000Z</time>
      </trkpt>
      <trkpt lat="43.48398" lon="6.86911">
        <ele>202.39999389648</ele>
        <time>2012-01-07T10:36:44.000Z</time>
      </trkpt>
      <trkpt lat="43.484" lon="6.86912">
        <ele>202.19999694824</ele>
        <time>2012-01-07T10:36:50.000Z</time>
      </trkpt>
      <trkpt lat="43.484" lon="6.86913">
        <ele>202.19999694824</ele>
        <time>2012-01-07T10:37:09.000Z</time>
      </trkpt>
      <trkpt lat="43.484" lon="6.86915">
        <ele>202.39999389648</ele>
        <time>2012-01-07T10:37:36.000Z</time>
      </trkpt>
      <trkpt lat="43.484" lon="6.86915">
        <ele>202.39999389648</ele>
        <time>2012-01-07T10:37:43.000Z</time>
      </trkpt>
      <trkpt lat="43.48401" lon="6.86915">
        <ele>202.39999389648</ele>
        <time>2012-01-07T10:37:47.000Z</time>
      </trkpt>
      <trkpt lat="43.48398" lon="6.86915">
        <ele>202.60000610352</ele>
        <time>2012-01-07T10:37:53.000Z</time>
      </trkpt>
      <trkpt lat="43.48398" lon="6.86914">
        <ele>202.60000610352</ele>
        <time>2012-01-07T10:38:00.000Z</time>
      </trkpt>
      <trkpt lat="43.48398" lon="6.86915">
        <ele>202.60000610352</ele>
        <time>2012-01-07T10:38:06.000Z</time>
      </trkpt>
      <trkpt lat="43.48399" lon="6.86914">
        <ele>202.60000610352</ele>
        <time>2012-01-07T10:38:18.000Z</time>
      </trkpt>
      <trkpt lat="43.484" lon="6.86915">
        <ele>202.39999389648</ele>
        <time>2012-01-07T10:38:58.000Z</time>
      </trkpt>
      <trkpt lat="43.48403" lon="6.86916">
        <ele>202.19999694824</ele>
        <time>2012-01-07T10:39:45.000Z</time>
      </trkpt>
      <trkpt lat="43.484" lon="6.86915">
        <ele>202.39999389648</ele>
        <time>2012-01-07T10:40:11.000Z</time>
      </trkpt>
      <trkpt lat="43.48401" lon="6.86915">
        <ele>202.39999389648</ele>
        <time>2012-01-07T10:40:19.000Z</time>
      </trkpt>
      <trkpt lat="43.48401" lon="6.86914">
        <ele>202.19999694824</ele>
        <time>2012-01-07T10:40:30.000Z</time>
      </trkpt>
      <trkpt lat="43.48399" lon="6.86911">
        <ele>202.19999694824</ele>
        <time>2012-01-07T10:40:47.000Z</time>
      </trkpt>
      <trkpt lat="43.48399" lon="6.8691">
        <ele>202.19999694824</ele>
        <time>2012-01-07T10:40:54.000Z</time>
      </trkpt>
      <trkpt lat="43.48398" lon="6.8691">
        <ele>202.19999694824</ele>
        <time>2012-01-07T10:41:01.000Z</time>
      </trkpt>
      <trkpt lat="43.48398" lon="6.86911">
        <ele>202.39999389648</ele>
        <time>2012-01-07T10:41:12.000Z</time>
      </trkpt>
      <trkpt lat="43.48399" lon="6.8691">
        <ele>202.19999694824</ele>
        <time>2012-01-07T10:41:19.000Z</time>
      </trkpt>
      <trkpt lat="43.48399" lon="6.8691">
        <ele>202.19999694824</ele>
        <time>2012-01-07T10:41:35.000Z</time>
      </trkpt>
      <trkpt lat="43.48402" lon="6.86912">
        <ele>202</ele>
        <time>2012-01-07T10:42:35.000Z</time>
      </trkpt>
      <trkpt lat="43.48401" lon="6.86914">
        <ele>202.19999694824</ele>
        <time>2012-01-07T10:43:05.000Z</time>
      </trkpt>
      <trkpt lat="43.48402" lon="6.86916">
        <ele>202.39999389648</ele>
        <time>2012-01-07T10:43:25.000Z</time>
      </trkpt>
      <trkpt lat="43.48402" lon="6.86916">
        <ele>202.39999389648</ele>
        <time>2012-01-07T10:43:35.000Z</time>
      </trkpt>
      <trkpt lat="43.48401" lon="6.86915">
        <ele>202.39999389648</ele>
        <time>2012-01-07T10:43:40.000Z</time>
      </trkpt>
      <trkpt lat="43.48398" lon="6.86909">
        <ele>202.19999694824</ele>
        <time>2012-01-07T10:44:14.000Z</time>
      </trkpt>
      <trkpt lat="43.48399" lon="6.86906">
        <ele>201.80000305176</ele>
        <time>2012-01-07T10:44:16.000Z</time>
      </trkpt>
      <trkpt lat="43.48409" lon="6.86898">
        <ele>200.19999694824</ele>
        <time>2012-01-07T10:44:23.000Z</time>
      </trkpt>
      <trkpt lat="43.48424" lon="6.86894">
        <ele>199.19999694824</ele>
        <time>2012-01-07T10:44:31.000Z</time>
      </trkpt>
      <trkpt lat="43.48441" lon="6.86897">
        <ele>199.80000305176</ele>
        <time>2012-01-07T10:44:38.000Z</time>
      </trkpt>
      <trkpt lat="43.48467" lon="6.869">
        <ele>200.39999389648</ele>
        <time>2012-01-07T10:44:46.000Z</time>
      </trkpt>
      <trkpt lat="43.48497" lon="6.86899">
        <ele>200.80000305176</ele>
        <time>2012-01-07T10:44:56.000Z</time>
      </trkpt>
      <trkpt lat="43.48519" lon="6.86889">
        <ele>199.60000610352</ele>
        <time>2012-01-07T10:45:03.000Z</time>
      </trkpt>
      <trkpt lat="43.48544" lon="6.86872">
        <ele>199</ele>
        <time>2012-01-07T10:45:11.000Z</time>
      </trkpt>
      <trkpt lat="43.48564" lon="6.86854">
        <ele>199.80000305176</ele>
        <time>2012-01-07T10:45:18.000Z</time>
      </trkpt>
      <trkpt lat="43.48582" lon="6.86837">
        <ele>201.39999389648</ele>
        <time>2012-01-07T10:45:24.000Z</time>
      </trkpt>
      <trkpt lat="43.48609" lon="6.86817">
        <ele>200</ele>
        <time>2012-01-07T10:45:32.000Z</time>
      </trkpt>
      <trkpt lat="43.48634" lon="6.86796">
        <ele>199.19999694824</ele>
        <time>2012-01-07T10:45:41.000Z</time>
      </trkpt>
      <trkpt lat="43.48654" lon="6.86775">
        <ele>199.80000305176</ele>
        <time>2012-01-07T10:45:49.000Z</time>
      </trkpt>
      <trkpt lat="43.48674" lon="6.86758">
        <ele>201.60000610352</ele>
        <time>2012-01-07T10:45:56.000Z</time>
      </trkpt>
      <trkpt lat="43.48696" lon="6.86748">
        <ele>203.60000610352</ele>
        <time>2012-01-07T10:46:03.000Z</time>
      </trkpt>
      <trkpt lat="43.48715" lon="6.86752">
        <ele>204.80000305176</ele>
        <time>2012-01-07T10:46:09.000Z</time>
      </trkpt>
      <trkpt lat="43.48732" lon="6.86766">
        <ele>204.19999694824</ele>
        <time>2012-01-07T10:46:16.000Z</time>
      </trkpt>
      <trkpt lat="43.48751" lon="6.86787">
        <ele>203.19999694824</ele>
        <time>2012-01-07T10:46:24.000Z</time>
      </trkpt>
      <trkpt lat="43.48768" lon="6.86805">
        <ele>206.80000305176</ele>
        <time>2012-01-07T10:46:32.000Z</time>
      </trkpt>
      <trkpt lat="43.48769" lon="6.86806">
        <ele>207</ele>
        <time>2012-01-07T10:46:39.000Z</time>
      </trkpt>
      <trkpt lat="43.48769" lon="6.86805">
        <ele>207.19999694824</ele>
        <time>2012-01-07T10:47:30.000Z</time>
      </trkpt>
      <trkpt lat="43.48768" lon="6.86806">
        <ele>206.60000610352</ele>
        <time>2012-01-07T10:47:53.000Z</time>
      </trkpt>
      <trkpt lat="43.48767" lon="6.86806">
        <ele>206.19999694824</ele>
        <time>2012-01-07T10:48:29.000Z</time>
      </trkpt>
      <trkpt lat="43.48769" lon="6.86808">
        <ele>206.60000610352</ele>
        <time>2012-01-07T10:48:52.000Z</time>
      </trkpt>
      <trkpt lat="43.4877" lon="6.86809">
        <ele>206.80000305176</ele>
        <time>2012-01-07T10:48:53.000Z</time>
      </trkpt>
      <trkpt lat="43.48783" lon="6.86824">
        <ele>209.60000610352</ele>
        <time>2012-01-07T10:49:01.000Z</time>
      </trkpt>
      <trkpt lat="43.48798" lon="6.86843">
        <ele>212</ele>
        <time>2012-01-07T10:49:10.000Z</time>
      </trkpt>
      <trkpt lat="43.48814" lon="6.86868">
        <ele>213.39999389648</ele>
        <time>2012-01-07T10:49:20.000Z</time>
      </trkpt>
      <trkpt lat="43.48829" lon="6.86897">
        <ele>214.39999389648</ele>
        <time>2012-01-07T10:49:30.000Z</time>
      </trkpt>
      <trkpt lat="43.48839" lon="6.86922">
        <ele>215</ele>
        <time>2012-01-07T10:49:39.000Z</time>
      </trkpt>
      <trkpt lat="43.48849" lon="6.86952">
        <ele>216.39999389648</ele>
        <time>2012-01-07T10:49:49.000Z</time>
      </trkpt>
      <trkpt lat="43.48861" lon="6.86978">
        <ele>218.80000305176</ele>
        <time>2012-01-07T10:49:59.000Z</time>
      </trkpt>
      <trkpt lat="43.4887" lon="6.87003">
        <ele>219.60000610352</ele>
        <time>2012-01-07T10:50:08.000Z</time>
      </trkpt>
      <trkpt lat="43.48874" lon="6.87026">
        <ele>220</ele>
        <time>2012-01-07T10:50:16.000Z</time>
      </trkpt>
      <trkpt lat="43.48879" lon="6.8705">
        <ele>220.39999389648</ele>
        <time>2012-01-07T10:50:24.000Z</time>
      </trkpt>
      <trkpt lat="43.48885" lon="6.87087">
        <ele>220.39999389648</ele>
        <time>2012-01-07T10:50:35.000Z</time>
      </trkpt>
      <trkpt lat="43.48893" lon="6.87113">
        <ele>221.60000610352</ele>
        <time>2012-01-07T10:50:44.000Z</time>
      </trkpt>
      <trkpt lat="43.48903" lon="6.8714">
        <ele>222.80000305176</ele>
        <time>2012-01-07T10:50:54.000Z</time>
      </trkpt>
      <trkpt lat="43.48912" lon="6.87172">
        <ele>223.19999694824</ele>
        <time>2012-01-07T10:51:05.000Z</time>
      </trkpt>
      <trkpt lat="43.48915" lon="6.87198">
        <ele>222.60000610352</ele>
        <time>2012-01-07T10:51:13.000Z</time>
      </trkpt>
      <trkpt lat="43.48922" lon="6.87229">
        <ele>222.80000305176</ele>
        <time>2012-01-07T10:51:22.000Z</time>
      </trkpt>
      <trkpt lat="43.48936" lon="6.87264">
        <ele>224</ele>
        <time>2012-01-07T10:51:34.000Z</time>
      </trkpt>
      <trkpt lat="43.4895" lon="6.87288">
        <ele>224.60000610352</ele>
        <time>2012-01-07T10:51:44.000Z</time>
      </trkpt>
      <trkpt lat="43.48962" lon="6.87308">
        <ele>225</ele>
        <time>2012-01-07T10:51:53.000Z</time>
      </trkpt>
      <trkpt lat="43.48977" lon="6.8732">
        <ele>226.60000610352</ele>
        <time>2012-01-07T10:52:01.000Z</time>
      </trkpt>
      <trkpt lat="43.4899" lon="6.87316">
        <ele>229.80000305176</ele>
        <time>2012-01-07T10:52:07.000Z</time>
      </trkpt>
      <trkpt lat="43.49001" lon="6.87306">
        <ele>233.80000305176</ele>
        <time>2012-01-07T10:52:13.000Z</time>
      </trkpt>
      <trkpt lat="43.49009" lon="6.87308">
        <ele>235</ele>
        <time>2012-01-07T10:52:18.000Z</time>
      </trkpt>
      <trkpt lat="43.49018" lon="6.87322">
        <ele>234.19999694824</ele>
        <time>2012-01-07T10:52:27.000Z</time>
      </trkpt>
      <trkpt lat="43.49027" lon="6.87334">
        <ele>233.80000305176</ele>
        <time>2012-01-07T10:52:34.000Z</time>
      </trkpt>
      <trkpt lat="43.49038" lon="6.87347">
        <ele>233</ele>
        <time>2012-01-07T10:52:42.000Z</time>
      </trkpt>
      <trkpt lat="43.49049" lon="6.87366">
        <ele>231.39999389648</ele>
        <time>2012-01-07T10:52:50.000Z</time>
      </trkpt>
      <trkpt lat="43.49061" lon="6.87383">
        <ele>229.80000305176</ele>
        <time>2012-01-07T10:52:58.000Z</time>
      </trkpt>
      <trkpt lat="43.49074" lon="6.87394">
        <ele>229.39999389648</ele>
        <time>2012-01-07T10:53:05.000Z</time>
      </trkpt>
      <trkpt lat="43.49091" lon="6.87397">
        <ele>228.39999389648</ele>
        <time>2012-01-07T10:53:12.000Z</time>
      </trkpt>
      <trkpt lat="43.49106" lon="6.87386">
        <ele>227.19999694824</ele>
        <time>2012-01-07T10:53:19.000Z</time>
      </trkpt>
      <trkpt lat="43.49122" lon="6.87366">
        <ele>228.80000305176</ele>
        <time>2012-01-07T10:53:28.000Z</time>
      </trkpt>
      <trkpt lat="43.49136" lon="6.87349">
        <ele>230.19999694824</ele>
        <time>2012-01-07T10:53:36.000Z</time>
      </trkpt>
      <trkpt lat="43.49151" lon="6.87335">
        <ele>231.39999389648</ele>
        <time>2012-01-07T10:53:44.000Z</time>
      </trkpt>
      <trkpt lat="43.49165" lon="6.87318">
        <ele>232.19999694824</ele>
        <time>2012-01-07T10:53:52.000Z</time>
      </trkpt>
      <trkpt lat="43.4918" lon="6.87293">
        <ele>233.60000610352</ele>
        <time>2012-01-07T10:54:02.000Z</time>
      </trkpt>
      <trkpt lat="43.49189" lon="6.87268">
        <ele>236.19999694824</ele>
        <time>2012-01-07T10:54:11.000Z</time>
      </trkpt>
      <trkpt lat="43.49196" lon="6.87244">
        <ele>238.39999389648</ele>
        <time>2012-01-07T10:54:19.000Z</time>
      </trkpt>
      <trkpt lat="43.49207" lon="6.87207">
        <ele>238.80000305176</ele>
        <time>2012-01-07T10:54:30.000Z</time>
      </trkpt>
      <trkpt lat="43.49217" lon="6.87167">
        <ele>240.80000305176</ele>
        <time>2012-01-07T10:54:42.000Z</time>
      </trkpt>
      <trkpt lat="43.49217" lon="6.87134">
        <ele>241.60000610352</ele>
        <time>2012-01-07T10:54:52.000Z</time>
      </trkpt>
      <trkpt lat="43.49211" lon="6.87107">
        <ele>242.80000305176</ele>
        <time>2012-01-07T10:55:01.000Z</time>
      </trkpt>
      <trkpt lat="43.49201" lon="6.87094">
        <ele>244</ele>
        <time>2012-01-07T10:55:07.000Z</time>
      </trkpt>
      <trkpt lat="43.49187" lon="6.87083">
        <ele>245.39999389648</ele>
        <time>2012-01-07T10:55:13.000Z</time>
      </trkpt>
      <trkpt lat="43.49188" lon="6.87065">
        <ele>245.80000305176</ele>
        <time>2012-01-07T10:55:18.000Z</time>
      </trkpt>
      <trkpt lat="43.4919" lon="6.87062">
        <ele>245.80000305176</ele>
        <time>2012-01-07T10:55:19.000Z</time>
      </trkpt>
      <trkpt lat="43.49206" lon="6.87048">
        <ele>245</ele>
        <time>2012-01-07T10:55:27.000Z</time>
      </trkpt>
      <trkpt lat="43.49226" lon="6.87041">
        <ele>243.60000610352</ele>
        <time>2012-01-07T10:55:34.000Z</time>
      </trkpt>
      <trkpt lat="43.49245" lon="6.87045">
        <ele>241.80000305176</ele>
        <time>2012-01-07T10:55:41.000Z</time>
      </trkpt>
      <trkpt lat="43.49257" lon="6.87054">
        <ele>241.39999389648</ele>
        <time>2012-01-07T10:55:47.000Z</time>
      </trkpt>
      <trkpt lat="43.49273" lon="6.87064">
        <ele>241.80000305176</ele>
        <time>2012-01-07T10:55:55.000Z</time>
      </trkpt>
      <trkpt lat="43.49291" lon="6.87069">
        <ele>242.39999389648</ele>
        <time>2012-01-07T10:56:02.000Z</time>
      </trkpt>
      <trkpt lat="43.4931" lon="6.87067">
        <ele>243.39999389648</ele>
        <time>2012-01-07T10:56:09.000Z</time>
      </trkpt>
      <trkpt lat="43.4932" lon="6.87059">
        <ele>243.60000610352</ele>
        <time>2012-01-07T10:56:14.000Z</time>
      </trkpt>
      <trkpt lat="43.49335" lon="6.87049">
        <ele>244</ele>
        <time>2012-01-07T10:56:23.000Z</time>
      </trkpt>
      <trkpt lat="43.49344" lon="6.87046">
        <ele>244.60000610352</ele>
        <time>2012-01-07T10:56:29.000Z</time>
      </trkpt>
      <trkpt lat="43.49356" lon="6.8705">
        <ele>245.60000610352</ele>
        <time>2012-01-07T10:56:36.000Z</time>
      </trkpt>
      <trkpt lat="43.49363" lon="6.8706">
        <ele>246.80000305176</ele>
        <time>2012-01-07T10:56:42.000Z</time>
      </trkpt>
      <trkpt lat="43.4937" lon="6.87075">
        <ele>248.39999389648</ele>
        <time>2012-01-07T10:56:51.000Z</time>
      </trkpt>
      <trkpt lat="43.49374" lon="6.87088">
        <ele>249.60000610352</ele>
        <time>2012-01-07T10:56:59.000Z</time>
      </trkpt>
      <trkpt lat="43.49378" lon="6.87101">
        <ele>250.19999694824</ele>
        <time>2012-01-07T10:57:07.000Z</time>
      </trkpt>
      <trkpt lat="43.49384" lon="6.87121">
        <ele>251.60000610352</ele>
        <time>2012-01-07T10:57:17.000Z</time>
      </trkpt>
      <trkpt lat="43.49392" lon="6.87139">
        <ele>253.19999694824</ele>
        <time>2012-01-07T10:57:26.000Z</time>
      </trkpt>
      <trkpt lat="43.49405" lon="6.87157">
        <ele>255.80000305176</ele>
        <time>2012-01-07T10:57:36.000Z</time>
      </trkpt>
      <trkpt lat="43.49414" lon="6.87171">
        <ele>257</ele>
        <time>2012-01-07T10:57:44.000Z</time>
      </trkpt>
      <trkpt lat="43.49421" lon="6.87188">
        <ele>256.60000610352</ele>
        <time>2012-01-07T10:57:53.000Z</time>
      </trkpt>
      <trkpt lat="43.49429" lon="6.87206">
        <ele>256.60000610352</ele>
        <time>2012-01-07T10:58:02.000Z</time>
      </trkpt>
      <trkpt lat="43.49432" lon="6.87216">
        <ele>256.60000610352</ele>
        <time>2012-01-07T10:58:09.000Z</time>
      </trkpt>
      <trkpt lat="43.49436" lon="6.87227">
        <ele>256.60000610352</ele>
        <time>2012-01-07T10:58:15.000Z</time>
      </trkpt>
      <trkpt lat="43.49444" lon="6.87244">
        <ele>257.60000610352</ele>
        <time>2012-01-07T10:58:23.000Z</time>
      </trkpt>
      <trkpt lat="43.49454" lon="6.87259">
        <ele>259.20001220703</ele>
        <time>2012-01-07T10:58:31.000Z</time>
      </trkpt>
      <trkpt lat="43.49461" lon="6.87272">
        <ele>259.79998779297</ele>
        <time>2012-01-07T10:58:37.000Z</time>
      </trkpt>
      <trkpt lat="43.4947" lon="6.87288">
        <ele>260.39999389648</ele>
        <time>2012-01-07T10:58:45.000Z</time>
      </trkpt>
      <trkpt lat="43.49476" lon="6.87302">
        <ele>260.60000610352</ele>
        <time>2012-01-07T10:58:52.000Z</time>
      </trkpt>
      <trkpt lat="43.49482" lon="6.87316">
        <ele>260.79998779297</ele>
        <time>2012-01-07T10:58:59.000Z</time>
      </trkpt>
      <trkpt lat="43.49488" lon="6.87332">
        <ele>260.79998779297</ele>
        <time>2012-01-07T10:59:05.000Z</time>
      </trkpt>
      <trkpt lat="43.49494" lon="6.87351">
        <ele>263.60000610352</ele>
        <time>2012-01-07T10:59:12.000Z</time>
      </trkpt>
      <trkpt lat="43.49498" lon="6.87372">
        <ele>265.79998779297</ele>
        <time>2012-01-07T10:59:19.000Z</time>
      </trkpt>
      <trkpt lat="43.49498" lon="6.87392">
        <ele>266.39999389648</ele>
        <time>2012-01-07T10:59:25.000Z</time>
      </trkpt>
      <trkpt lat="43.49493" lon="6.87402">
        <ele>265.60000610352</ele>
        <time>2012-01-07T10:59:29.000Z</time>
      </trkpt>
      <trkpt lat="43.49488" lon="6.87417">
        <ele>265</ele>
        <time>2012-01-07T10:59:36.000Z</time>
      </trkpt>
      <trkpt lat="43.49471" lon="6.87426">
        <ele>262.79998779297</ele>
        <time>2012-01-07T10:59:43.000Z</time>
      </trkpt>
      <trkpt lat="43.49451" lon="6.87434">
        <ele>259.60000610352</ele>
        <time>2012-01-07T10:59:50.000Z</time>
      </trkpt>
      <trkpt lat="43.49434" lon="6.87441">
        <ele>256.79998779297</ele>
        <time>2012-01-07T10:59:56.000Z</time>
      </trkpt>
      <trkpt lat="43.49419" lon="6.87448">
        <ele>254.80000305176</ele>
        <time>2012-01-07T11:00:02.000Z</time>
      </trkpt>
      <trkpt lat="43.49406" lon="6.87464">
        <ele>254.60000610352</ele>
        <time>2012-01-07T11:00:09.000Z</time>
      </trkpt>
      <trkpt lat="43.49396" lon="6.8749">
        <ele>257.39999389648</ele>
        <time>2012-01-07T11:00:17.000Z</time>
      </trkpt>
      <trkpt lat="43.49392" lon="6.87527">
        <ele>261.79998779297</ele>
        <time>2012-01-07T11:00:26.000Z</time>
      </trkpt>
      <trkpt lat="43.49388" lon="6.87546">
        <ele>263.60000610352</ele>
        <time>2012-01-07T11:00:31.000Z</time>
      </trkpt>
      <trkpt lat="43.49384" lon="6.87558">
        <ele>264</ele>
        <time>2012-01-07T11:00:35.000Z</time>
      </trkpt>
      <trkpt lat="43.49377" lon="6.87577">
        <ele>264.79998779297</ele>
        <time>2012-01-07T11:00:40.000Z</time>
      </trkpt>
      <trkpt lat="43.49364" lon="6.87596">
        <ele>263</ele>
        <time>2012-01-07T11:00:46.000Z</time>
      </trkpt>
      <trkpt lat="43.49344" lon="6.87614">
        <ele>258.20001220703</ele>
        <time>2012-01-07T11:00:53.000Z</time>
      </trkpt>
      <trkpt lat="43.49331" lon="6.87641">
        <ele>256</ele>
        <time>2012-01-07T11:01:00.000Z</time>
      </trkpt>
      <trkpt lat="43.4933" lon="6.87676">
        <ele>258</ele>
        <time>2012-01-07T11:01:08.000Z</time>
      </trkpt>
      <trkpt lat="43.49333" lon="6.87717">
        <ele>260.79998779297</ele>
        <time>2012-01-07T11:01:17.000Z</time>
      </trkpt>
      <trkpt lat="43.49334" lon="6.87755">
        <ele>262.39999389648</ele>
        <time>2012-01-07T11:01:25.000Z</time>
      </trkpt>
      <trkpt lat="43.49329" lon="6.8779">
        <ele>261.20001220703</ele>
        <time>2012-01-07T11:01:32.000Z</time>
      </trkpt>
      <trkpt lat="43.49324" lon="6.87833">
        <ele>261</ele>
        <time>2012-01-07T11:01:41.000Z</time>
      </trkpt>
      <trkpt lat="43.49328" lon="6.87852">
        <ele>258.20001220703</ele>
        <time>2012-01-07T11:01:46.000Z</time>
      </trkpt>
      <trkpt lat="43.49337" lon="6.87867">
        <ele>256.60000610352</ele>
        <time>2012-01-07T11:01:52.000Z</time>
      </trkpt>
      <trkpt lat="43.49355" lon="6.87878">
        <ele>255.39999389648</ele>
        <time>2012-01-07T11:02:01.000Z</time>
      </trkpt>
      <trkpt lat="43.49371" lon="6.87882">
        <ele>255.19999694824</ele>
        <time>2012-01-07T11:02:09.000Z</time>
      </trkpt>
      <trkpt lat="43.49385" lon="6.87883">
        <ele>255.80000305176</ele>
        <time>2012-01-07T11:02:16.000Z</time>
      </trkpt>
      <trkpt lat="43.49403" lon="6.87878">
        <ele>258.60000610352</ele>
        <time>2012-01-07T11:02:24.000Z</time>
      </trkpt>
      <trkpt lat="43.49419" lon="6.87866">
        <ele>263.39999389648</ele>
        <time>2012-01-07T11:02:32.000Z</time>
      </trkpt>
      <trkpt lat="43.49437" lon="6.87852">
        <ele>266.39999389648</ele>
        <time>2012-01-07T11:02:41.000Z</time>
      </trkpt>
      <trkpt lat="43.49458" lon="6.87836">
        <ele>269.39999389648</ele>
        <time>2012-01-07T11:02:51.000Z</time>
      </trkpt>
      <trkpt lat="43.49485" lon="6.87816">
        <ele>273.20001220703</ele>
        <time>2012-01-07T11:03:03.000Z</time>
      </trkpt>
      <trkpt lat="43.49498" lon="6.87807">
        <ele>275.60000610352</ele>
        <time>2012-01-07T11:03:09.000Z</time>
      </trkpt>
      <trkpt lat="43.49515" lon="6.87798">
        <ele>277.39999389648</ele>
        <time>2012-01-07T11:03:16.000Z</time>
      </trkpt>
      <trkpt lat="43.49539" lon="6.87793">
        <ele>276.79998779297</ele>
        <time>2012-01-07T11:03:25.000Z</time>
      </trkpt>
      <trkpt lat="43.49559" lon="6.87791">
        <ele>275.39999389648</ele>
        <time>2012-01-07T11:03:33.000Z</time>
      </trkpt>
      <trkpt lat="43.49576" lon="6.87785">
        <ele>275.20001220703</ele>
        <time>2012-01-07T11:03:41.000Z</time>
      </trkpt>
      <trkpt lat="43.49587" lon="6.87779">
        <ele>275.20001220703</ele>
        <time>2012-01-07T11:03:46.000Z</time>
      </trkpt>
      <trkpt lat="43.496" lon="6.87769">
        <ele>276</ele>
        <time>2012-01-07T11:03:54.000Z</time>
      </trkpt>
      <trkpt lat="43.4961" lon="6.87762">
        <ele>276.20001220703</ele>
        <time>2012-01-07T11:04:01.000Z</time>
      </trkpt>
      <trkpt lat="43.49625" lon="6.87753">
        <ele>275.79998779297</ele>
        <time>2012-01-07T11:04:09.000Z</time>
      </trkpt>
      <trkpt lat="43.49637" lon="6.87742">
        <ele>276</ele>
        <time>2012-01-07T11:04:16.000Z</time>
      </trkpt>
      <trkpt lat="43.49643" lon="6.87728">
        <ele>278</ele>
        <time>2012-01-07T11:04:22.000Z</time>
      </trkpt>
      <trkpt lat="43.49645" lon="6.87713">
        <ele>281</ele>
        <time>2012-01-07T11:04:29.000Z</time>
      </trkpt>
      <trkpt lat="43.49651" lon="6.87695">
        <ele>283.60000610352</ele>
        <time>2012-01-07T11:04:36.000Z</time>
      </trkpt>
      <trkpt lat="43.49665" lon="6.87687">
        <ele>283</ele>
        <time>2012-01-07T11:04:43.000Z</time>
      </trkpt>
      <trkpt lat="43.49677" lon="6.87686">
        <ele>283.20001220703</ele>
        <time>2012-01-07T11:04:50.000Z</time>
      </trkpt>
      <trkpt lat="43.4969" lon="6.87684">
        <ele>284.39999389648</ele>
        <time>2012-01-07T11:04:57.000Z</time>
      </trkpt>
      <trkpt lat="43.49705" lon="6.87685">
        <ele>284.79998779297</ele>
        <time>2012-01-07T11:05:04.000Z</time>
      </trkpt>
      <trkpt lat="43.49722" lon="6.87688">
        <ele>284.79998779297</ele>
        <time>2012-01-07T11:05:13.000Z</time>
      </trkpt>
      <trkpt lat="43.4973" lon="6.87689">
        <ele>285</ele>
        <time>2012-01-07T11:05:19.000Z</time>
      </trkpt>
      <trkpt lat="43.4974" lon="6.87691">
        <ele>284.79998779297</ele>
        <time>2012-01-07T11:05:26.000Z</time>
      </trkpt>
      <trkpt lat="43.49751" lon="6.87696">
        <ele>283.79998779297</ele>
        <time>2012-01-07T11:05:33.000Z</time>
      </trkpt>
      <trkpt lat="43.49753" lon="6.87696">
        <ele>283.79998779297</ele>
        <time>2012-01-07T11:05:34.000Z</time>
      </trkpt>
      <trkpt lat="43.49767" lon="6.87703">
        <ele>283</ele>
        <time>2012-01-07T11:05:43.000Z</time>
      </trkpt>
      <trkpt lat="43.49779" lon="6.87708">
        <ele>282.60000610352</ele>
        <time>2012-01-07T11:05:50.000Z</time>
      </trkpt>
      <trkpt lat="43.49795" lon="6.87711">
        <ele>283.20001220703</ele>
        <time>2012-01-07T11:05:58.000Z</time>
      </trkpt>
      <trkpt lat="43.49813" lon="6.87713">
        <ele>284.39999389648</ele>
        <time>2012-01-07T11:06:06.000Z</time>
      </trkpt>
      <trkpt lat="43.49826" lon="6.87713">
        <ele>285.79998779297</ele>
        <time>2012-01-07T11:06:13.000Z</time>
      </trkpt>
      <trkpt lat="43.49843" lon="6.87712">
        <ele>288.60000610352</ele>
        <time>2012-01-07T11:06:22.000Z</time>
      </trkpt>
      <trkpt lat="43.49858" lon="6.87717">
        <ele>289.79998779297</ele>
        <time>2012-01-07T11:06:29.000Z</time>
      </trkpt>
      <trkpt lat="43.49869" lon="6.87732">
        <ele>287.60000610352</ele>
        <time>2012-01-07T11:06:35.000Z</time>
      </trkpt>
      <trkpt lat="43.49877" lon="6.87755">
        <ele>282.79998779297</ele>
        <time>2012-01-07T11:06:40.000Z</time>
      </trkpt>
      <trkpt lat="43.49888" lon="6.87775">
        <ele>280.20001220703</ele>
        <time>2012-01-07T11:06:44.000Z</time>
      </trkpt>
      <trkpt lat="43.49895" lon="6.87779">
        <ele>280.20001220703</ele>
        <time>2012-01-07T11:06:46.000Z</time>
      </trkpt>
      <trkpt lat="43.49914" lon="6.87773">
        <ele>284.20001220703</ele>
        <time>2012-01-07T11:06:51.000Z</time>
      </trkpt>
      <trkpt lat="43.49921" lon="6.87768">
        <ele>285.39999389648</ele>
        <time>2012-01-07T11:06:53.000Z</time>
      </trkpt>
      <trkpt lat="43.49952" lon="6.87739">
        <ele>291.60000610352</ele>
        <time>2012-01-07T11:07:03.000Z</time>
      </trkpt>
      <trkpt lat="43.49979" lon="6.87721">
        <ele>296.79998779297</ele>
        <time>2012-01-07T11:07:11.000Z</time>
      </trkpt>
      <trkpt lat="43.50006" lon="6.87709">
        <ele>301</ele>
        <time>2012-01-07T11:07:19.000Z</time>
      </trkpt>
      <trkpt lat="43.50025" lon="6.87698">
        <ele>304</ele>
        <time>2012-01-07T11:07:25.000Z</time>
      </trkpt>
      <trkpt lat="43.50036" lon="6.87694">
        <ele>304.60000610352</ele>
        <time>2012-01-07T11:07:30.000Z</time>
      </trkpt>
      <trkpt lat="43.50035" lon="6.87693">
        <ele>304.79998779297</ele>
        <time>2012-01-07T11:07:39.000Z</time>
      </trkpt>
      <trkpt lat="43.50035" lon="6.87695">
        <ele>304.20001220703</ele>
        <time>2012-01-07T11:07:44.000Z</time>
      </trkpt>
      <trkpt lat="43.5004" lon="6.87697">
        <ele>303</ele>
        <time>2012-01-07T11:08:00.000Z</time>
      </trkpt>
      <trkpt lat="43.50039" lon="6.87689">
        <ele>306.20001220703</ele>
        <time>2012-01-07T11:08:11.000Z</time>
      </trkpt>
      <trkpt lat="43.50037" lon="6.87682">
        <ele>309.39999389648</ele>
        <time>2012-01-07T11:08:23.000Z</time>
      </trkpt>
      <trkpt lat="43.50032" lon="6.87671">
        <ele>314</ele>
        <time>2012-01-07T11:08:53.000Z</time>
      </trkpt>
      <trkpt lat="43.50045" lon="6.87683">
        <ele>308.20001220703</ele>
        <time>2012-01-07T11:09:26.000Z</time>
      </trkpt>
      <trkpt lat="43.50043" lon="6.87687">
        <ele>306.60000610352</ele>
        <time>2012-01-07T11:09:39.000Z</time>
      </trkpt>
      <trkpt lat="43.5004" lon="6.87688">
        <ele>306.60000610352</ele>
        <time>2012-01-07T11:09:48.000Z</time>
      </trkpt>
      <trkpt lat="43.50035" lon="6.87688">
        <ele>307</ele>
        <time>2012-01-07T11:10:03.000Z</time>
      </trkpt>
      <trkpt lat="43.50035" lon="6.87687">
        <ele>307.20001220703</ele>
        <time>2012-01-07T11:10:08.000Z</time>
      </trkpt>
      <trkpt lat="43.50039" lon="6.87688">
        <ele>306.39999389648</ele>
        <time>2012-01-07T11:10:13.000Z</time>
      </trkpt>
      <trkpt lat="43.50055" lon="6.87688">
        <ele>305.39999389648</ele>
        <time>2012-01-07T11:10:20.000Z</time>
      </trkpt>
      <trkpt lat="43.50078" lon="6.87682">
        <ele>305.39999389648</ele>
        <time>2012-01-07T11:10:27.000Z</time>
      </trkpt>
      <trkpt lat="43.50103" lon="6.87675">
        <ele>309.60000610352</ele>
        <time>2012-01-07T11:10:35.000Z</time>
      </trkpt>
      <trkpt lat="43.50126" lon="6.87675">
        <ele>312.60000610352</ele>
        <time>2012-01-07T11:10:44.000Z</time>
      </trkpt>
      <trkpt lat="43.50147" lon="6.87674">
        <ele>315.20001220703</ele>
        <time>2012-01-07T11:10:52.000Z</time>
      </trkpt>
      <trkpt lat="43.50157" lon="6.87674">
        <ele>316.39999389648</ele>
        <time>2012-01-07T11:10:57.000Z</time>
      </trkpt>
      <trkpt lat="43.50169" lon="6.87684">
        <ele>317.79998779297</ele>
        <time>2012-01-07T11:11:02.000Z</time>
      </trkpt>
      <trkpt lat="43.50171" lon="6.87696">
        <ele>318.20001220703</ele>
        <time>2012-01-07T11:11:08.000Z</time>
      </trkpt>
      <trkpt lat="43.50167" lon="6.87705">
        <ele>316</ele>
        <time>2012-01-07T11:11:14.000Z</time>
      </trkpt>
      <trkpt lat="43.50166" lon="6.87712">
        <ele>315</ele>
        <time>2012-01-07T11:11:18.000Z</time>
      </trkpt>
      <trkpt lat="43.50162" lon="6.87729">
        <ele>312.79998779297</ele>
        <time>2012-01-07T11:11:25.000Z</time>
      </trkpt>
      <trkpt lat="43.50155" lon="6.8775">
        <ele>308.60000610352</ele>
        <time>2012-01-07T11:11:33.000Z</time>
      </trkpt>
      <trkpt lat="43.50149" lon="6.87773">
        <ele>309</ele>
        <time>2012-01-07T11:11:41.000Z</time>
      </trkpt>
      <trkpt lat="43.50138" lon="6.87798">
        <ele>307.20001220703</ele>
        <time>2012-01-07T11:11:50.000Z</time>
      </trkpt>
      <trkpt lat="43.5013" lon="6.8782">
        <ele>304.60000610352</ele>
        <time>2012-01-07T11:11:57.000Z</time>
      </trkpt>
      <trkpt lat="43.50122" lon="6.87849">
        <ele>304.20001220703</ele>
        <time>2012-01-07T11:12:05.000Z</time>
      </trkpt>
      <trkpt lat="43.50113" lon="6.87887">
        <ele>304.60000610352</ele>
        <time>2012-01-07T11:12:15.000Z</time>
      </trkpt>
      <trkpt lat="43.50108" lon="6.87914">
        <ele>306</ele>
        <time>2012-01-07T11:12:22.000Z</time>
      </trkpt>
      <trkpt lat="43.50107" lon="6.87949">
        <ele>305.60000610352</ele>
        <time>2012-01-07T11:12:30.000Z</time>
      </trkpt>
      <trkpt lat="43.50111" lon="6.87989">
        <ele>307.79998779297</ele>
        <time>2012-01-07T11:12:39.000Z</time>
      </trkpt>
      <trkpt lat="43.50114" lon="6.88022">
        <ele>309.20001220703</ele>
        <time>2012-01-07T11:12:47.000Z</time>
      </trkpt>
      <trkpt lat="43.5012" lon="6.8804">
        <ele>311.79998779297</ele>
        <time>2012-01-07T11:12:53.000Z</time>
      </trkpt>
      <trkpt lat="43.50126" lon="6.88062">
        <ele>313.60000610352</ele>
        <time>2012-01-07T11:13:00.000Z</time>
      </trkpt>
      <trkpt lat="43.50126" lon="6.88078">
        <ele>312.60000610352</ele>
        <time>2012-01-07T11:13:06.000Z</time>
      </trkpt>
      <trkpt lat="43.50127" lon="6.88079">
        <ele>313</ele>
        <time>2012-01-07T11:13:13.000Z</time>
      </trkpt>
      <trkpt lat="43.50127" lon="6.88085">
        <ele>312.79998779297</ele>
        <time>2012-01-07T11:13:20.000Z</time>
      </trkpt>
      <trkpt lat="43.50123" lon="6.881">
        <ele>310.79998779297</ele>
        <time>2012-01-07T11:13:26.000Z</time>
      </trkpt>
      <trkpt lat="43.50117" lon="6.88115">
        <ele>307.79998779297</ele>
        <time>2012-01-07T11:13:34.000Z</time>
      </trkpt>
      <trkpt lat="43.50115" lon="6.8813">
        <ele>307</ele>
        <time>2012-01-07T11:13:40.000Z</time>
      </trkpt>
      <trkpt lat="43.50118" lon="6.88145">
        <ele>308</ele>
        <time>2012-01-07T11:13:46.000Z</time>
      </trkpt>
      <trkpt lat="43.5013" lon="6.88157">
        <ele>311.79998779297</ele>
        <time>2012-01-07T11:13:51.000Z</time>
      </trkpt>
      <trkpt lat="43.50139" lon="6.88168">
        <ele>313.39999389648</ele>
        <time>2012-01-07T11:13:56.000Z</time>
      </trkpt>
      <trkpt lat="43.50144" lon="6.88192">
        <ele>308</ele>
        <time>2012-01-07T11:14:02.000Z</time>
      </trkpt>
      <trkpt lat="43.50153" lon="6.88214">
        <ele>304</ele>
        <time>2012-01-07T11:14:07.000Z</time>
      </trkpt>
      <trkpt lat="43.50169" lon="6.88233">
        <ele>303.60000610352</ele>
        <time>2012-01-07T11:14:12.000Z</time>
      </trkpt>
      <trkpt lat="43.50187" lon="6.88242">
        <ele>306.79998779297</ele>
        <time>2012-01-07T11:14:17.000Z</time>
      </trkpt>
      <trkpt lat="43.50191" lon="6.88243">
        <ele>307.79998779297</ele>
        <time>2012-01-07T11:14:18.000Z</time>
      </trkpt>
      <trkpt lat="43.50217" lon="6.88263">
        <ele>311.60000610352</ele>
        <time>2012-01-07T11:14:24.000Z</time>
      </trkpt>
      <trkpt lat="43.50225" lon="6.88285">
        <ele>309.39999389648</ele>
        <time>2012-01-07T11:14:27.000Z</time>
      </trkpt>
      <trkpt lat="43.50239" lon="6.88337">
        <ele>303.39999389648</ele>
        <time>2012-01-07T11:14:34.000Z</time>
      </trkpt>
      <trkpt lat="43.50248" lon="6.88376">
        <ele>302.79998779297</ele>
        <time>2012-01-07T11:14:41.000Z</time>
      </trkpt>
      <trkpt lat="43.50245" lon="6.88393">
        <ele>299.79998779297</ele>
        <time>2012-01-07T11:14:45.000Z</time>
      </trkpt>
      <trkpt lat="43.50242" lon="6.88409">
        <ele>297.39999389648</ele>
        <time>2012-01-07T11:14:49.000Z</time>
      </trkpt>
      <trkpt lat="43.50244" lon="6.88417">
        <ele>297.20001220703</ele>
        <time>2012-01-07T11:14:51.000Z</time>
      </trkpt>
      <trkpt lat="43.50247" lon="6.8844">
        <ele>299.39999389648</ele>
        <time>2012-01-07T11:14:57.000Z</time>
      </trkpt>
      <trkpt lat="43.50241" lon="6.88467">
        <ele>299</ele>
        <time>2012-01-07T11:15:04.000Z</time>
      </trkpt>
      <trkpt lat="43.5024" lon="6.88471">
        <ele>299</ele>
        <time>2012-01-07T11:15:08.000Z</time>
      </trkpt>
      <trkpt lat="43.50239" lon="6.8847">
        <ele>298.79998779297</ele>
        <time>2012-01-07T11:15:15.000Z</time>
      </trkpt>
      <trkpt lat="43.5024" lon="6.88468">
        <ele>298.79998779297</ele>
        <time>2012-01-07T11:15:16.000Z</time>
      </trkpt>
      <trkpt lat="43.50245" lon="6.88445">
        <ele>299.20001220703</ele>
        <time>2012-01-07T11:15:21.000Z</time>
      </trkpt>
      <trkpt lat="43.50247" lon="6.88441">
        <ele>299.20001220703</ele>
        <time>2012-01-07T11:15:22.000Z</time>
      </trkpt>
      <trkpt lat="43.50255" lon="6.8844">
        <ele>299.39999389648</ele>
        <time>2012-01-07T11:15:26.000Z</time>
      </trkpt>
      <trkpt lat="43.50257" lon="6.88455">
        <ele>299.60000610352</ele>
        <time>2012-01-07T11:15:30.000Z</time>
      </trkpt>
      <trkpt lat="43.50258" lon="6.88492">
        <ele>300.79998779297</ele>
        <time>2012-01-07T11:15:38.000Z</time>
      </trkpt>
      <trkpt lat="43.50255" lon="6.88519">
        <ele>303</ele>
        <time>2012-01-07T11:15:45.000Z</time>
      </trkpt>
      <trkpt lat="43.50243" lon="6.88545">
        <ele>305</ele>
        <time>2012-01-07T11:15:52.000Z</time>
      </trkpt>
      <trkpt lat="43.50226" lon="6.88575">
        <ele>306.60000610352</ele>
        <time>2012-01-07T11:15:59.000Z</time>
      </trkpt>
      <trkpt lat="43.50216" lon="6.88591">
        <ele>307.20001220703</ele>
        <time>2012-01-07T11:16:02.000Z</time>
      </trkpt>
      <trkpt lat="43.50191" lon="6.88615">
        <ele>310</ele>
        <time>2012-01-07T11:16:08.000Z</time>
      </trkpt>
      <trkpt lat="43.50178" lon="6.88632">
        <ele>313.60000610352</ele>
        <time>2012-01-07T11:16:13.000Z</time>
      </trkpt>
      <trkpt lat="43.50177" lon="6.88635">
        <ele>314.20001220703</ele>
        <time>2012-01-07T11:16:14.000Z</time>
      </trkpt>
      <trkpt lat="43.50172" lon="6.88653">
        <ele>318.20001220703</ele>
        <time>2012-01-07T11:16:20.000Z</time>
      </trkpt>
      <trkpt lat="43.5017" lon="6.88667">
        <ele>321</ele>
        <time>2012-01-07T11:16:25.000Z</time>
      </trkpt>
      <trkpt lat="43.5017" lon="6.88681">
        <ele>321.60000610352</ele>
        <time>2012-01-07T11:16:30.000Z</time>
      </trkpt>
      <trkpt lat="43.50171" lon="6.88708">
        <ele>322.60000610352</ele>
        <time>2012-01-07T11:16:38.000Z</time>
      </trkpt>
      <trkpt lat="43.50172" lon="6.88727">
        <ele>323.20001220703</ele>
        <time>2012-01-07T11:16:44.000Z</time>
      </trkpt>
      <trkpt lat="43.50175" lon="6.88745">
        <ele>323.20001220703</ele>
        <time>2012-01-07T11:16:49.000Z</time>
      </trkpt>
      <trkpt lat="43.5018" lon="6.88768">
        <ele>322.60000610352</ele>
        <time>2012-01-07T11:16:56.000Z</time>
      </trkpt>
      <trkpt lat="43.50185" lon="6.88788">
        <ele>322.20001220703</ele>
        <time>2012-01-07T11:17:03.000Z</time>
      </trkpt>
      <trkpt lat="43.5019" lon="6.88814">
        <ele>322.39999389648</ele>
        <time>2012-01-07T11:17:12.000Z</time>
      </trkpt>
      <trkpt lat="43.50191" lon="6.88831">
        <ele>323</ele>
        <time>2012-01-07T11:17:18.000Z</time>
      </trkpt>
      <trkpt lat="43.50188" lon="6.88852">
        <ele>324.60000610352</ele>
        <time>2012-01-07T11:17:26.000Z</time>
      </trkpt>
      <trkpt lat="43.50182" lon="6.88875">
        <ele>327.20001220703</ele>
        <time>2012-01-07T11:17:34.000Z</time>
      </trkpt>
      <trkpt lat="43.50175" lon="6.889">
        <ele>330</ele>
        <time>2012-01-07T11:17:42.000Z</time>
      </trkpt>
      <trkpt lat="43.50168" lon="6.88931">
        <ele>333.39999389648</ele>
        <time>2012-01-07T11:17:50.000Z</time>
      </trkpt>
      <trkpt lat="43.50164" lon="6.88975">
        <ele>336</ele>
        <time>2012-01-07T11:18:01.000Z</time>
      </trkpt>
      <trkpt lat="43.50155" lon="6.89002">
        <ele>336.39999389648</ele>
        <time>2012-01-07T11:18:09.000Z</time>
      </trkpt>
      <trkpt lat="43.50144" lon="6.89041">
        <ele>339.39999389648</ele>
        <time>2012-01-07T11:18:20.000Z</time>
      </trkpt>
      <trkpt lat="43.50138" lon="6.89061">
        <ele>341.60000610352</ele>
        <time>2012-01-07T11:18:27.000Z</time>
      </trkpt>
      <trkpt lat="43.50139" lon="6.89075">
        <ele>343.60000610352</ele>
        <time>2012-01-07T11:18:33.000Z</time>
      </trkpt>
      <trkpt lat="43.50142" lon="6.89094">
        <ele>346.60000610352</ele>
        <time>2012-01-07T11:18:41.000Z</time>
      </trkpt>
      <trkpt lat="43.50144" lon="6.89116">
        <ele>350.39999389648</ele>
        <time>2012-01-07T11:18:50.000Z</time>
      </trkpt>
      <trkpt lat="43.50146" lon="6.8913">
        <ele>353</ele>
        <time>2012-01-07T11:18:57.000Z</time>
      </trkpt>
      <trkpt lat="43.50152" lon="6.89152">
        <ele>356.79998779297</ele>
        <time>2012-01-07T11:19:06.000Z</time>
      </trkpt>
      <trkpt lat="43.5016" lon="6.89173">
        <ele>360.39999389648</ele>
        <time>2012-01-07T11:19:14.000Z</time>
      </trkpt>
      <trkpt lat="43.50171" lon="6.89192">
        <ele>363</ele>
        <time>2012-01-07T11:19:22.000Z</time>
      </trkpt>
      <trkpt lat="43.50183" lon="6.89209">
        <ele>365</ele>
        <time>2012-01-07T11:19:30.000Z</time>
      </trkpt>
      <trkpt lat="43.50194" lon="6.89218">
        <ele>366.60000610352</ele>
        <time>2012-01-07T11:19:37.000Z</time>
      </trkpt>
      <trkpt lat="43.50208" lon="6.89229">
        <ele>368.79998779297</ele>
        <time>2012-01-07T11:19:45.000Z</time>
      </trkpt>
      <trkpt lat="43.50222" lon="6.8923">
        <ele>369.60000610352</ele>
        <time>2012-01-07T11:19:51.000Z</time>
      </trkpt>
      <trkpt lat="43.50231" lon="6.89229">
        <ele>369.79998779297</ele>
        <time>2012-01-07T11:19:56.000Z</time>
      </trkpt>
      <trkpt lat="43.50231" lon="6.8924">
        <ele>372.20001220703</ele>
        <time>2012-01-07T11:20:01.000Z</time>
      </trkpt>
      <trkpt lat="43.50229" lon="6.89242">
        <ele>372.60000610352</ele>
        <time>2012-01-07T11:20:02.000Z</time>
      </trkpt>
      <trkpt lat="43.5021" lon="6.89253">
        <ele>372.79998779297</ele>
        <time>2012-01-07T11:20:09.000Z</time>
      </trkpt>
      <trkpt lat="43.50183" lon="6.89266">
        <ele>369.20001220703</ele>
        <time>2012-01-07T11:20:17.000Z</time>
      </trkpt>
      <trkpt lat="43.50161" lon="6.89284">
        <ele>365</ele>
        <time>2012-01-07T11:20:23.000Z</time>
      </trkpt>
      <trkpt lat="43.50138" lon="6.89319">
        <ele>360.60000610352</ele>
        <time>2012-01-07T11:20:29.000Z</time>
      </trkpt>
      <trkpt lat="43.50106" lon="6.8937">
        <ele>353.60000610352</ele>
        <time>2012-01-07T11:20:36.000Z</time>
      </trkpt>
      <trkpt lat="43.50075" lon="6.89388">
        <ele>352.39999389648</ele>
        <time>2012-01-07T11:20:41.000Z</time>
      </trkpt>
      <trkpt lat="43.50037" lon="6.89395">
        <ele>350.20001220703</ele>
        <time>2012-01-07T11:20:46.000Z</time>
      </trkpt>
      <trkpt lat="43.50015" lon="6.89417">
        <ele>350.60000610352</ele>
        <time>2012-01-07T11:20:50.000Z</time>
      </trkpt>
      <trkpt lat="43.49984" lon="6.89469">
        <ele>346.39999389648</ele>
        <time>2012-01-07T11:20:57.000Z</time>
      </trkpt>
      <trkpt lat="43.49978" lon="6.89487">
        <ele>346</ele>
        <time>2012-01-07T11:20:59.000Z</time>
      </trkpt>
      <trkpt lat="43.49965" lon="6.89535">
        <ele>345</ele>
        <time>2012-01-07T11:21:04.000Z</time>
      </trkpt>
      <trkpt lat="43.49964" lon="6.89623">
        <ele>339</ele>
        <time>2012-01-07T11:21:11.000Z</time>
      </trkpt>
      <trkpt lat="43.4997" lon="6.89684">
        <ele>332.60000610352</ele>
        <time>2012-01-07T11:21:16.000Z</time>
      </trkpt>
      <trkpt lat="43.49971" lon="6.89704">
        <ele>329.79998779297</ele>
        <time>2012-01-07T11:21:18.000Z</time>
      </trkpt>
      <trkpt lat="43.49964" lon="6.8974">
        <ele>326</ele>
        <time>2012-01-07T11:21:22.000Z</time>
      </trkpt>
      <trkpt lat="43.4996" lon="6.89749">
        <ele>325</ele>
        <time>2012-01-07T11:21:23.000Z</time>
      </trkpt>
      <trkpt lat="43.49953" lon="6.89791">
        <ele>319.39999389648</ele>
        <time>2012-01-07T11:21:27.000Z</time>
      </trkpt>
      <trkpt lat="43.49952" lon="6.89802">
        <ele>317.79998779297</ele>
        <time>2012-01-07T11:21:28.000Z</time>
      </trkpt>
      <trkpt lat="43.49944" lon="6.89826">
        <ele>313.60000610352</ele>
        <time>2012-01-07T11:21:32.000Z</time>
      </trkpt>
      <trkpt lat="43.49936" lon="6.89825">
        <ele>313.20001220703</ele>
        <time>2012-01-07T11:21:35.000Z</time>
      </trkpt>
      <trkpt lat="43.49933" lon="6.89822">
        <ele>313.39999389648</ele>
        <time>2012-01-07T11:21:36.000Z</time>
      </trkpt>
      <trkpt lat="43.49905" lon="6.89795">
        <ele>316.20001220703</ele>
        <time>2012-01-07T11:21:42.000Z</time>
      </trkpt>
      <trkpt lat="43.49893" lon="6.89784">
        <ele>317</ele>
        <time>2012-01-07T11:21:44.000Z</time>
      </trkpt>
      <trkpt lat="43.49857" lon="6.8977">
        <ele>315.39999389648</ele>
        <time>2012-01-07T11:21:49.000Z</time>
      </trkpt>
      <trkpt lat="43.49839" lon="6.8978">
        <ele>309.79998779297</ele>
        <time>2012-01-07T11:21:52.000Z</time>
      </trkpt>
      <trkpt lat="43.49823" lon="6.89796">
        <ele>303</ele>
        <time>2012-01-07T11:21:55.000Z</time>
      </trkpt>
      <trkpt lat="43.49817" lon="6.89799">
        <ele>301.39999389648</ele>
        <time>2012-01-07T11:21:56.000Z</time>
      </trkpt>
      <trkpt lat="43.49784" lon="6.8982">
        <ele>294.39999389648</ele>
        <time>2012-01-07T11:22:01.000Z</time>
      </trkpt>
      <trkpt lat="43.49762" lon="6.89835">
        <ele>291.79998779297</ele>
        <time>2012-01-07T11:22:04.000Z</time>
      </trkpt>
      <trkpt lat="43.49729" lon="6.89882">
        <ele>285.79998779297</ele>
        <time>2012-01-07T11:22:09.000Z</time>
      </trkpt>
      <trkpt lat="43.49699" lon="6.89923">
        <ele>286.60000610352</ele>
        <time>2012-01-07T11:22:14.000Z</time>
      </trkpt>
      <trkpt lat="43.49688" lon="6.89934">
        <ele>286.20001220703</ele>
        <time>2012-01-07T11:22:16.000Z</time>
      </trkpt>
      <trkpt lat="43.49652" lon="6.89955">
        <ele>288</ele>
        <time>2012-01-07T11:22:22.000Z</time>
      </trkpt>
      <trkpt lat="43.49627" lon="6.89982">
        <ele>289.20001220703</ele>
        <time>2012-01-07T11:22:26.000Z</time>
      </trkpt>
      <trkpt lat="43.49612" lon="6.90005">
        <ele>291</ele>
        <time>2012-01-07T11:22:29.000Z</time>
      </trkpt>
      <trkpt lat="43.49597" lon="6.90042">
        <ele>290</ele>
        <time>2012-01-07T11:22:33.000Z</time>
      </trkpt>
      <trkpt lat="43.49595" lon="6.90052">
        <ele>289.20001220703</ele>
        <time>2012-01-07T11:22:34.000Z</time>
      </trkpt>
      <trkpt lat="43.49596" lon="6.90126">
        <ele>280.20001220703</ele>
        <time>2012-01-07T11:22:40.000Z</time>
      </trkpt>
      <trkpt lat="43.496" lon="6.90153">
        <ele>275.60000610352</ele>
        <time>2012-01-07T11:22:42.000Z</time>
      </trkpt>
      <trkpt lat="43.49619" lon="6.90206">
        <ele>261.79998779297</ele>
        <time>2012-01-07T11:22:47.000Z</time>
      </trkpt>
      <trkpt lat="43.49633" lon="6.90239">
        <ele>254.80000305176</ele>
        <time>2012-01-07T11:22:51.000Z</time>
      </trkpt>
      <trkpt lat="43.49631" lon="6.90266">
        <ele>250.80000305176</ele>
        <time>2012-01-07T11:22:55.000Z</time>
      </trkpt>
      <trkpt lat="43.49617" lon="6.90273">
        <ele>251.80000305176</ele>
        <time>2012-01-07T11:22:58.000Z</time>
      </trkpt>
      <trkpt lat="43.49611" lon="6.90273">
        <ele>252.80000305176</ele>
        <time>2012-01-07T11:22:59.000Z</time>
      </trkpt>
      <trkpt lat="43.49566" lon="6.90282">
        <ele>253.60000610352</ele>
        <time>2012-01-07T11:23:05.000Z</time>
      </trkpt>
      <trkpt lat="43.49538" lon="6.90302">
        <ele>247.39999389648</ele>
        <time>2012-01-07T11:23:09.000Z</time>
      </trkpt>
      <trkpt lat="43.49526" lon="6.90324">
        <ele>242.80000305176</ele>
        <time>2012-01-07T11:23:12.000Z</time>
      </trkpt>
      <trkpt lat="43.49514" lon="6.90344">
        <ele>240.80000305176</ele>
        <time>2012-01-07T11:23:17.000Z</time>
      </trkpt>
      <trkpt lat="43.49502" lon="6.90367">
        <ele>240.80000305176</ele>
        <time>2012-01-07T11:23:22.000Z</time>
      </trkpt>
      <trkpt lat="43.49495" lon="6.90387">
        <ele>239.80000305176</ele>
        <time>2012-01-07T11:23:27.000Z</time>
      </trkpt>
      <trkpt lat="43.49495" lon="6.90387">
        <ele>239.80000305176</ele>
        <time>2012-01-07T11:23:55.000Z</time>
      </trkpt>
      <trkpt lat="43.49498" lon="6.90388">
        <ele>240.60000610352</ele>
        <time>2012-01-07T11:24:02.000Z</time>
      </trkpt>
      <trkpt lat="43.495" lon="6.9039">
        <ele>241</ele>
        <time>2012-01-07T11:24:04.000Z</time>
      </trkpt>
      <trkpt lat="43.49499" lon="6.90403">
        <ele>240.80000305176</ele>
        <time>2012-01-07T11:24:10.000Z</time>
      </trkpt>
      <trkpt lat="43.495" lon="6.90419">
        <ele>241.19999694824</ele>
        <time>2012-01-07T11:24:18.000Z</time>
      </trkpt>
      <trkpt lat="43.49502" lon="6.90434">
        <ele>241.80000305176</ele>
        <time>2012-01-07T11:24:24.000Z</time>
      </trkpt>
      <trkpt lat="43.49503" lon="6.90452">
        <ele>242.60000610352</ele>
        <time>2012-01-07T11:24:30.000Z</time>
      </trkpt>
      <trkpt lat="43.49501" lon="6.90474">
        <ele>244.80000305176</ele>
        <time>2012-01-07T11:24:36.000Z</time>
      </trkpt>
      <trkpt lat="43.495" lon="6.90492">
        <ele>246.19999694824</ele>
        <time>2012-01-07T11:24:42.000Z</time>
      </trkpt>
      <trkpt lat="43.49499" lon="6.90509">
        <ele>248</ele>
        <time>2012-01-07T11:24:48.000Z</time>
      </trkpt>
      <trkpt lat="43.49495" lon="6.90536">
        <ele>250.80000305176</ele>
        <time>2012-01-07T11:24:55.000Z</time>
      </trkpt>
      <trkpt lat="43.49496" lon="6.90557">
        <ele>253.39999389648</ele>
        <time>2012-01-07T11:25:01.000Z</time>
      </trkpt>
      <trkpt lat="43.49504" lon="6.9057">
        <ele>254.39999389648</ele>
        <time>2012-01-07T11:25:05.000Z</time>
      </trkpt>
      <trkpt lat="43.49516" lon="6.9059">
        <ele>253.39999389648</ele>
        <time>2012-01-07T11:25:10.000Z</time>
      </trkpt>
      <trkpt lat="43.49519" lon="6.90599">
        <ele>254.39999389648</ele>
        <time>2012-01-07T11:25:12.000Z</time>
      </trkpt>
      <trkpt lat="43.49533" lon="6.9061">
        <ele>252.80000305176</ele>
        <time>2012-01-07T11:25:17.000Z</time>
      </trkpt>
      <trkpt lat="43.49546" lon="6.90613">
        <ele>249.60000610352</ele>
        <time>2012-01-07T11:25:21.000Z</time>
      </trkpt>
      <trkpt lat="43.49549" lon="6.90616">
        <ele>249.19999694824</ele>
        <time>2012-01-07T11:25:22.000Z</time>
      </trkpt>
      <trkpt lat="43.49562" lon="6.90636">
        <ele>250.39999389648</ele>
        <time>2012-01-07T11:25:29.000Z</time>
      </trkpt>
      <trkpt lat="43.49574" lon="6.90653">
        <ele>251.19999694824</ele>
        <time>2012-01-07T11:25:35.000Z</time>
      </trkpt>
      <trkpt lat="43.49579" lon="6.90665">
        <ele>252.80000305176</ele>
        <time>2012-01-07T11:25:39.000Z</time>
      </trkpt>
      <trkpt lat="43.4958" lon="6.90666">
        <ele>252.60000610352</ele>
        <time>2012-01-07T11:25:40.000Z</time>
      </trkpt>
      <trkpt lat="43.49584" lon="6.90671">
        <ele>253</ele>
        <time>2012-01-07T11:25:49.000Z</time>
      </trkpt>
      <trkpt lat="43.49581" lon="6.90672">
        <ele>254.39999389648</ele>
        <time>2012-01-07T11:26:17.000Z</time>
      </trkpt>
      <trkpt lat="43.49582" lon="6.90671">
        <ele>253.60000610352</ele>
        <time>2012-01-07T11:27:25.000Z</time>
      </trkpt>
      <trkpt lat="43.49585" lon="6.90674">
        <ele>253.39999389648</ele>
        <time>2012-01-07T11:27:35.000Z</time>
      </trkpt>
      <trkpt lat="43.49588" lon="6.90678">
        <ele>253.60000610352</ele>
        <time>2012-01-07T11:27:40.000Z</time>
      </trkpt>
      <trkpt lat="43.4959" lon="6.9068">
        <ele>253.39999389648</ele>
        <time>2012-01-07T11:27:42.000Z</time>
      </trkpt>
      <trkpt lat="43.49606" lon="6.90696">
        <ele>252</ele>
        <time>2012-01-07T11:27:49.000Z</time>
      </trkpt>
      <trkpt lat="43.49622" lon="6.90712">
        <ele>250</ele>
        <time>2012-01-07T11:27:56.000Z</time>
      </trkpt>
      <trkpt lat="43.49633" lon="6.90724">
        <ele>248.39999389648</ele>
        <time>2012-01-07T11:28:01.000Z</time>
      </trkpt>
      <trkpt lat="43.49645" lon="6.90739">
        <ele>247</ele>
        <time>2012-01-07T11:28:06.000Z</time>
      </trkpt>
      <trkpt lat="43.49659" lon="6.9076">
        <ele>246.39999389648</ele>
        <time>2012-01-07T11:28:12.000Z</time>
      </trkpt>
      <trkpt lat="43.4967" lon="6.90784">
        <ele>247.19999694824</ele>
        <time>2012-01-07T11:28:17.000Z</time>
      </trkpt>
      <trkpt lat="43.49674" lon="6.908">
        <ele>248.80000305176</ele>
        <time>2012-01-07T11:28:20.000Z</time>
      </trkpt>
      <trkpt lat="43.4968" lon="6.90814">
        <ele>249.39999389648</ele>
        <time>2012-01-07T11:28:23.000Z</time>
      </trkpt>
      <trkpt lat="43.49685" lon="6.9085">
        <ele>253</ele>
        <time>2012-01-07T11:28:29.000Z</time>
      </trkpt>
      <trkpt lat="43.49691" lon="6.90875">
        <ele>252</ele>
        <time>2012-01-07T11:28:33.000Z</time>
      </trkpt>
      <trkpt lat="43.49695" lon="6.90905">
        <ele>253.60000610352</ele>
        <time>2012-01-07T11:28:39.000Z</time>
      </trkpt>
      <trkpt lat="43.497" lon="6.90931">
        <ele>250.80000305176</ele>
        <time>2012-01-07T11:28:45.000Z</time>
      </trkpt>
      <trkpt lat="43.497" lon="6.90953">
        <ele>248.60000610352</ele>
        <time>2012-01-07T11:28:50.000Z</time>
      </trkpt>
      <trkpt lat="43.49691" lon="6.90973">
        <ele>252.19999694824</ele>
        <time>2012-01-07T11:28:55.000Z</time>
      </trkpt>
      <trkpt lat="43.49677" lon="6.90989">
        <ele>258.20001220703</ele>
        <time>2012-01-07T11:29:01.000Z</time>
      </trkpt>
      <trkpt lat="43.4967" lon="6.91008">
        <ele>261.60000610352</ele>
        <time>2012-01-07T11:29:07.000Z</time>
      </trkpt>
      <trkpt lat="43.49674" lon="6.91029">
        <ele>259.20001220703</ele>
        <time>2012-01-07T11:29:11.000Z</time>
      </trkpt>
      <trkpt lat="43.49686" lon="6.9106">
        <ele>253.19999694824</ele>
        <time>2012-01-07T11:29:17.000Z</time>
      </trkpt>
      <trkpt lat="43.49692" lon="6.91094">
        <ele>251.60000610352</ele>
        <time>2012-01-07T11:29:24.000Z</time>
      </trkpt>
      <trkpt lat="43.49697" lon="6.9112">
        <ele>252.60000610352</ele>
        <time>2012-01-07T11:29:29.000Z</time>
      </trkpt>
      <trkpt lat="43.49705" lon="6.91155">
        <ele>252.19999694824</ele>
        <time>2012-01-07T11:29:35.000Z</time>
      </trkpt>
      <trkpt lat="43.49709" lon="6.91172">
        <ele>252.19999694824</ele>
        <time>2012-01-07T11:29:38.000Z</time>
      </trkpt>
      <trkpt lat="43.49711" lon="6.91202">
        <ele>256.20001220703</ele>
        <time>2012-01-07T11:29:43.000Z</time>
      </trkpt>
      <trkpt lat="43.49716" lon="6.91226">
        <ele>257.60000610352</ele>
        <time>2012-01-07T11:29:47.000Z</time>
      </trkpt>
      <trkpt lat="43.49722" lon="6.91241">
        <ele>257.20001220703</ele>
        <time>2012-01-07T11:29:50.000Z</time>
      </trkpt>
      <trkpt lat="43.4974" lon="6.91273">
        <ele>254.19999694824</ele>
        <time>2012-01-07T11:29:56.000Z</time>
      </trkpt>
      <trkpt lat="43.49744" lon="6.91277">
        <ele>253.60000610352</ele>
        <time>2012-01-07T11:29:57.000Z</time>
      </trkpt>
      <trkpt lat="43.49766" lon="6.91294">
        <ele>250.19999694824</ele>
        <time>2012-01-07T11:30:02.000Z</time>
      </trkpt>
      <trkpt lat="43.49781" lon="6.91298">
        <ele>247.39999389648</ele>
        <time>2012-01-07T11:30:06.000Z</time>
      </trkpt>
      <trkpt lat="43.49797" lon="6.91311">
        <ele>245.39999389648</ele>
        <time>2012-01-07T11:30:11.000Z</time>
      </trkpt>
      <trkpt lat="43.49799" lon="6.91315">
        <ele>245.39999389648</ele>
        <time>2012-01-07T11:30:12.000Z</time>
      </trkpt>
      <trkpt lat="43.49813" lon="6.91349">
        <ele>247.60000610352</ele>
        <time>2012-01-07T11:30:20.000Z</time>
      </trkpt>
      <trkpt lat="43.49821" lon="6.91367">
        <ele>249</ele>
        <time>2012-01-07T11:30:26.000Z</time>
      </trkpt>
      <trkpt lat="43.49832" lon="6.91386">
        <ele>250</ele>
        <time>2012-01-07T11:30:32.000Z</time>
      </trkpt>
      <trkpt lat="43.49849" lon="6.91406">
        <ele>248.19999694824</ele>
        <time>2012-01-07T11:30:38.000Z</time>
      </trkpt>
      <trkpt lat="43.49868" lon="6.91423">
        <ele>245.39999389648</ele>
        <time>2012-01-07T11:30:44.000Z</time>
      </trkpt>
      <trkpt lat="43.49882" lon="6.91438">
        <ele>242.39999389648</ele>
        <time>2012-01-07T11:30:49.000Z</time>
      </trkpt>
      <trkpt lat="43.49897" lon="6.91463">
        <ele>240.39999389648</ele>
        <time>2012-01-07T11:30:55.000Z</time>
      </trkpt>
      <trkpt lat="43.49903" lon="6.91481">
        <ele>240.80000305176</ele>
        <time>2012-01-07T11:30:59.000Z</time>
      </trkpt>
      <trkpt lat="43.49902" lon="6.91512">
        <ele>241.60000610352</ele>
        <time>2012-01-07T11:31:05.000Z</time>
      </trkpt>
      <trkpt lat="43.49891" lon="6.91545">
        <ele>238.60000610352</ele>
        <time>2012-01-07T11:31:12.000Z</time>
      </trkpt>
      <trkpt lat="43.49874" lon="6.91573">
        <ele>237.19999694824</ele>
        <time>2012-01-07T11:31:19.000Z</time>
      </trkpt>
      <trkpt lat="43.49855" lon="6.91586">
        <ele>238.60000610352</ele>
        <time>2012-01-07T11:31:25.000Z</time>
      </trkpt>
      <trkpt lat="43.49835" lon="6.91583">
        <ele>244.60000610352</ele>
        <time>2012-01-07T11:31:31.000Z</time>
      </trkpt>
      <trkpt lat="43.49815" lon="6.91569">
        <ele>248.19999694824</ele>
        <time>2012-01-07T11:31:38.000Z</time>
      </trkpt>
      <trkpt lat="43.49802" lon="6.91558">
        <ele>250.80000305176</ele>
        <time>2012-01-07T11:31:43.000Z</time>
      </trkpt>
      <trkpt lat="43.49787" lon="6.9155">
        <ele>252.80000305176</ele>
        <time>2012-01-07T11:31:49.000Z</time>
      </trkpt>
      <trkpt lat="43.49769" lon="6.9154">
        <ele>255.39999389648</ele>
        <time>2012-01-07T11:31:55.000Z</time>
      </trkpt>
      <trkpt lat="43.49752" lon="6.91536">
        <ele>256.60000610352</ele>
        <time>2012-01-07T11:32:02.000Z</time>
      </trkpt>
      <trkpt lat="43.49736" lon="6.91537">
        <ele>259.60000610352</ele>
        <time>2012-01-07T11:32:08.000Z</time>
      </trkpt>
      <trkpt lat="43.4972" lon="6.91542">
        <ele>262</ele>
        <time>2012-01-07T11:32:14.000Z</time>
      </trkpt>
      <trkpt lat="43.49706" lon="6.91558">
        <ele>260.60000610352</ele>
        <time>2012-01-07T11:32:19.000Z</time>
      </trkpt>
      <trkpt lat="43.49694" lon="6.91578">
        <ele>257.79998779297</ele>
        <time>2012-01-07T11:32:24.000Z</time>
      </trkpt>
      <trkpt lat="43.49681" lon="6.91597">
        <ele>256.79998779297</ele>
        <time>2012-01-07T11:32:29.000Z</time>
      </trkpt>
      <trkpt lat="43.49663" lon="6.91633">
        <ele>254.19999694824</ele>
        <time>2012-01-07T11:32:37.000Z</time>
      </trkpt>
      <trkpt lat="43.49652" lon="6.91669">
        <ele>250.60000610352</ele>
        <time>2012-01-07T11:32:44.000Z</time>
      </trkpt>
      <trkpt lat="43.49645" lon="6.91705">
        <ele>248.60000610352</ele>
        <time>2012-01-07T11:32:51.000Z</time>
      </trkpt>
      <trkpt lat="43.49641" lon="6.91736">
        <ele>245.19999694824</ele>
        <time>2012-01-07T11:32:58.000Z</time>
      </trkpt>
      <trkpt lat="43.49643" lon="6.91761">
        <ele>242.39999389648</ele>
        <time>2012-01-07T11:33:04.000Z</time>
      </trkpt>
      <trkpt lat="43.49643" lon="6.91763">
        <ele>242.19999694824</ele>
        <time>2012-01-07T11:33:05.000Z</time>
      </trkpt>
      <trkpt lat="43.49644" lon="6.91766">
        <ele>241.80000305176</ele>
        <time>2012-01-07T11:33:11.000Z</time>
      </trkpt>
      <trkpt lat="43.4965" lon="6.91789">
        <ele>239.60000610352</ele>
        <time>2012-01-07T11:33:16.000Z</time>
      </trkpt>
      <trkpt lat="43.49662" lon="6.91821">
        <ele>238.19999694824</ele>
        <time>2012-01-07T11:33:21.000Z</time>
      </trkpt>
      <trkpt lat="43.49676" lon="6.91855">
        <ele>233.80000305176</ele>
        <time>2012-01-07T11:33:27.000Z</time>
      </trkpt>
      <trkpt lat="43.49687" lon="6.91888">
        <ele>230</ele>
        <time>2012-01-07T11:33:32.000Z</time>
      </trkpt>
      <trkpt lat="43.49703" lon="6.91922">
        <ele>228.19999694824</ele>
        <time>2012-01-07T11:33:37.000Z</time>
      </trkpt>
      <trkpt lat="43.49725" lon="6.91969">
        <ele>227.39999389648</ele>
        <time>2012-01-07T11:33:42.000Z</time>
      </trkpt>
      <trkpt lat="43.49749" lon="6.92032">
        <ele>230.60000610352</ele>
        <time>2012-01-07T11:33:48.000Z</time>
      </trkpt>
      <trkpt lat="43.49759" lon="6.92067">
        <ele>228.19999694824</ele>
        <time>2012-01-07T11:33:51.000Z</time>
      </trkpt>
      <trkpt lat="43.49771" lon="6.92097">
        <ele>226.60000610352</ele>
        <time>2012-01-07T11:33:54.000Z</time>
      </trkpt>
      <trkpt lat="43.49785" lon="6.92143">
        <ele>227.19999694824</ele>
        <time>2012-01-07T11:33:59.000Z</time>
      </trkpt>
      <trkpt lat="43.49802" lon="6.92178">
        <ele>228.39999389648</ele>
        <time>2012-01-07T11:34:04.000Z</time>
      </trkpt>
      <trkpt lat="43.49814" lon="6.92202">
        <ele>229.19999694824</ele>
        <time>2012-01-07T11:34:08.000Z</time>
      </trkpt>
      <trkpt lat="43.49817" lon="6.92221">
        <ele>229.60000610352</ele>
        <time>2012-01-07T11:34:13.000Z</time>
      </trkpt>
      <trkpt lat="43.49807" lon="6.92227">
        <ele>227.60000610352</ele>
        <time>2012-01-07T11:34:17.000Z</time>
      </trkpt>
      <trkpt lat="43.49783" lon="6.92228">
        <ele>222.60000610352</ele>
        <time>2012-01-07T11:34:24.000Z</time>
      </trkpt>
      <trkpt lat="43.49762" lon="6.92215">
        <ele>220.39999389648</ele>
        <time>2012-01-07T11:34:30.000Z</time>
      </trkpt>
      <trkpt lat="43.49741" lon="6.92188">
        <ele>219.39999389648</ele>
        <time>2012-01-07T11:34:36.000Z</time>
      </trkpt>
      <trkpt lat="43.49738" lon="6.92182">
        <ele>219.19999694824</ele>
        <time>2012-01-07T11:34:37.000Z</time>
      </trkpt>
      <trkpt lat="43.49725" lon="6.92145">
        <ele>217.39999389648</ele>
        <time>2012-01-07T11:34:42.000Z</time>
      </trkpt>
      <trkpt lat="43.49714" lon="6.92071">
        <ele>217.39999389648</ele>
        <time>2012-01-07T11:34:50.000Z</time>
      </trkpt>
      <trkpt lat="43.49703" lon="6.92034">
        <ele>217.39999389648</ele>
        <time>2012-01-07T11:34:54.000Z</time>
      </trkpt>
      <trkpt lat="43.49693" lon="6.92019">
        <ele>216.19999694824</ele>
        <time>2012-01-07T11:34:56.000Z</time>
      </trkpt>
      <trkpt lat="43.49663" lon="6.91973">
        <ele>215.60000610352</ele>
        <time>2012-01-07T11:35:02.000Z</time>
      </trkpt>
      <trkpt lat="43.49632" lon="6.91923">
        <ele>216.19999694824</ele>
        <time>2012-01-07T11:35:08.000Z</time>
      </trkpt>
      <trkpt lat="43.49622" lon="6.91907">
        <ele>216.80000305176</ele>
        <time>2012-01-07T11:35:10.000Z</time>
      </trkpt>
      <trkpt lat="43.49595" lon="6.91883">
        <ele>215.80000305176</ele>
        <time>2012-01-07T11:35:15.000Z</time>
      </trkpt>
      <trkpt lat="43.49589" lon="6.91879">
        <ele>215.60000610352</ele>
        <time>2012-01-07T11:35:16.000Z</time>
      </trkpt>
      <trkpt lat="43.49569" lon="6.91866">
        <ele>218.60000610352</ele>
        <time>2012-01-07T11:35:20.000Z</time>
      </trkpt>
      <trkpt lat="43.49557" lon="6.91878">
        <ele>216</ele>
        <time>2012-01-07T11:35:23.000Z</time>
      </trkpt>
      <trkpt lat="43.49554" lon="6.91888">
        <ele>213</ele>
        <time>2012-01-07T11:35:24.000Z</time>
      </trkpt>
      <trkpt lat="43.49531" lon="6.91939">
        <ele>201.19999694824</ele>
        <time>2012-01-07T11:35:31.000Z</time>
      </trkpt>
      <trkpt lat="43.49529" lon="6.91946">
        <ele>200</ele>
        <time>2012-01-07T11:35:32.000Z</time>
      </trkpt>
      <trkpt lat="43.49513" lon="6.9196">
        <ele>197.39999389648</ele>
        <time>2012-01-07T11:35:37.000Z</time>
      </trkpt>
      <trkpt lat="43.49498" lon="6.91951">
        <ele>199.39999389648</ele>
        <time>2012-01-07T11:35:41.000Z</time>
      </trkpt>
      <trkpt lat="43.49485" lon="6.91954">
        <ele>198.60000610352</ele>
        <time>2012-01-07T11:35:44.000Z</time>
      </trkpt>
      <trkpt lat="43.49478" lon="6.91964">
        <ele>196.19999694824</ele>
        <time>2012-01-07T11:35:46.000Z</time>
      </trkpt>
      <trkpt lat="43.49448" lon="6.92002">
        <ele>187</ele>
        <time>2012-01-07T11:35:53.000Z</time>
      </trkpt>
      <trkpt lat="43.49437" lon="6.9201">
        <ele>186</ele>
        <time>2012-01-07T11:35:55.000Z</time>
      </trkpt>
      <trkpt lat="43.49417" lon="6.92038">
        <ele>184.60000610352</ele>
        <time>2012-01-07T11:36:00.000Z</time>
      </trkpt>
      <trkpt lat="43.49415" lon="6.92043">
        <ele>184</ele>
        <time>2012-01-07T11:36:01.000Z</time>
      </trkpt>
      <trkpt lat="43.49413" lon="6.9205">
        <ele>183.19999694824</ele>
        <time>2012-01-07T11:36:03.000Z</time>
      </trkpt>
      <trkpt lat="43.49412" lon="6.92056">
        <ele>182.80000305176</ele>
        <time>2012-01-07T11:36:08.000Z</time>
      </trkpt>
      <trkpt lat="43.49412" lon="6.92056">
        <ele>182.80000305176</ele>
        <time>2012-01-07T11:36:21.000Z</time>
      </trkpt>
      <trkpt lat="43.49413" lon="6.92056">
        <ele>183</ele>
        <time>2012-01-07T11:36:25.000Z</time>
      </trkpt>
      <trkpt lat="43.49415" lon="6.9206">
        <ele>183.60000610352</ele>
        <time>2012-01-07T11:36:32.000Z</time>
      </trkpt>
      <trkpt lat="43.49416" lon="6.92057">
        <ele>183.80000305176</ele>
        <time>2012-01-07T11:36:59.000Z</time>
      </trkpt>
      <trkpt lat="43.49416" lon="6.92058">
        <ele>183.80000305176</ele>
        <time>2012-01-07T11:37:00.000Z</time>
      </trkpt>
      <trkpt lat="43.4942" lon="6.92071">
        <ele>183.39999389648</ele>
        <time>2012-01-07T11:37:04.000Z</time>
      </trkpt>
      <trkpt lat="43.49426" lon="6.92095">
        <ele>183.39999389648</ele>
        <time>2012-01-07T11:37:09.000Z</time>
      </trkpt>
      <trkpt lat="43.49431" lon="6.92113">
        <ele>184.19999694824</ele>
        <time>2012-01-07T11:37:14.000Z</time>
      </trkpt>
      <trkpt lat="43.49438" lon="6.92129">
        <ele>184.39999389648</ele>
        <time>2012-01-07T11:37:19.000Z</time>
      </trkpt>
      <trkpt lat="43.4944" lon="6.92133">
        <ele>184.39999389648</ele>
        <time>2012-01-07T11:37:21.000Z</time>
      </trkpt>
      <trkpt lat="43.4945" lon="6.9215">
        <ele>184</ele>
        <time>2012-01-07T11:37:28.000Z</time>
      </trkpt>
      <trkpt lat="43.49455" lon="6.9218">
        <ele>185</ele>
        <time>2012-01-07T11:37:35.000Z</time>
      </trkpt>
      <trkpt lat="43.4946" lon="6.92218">
        <ele>187</ele>
        <time>2012-01-07T11:37:41.000Z</time>
      </trkpt>
      <trkpt lat="43.49463" lon="6.92228">
        <ele>187.19999694824</ele>
        <time>2012-01-07T11:37:43.000Z</time>
      </trkpt>
      <trkpt lat="43.49471" lon="6.92251">
        <ele>187.39999389648</ele>
        <time>2012-01-07T11:37:47.000Z</time>
      </trkpt>
      <trkpt lat="43.49481" lon="6.92263">
        <ele>184.19999694824</ele>
        <time>2012-01-07T11:37:50.000Z</time>
      </trkpt>
      <trkpt lat="43.49494" lon="6.92285">
        <ele>179.60000610352</ele>
        <time>2012-01-07T11:37:55.000Z</time>
      </trkpt>
      <trkpt lat="43.495" lon="6.92306">
        <ele>176.19999694824</ele>
        <time>2012-01-07T11:38:00.000Z</time>
      </trkpt>
      <trkpt lat="43.49502" lon="6.92315">
        <ele>174.60000610352</ele>
        <time>2012-01-07T11:38:02.000Z</time>
      </trkpt>
      <trkpt lat="43.49507" lon="6.92342">
        <ele>170.39999389648</ele>
        <time>2012-01-07T11:38:08.000Z</time>
      </trkpt>
      <trkpt lat="43.49508" lon="6.92359">
        <ele>168.60000610352</ele>
        <time>2012-01-07T11:38:11.000Z</time>
      </trkpt>
      <trkpt lat="43.49501" lon="6.92375">
        <ele>168.80000305176</ele>
        <time>2012-01-07T11:38:16.000Z</time>
      </trkpt>
      <trkpt lat="43.49498" lon="6.92394">
        <ele>167.19999694824</ele>
        <time>2012-01-07T11:38:20.000Z</time>
      </trkpt>
      <trkpt lat="43.49499" lon="6.92424">
        <ele>164.19999694824</ele>
        <time>2012-01-07T11:38:25.000Z</time>
      </trkpt>
      <trkpt lat="43.495" lon="6.92448">
        <ele>162.39999389648</ele>
        <time>2012-01-07T11:38:29.000Z</time>
      </trkpt>
      <trkpt lat="43.49502" lon="6.92469">
        <ele>160</ele>
        <time>2012-01-07T11:38:33.000Z</time>
      </trkpt>
      <trkpt lat="43.495" lon="6.92483">
        <ele>159.39999389648</ele>
        <time>2012-01-07T11:38:35.000Z</time>
      </trkpt>
      <trkpt lat="43.49502" lon="6.92504">
        <ele>156.80000305176</ele>
        <time>2012-01-07T11:38:38.000Z</time>
      </trkpt>
      <trkpt lat="43.495" lon="6.92527">
        <ele>153</ele>
        <time>2012-01-07T11:38:43.000Z</time>
      </trkpt>
      <trkpt lat="43.495" lon="6.92529">
        <ele>152.60000610352</ele>
        <time>2012-01-07T11:38:47.000Z</time>
      </trkpt>
      <trkpt lat="43.49499" lon="6.92532">
        <ele>152</ele>
        <time>2012-01-07T11:38:49.000Z</time>
      </trkpt>
      <trkpt lat="43.49495" lon="6.9254">
        <ele>149.80000305176</ele>
        <time>2012-01-07T11:38:54.000Z</time>
      </trkpt>
      <trkpt lat="43.49496" lon="6.92544">
        <ele>149.19999694824</ele>
        <time>2012-01-07T11:38:57.000Z</time>
      </trkpt>
      <trkpt lat="43.49496" lon="6.92547">
        <ele>148.60000610352</ele>
        <time>2012-01-07T11:39:04.000Z</time>
      </trkpt>
      <trkpt lat="43.49495" lon="6.92551">
        <ele>147.80000305176</ele>
        <time>2012-01-07T11:39:10.000Z</time>
      </trkpt>
      <trkpt lat="43.49495" lon="6.92554">
        <ele>147.19999694824</ele>
        <time>2012-01-07T11:39:15.000Z</time>
      </trkpt>
      <trkpt lat="43.49493" lon="6.92559">
        <ele>146</ele>
        <time>2012-01-07T11:39:21.000Z</time>
      </trkpt>
      <trkpt lat="43.49495" lon="6.92565">
        <ele>145.19999694824</ele>
        <time>2012-01-07T11:39:25.000Z</time>
      </trkpt>
      <trkpt lat="43.49495" lon="6.92574">
        <ele>143.60000610352</ele>
        <time>2012-01-07T11:39:30.000Z</time>
      </trkpt>
      <trkpt lat="43.49498" lon="6.92577">
        <ele>143.80000305176</ele>
        <time>2012-01-07T11:39:37.000Z</time>
      </trkpt>
      <trkpt lat="43.49497" lon="6.92577">
        <ele>143.60000610352</ele>
        <time>2012-01-07T11:39:44.000Z</time>
      </trkpt>
      <trkpt lat="43.49495" lon="6.92576">
        <ele>143.19999694824</ele>
        <time>2012-01-07T11:39:49.000Z</time>
      </trkpt>
      <trkpt lat="43.49494" lon="6.92575">
        <ele>143.19999694824</ele>
        <time>2012-01-07T11:39:59.000Z</time>
      </trkpt>
      <trkpt lat="43.49494" lon="6.92578">
        <ele>142.39999389648</ele>
        <time>2012-01-07T11:40:03.000Z</time>
      </trkpt>
      <trkpt lat="43.49496" lon="6.92591">
        <ele>140.60000610352</ele>
        <time>2012-01-07T11:40:08.000Z</time>
      </trkpt>
      <trkpt lat="43.49496" lon="6.92602">
        <ele>138.60000610352</ele>
        <time>2012-01-07T11:40:14.000Z</time>
      </trkpt>
      <trkpt lat="43.49499" lon="6.92618">
        <ele>136.60000610352</ele>
        <time>2012-01-07T11:40:20.000Z</time>
      </trkpt>
      <trkpt lat="43.49501" lon="6.92635">
        <ele>133.60000610352</ele>
        <time>2012-01-07T11:40:24.000Z</time>
      </trkpt>
      <trkpt lat="43.49497" lon="6.92648">
        <ele>130.60000610352</ele>
        <time>2012-01-07T11:40:27.000Z</time>
      </trkpt>
      <trkpt lat="43.49493" lon="6.92655">
        <ele>128.39999389648</ele>
        <time>2012-01-07T11:40:30.000Z</time>
      </trkpt>
      <trkpt lat="43.49496" lon="6.92667">
        <ele>127</ele>
        <time>2012-01-07T11:40:36.000Z</time>
      </trkpt>
      <trkpt lat="43.49495" lon="6.92676">
        <ele>126</ele>
        <time>2012-01-07T11:40:39.000Z</time>
      </trkpt>
      <trkpt lat="43.49491" lon="6.92696">
        <ele>123.40000152588</ele>
        <time>2012-01-07T11:40:44.000Z</time>
      </trkpt>
      <trkpt lat="43.49491" lon="6.92721">
        <ele>121</ele>
        <time>2012-01-07T11:40:48.000Z</time>
      </trkpt>
      <trkpt lat="43.49485" lon="6.92755">
        <ele>117.80000305176</ele>
        <time>2012-01-07T11:40:53.000Z</time>
      </trkpt>
      <trkpt lat="43.49487" lon="6.92769">
        <ele>119</ele>
        <time>2012-01-07T11:40:58.000Z</time>
      </trkpt>
      <trkpt lat="43.49489" lon="6.92773">
        <ele>119.40000152588</ele>
        <time>2012-01-07T11:41:15.000Z</time>
      </trkpt>
      <trkpt lat="43.4949" lon="6.92774">
        <ele>119.59999847412</ele>
        <time>2012-01-07T11:41:29.000Z</time>
      </trkpt>
      <trkpt lat="43.49491" lon="6.92775">
        <ele>119.80000305176</ele>
        <time>2012-01-07T11:41:38.000Z</time>
      </trkpt>
      <trkpt lat="43.4949" lon="6.92775">
        <ele>119.59999847412</ele>
        <time>2012-01-07T11:41:55.000Z</time>
      </trkpt>
      <trkpt lat="43.49496" lon="6.92782">
        <ele>120.80000305176</ele>
        <time>2012-01-07T11:42:00.000Z</time>
      </trkpt>
      <trkpt lat="43.49499" lon="6.92786">
        <ele>121.19999694824</ele>
        <time>2012-01-07T11:42:02.000Z</time>
      </trkpt>
      <trkpt lat="43.4951" lon="6.92813">
        <ele>120.19999694824</ele>
        <time>2012-01-07T11:42:07.000Z</time>
      </trkpt>
      <trkpt lat="43.49512" lon="6.92826">
        <ele>119.80000305176</ele>
        <time>2012-01-07T11:42:10.000Z</time>
      </trkpt>
      <trkpt lat="43.49519" lon="6.92836">
        <ele>118.40000152588</ele>
        <time>2012-01-07T11:42:13.000Z</time>
      </trkpt>
      <trkpt lat="43.49533" lon="6.92841">
        <ele>115.59999847412</ele>
        <time>2012-01-07T11:42:17.000Z</time>
      </trkpt>
      <trkpt lat="43.49543" lon="6.9285">
        <ele>114</ele>
        <time>2012-01-07T11:42:20.000Z</time>
      </trkpt>
      <trkpt lat="43.49553" lon="6.92866">
        <ele>112.80000305176</ele>
        <time>2012-01-07T11:42:24.000Z</time>
      </trkpt>
      <trkpt lat="43.49564" lon="6.92876">
        <ele>110.40000152588</ele>
        <time>2012-01-07T11:42:28.000Z</time>
      </trkpt>
      <trkpt lat="43.49576" lon="6.92882">
        <ele>107.19999694824</ele>
        <time>2012-01-07T11:42:32.000Z</time>
      </trkpt>
      <trkpt lat="43.49586" lon="6.92899">
        <ele>105.59999847412</ele>
        <time>2012-01-07T11:42:37.000Z</time>
      </trkpt>
      <trkpt lat="43.49596" lon="6.92915">
        <ele>104.80000305176</ele>
        <time>2012-01-07T11:42:42.000Z</time>
      </trkpt>
      <trkpt lat="43.49608" lon="6.92936">
        <ele>103.80000305176</ele>
        <time>2012-01-07T11:42:49.000Z</time>
      </trkpt>
      <trkpt lat="43.49617" lon="6.92945">
        <ele>102.59999847412</ele>
        <time>2012-01-07T11:42:54.000Z</time>
      </trkpt>
      <trkpt lat="43.49621" lon="6.92948">
        <ele>102</ele>
        <time>2012-01-07T11:42:56.000Z</time>
      </trkpt>
      <trkpt lat="43.49625" lon="6.92954">
        <ele>101.19999694824</ele>
        <time>2012-01-07T11:43:00.000Z</time>
      </trkpt>
      <trkpt lat="43.49644" lon="6.92956">
        <ele>97.599998474121</ele>
        <time>2012-01-07T11:43:05.000Z</time>
      </trkpt>
      <trkpt lat="43.49658" lon="6.92963">
        <ele>94.800003051758</ele>
        <time>2012-01-07T11:43:10.000Z</time>
      </trkpt>
      <trkpt lat="43.49667" lon="6.92971">
        <ele>93</ele>
        <time>2012-01-07T11:43:14.000Z</time>
      </trkpt>
      <trkpt lat="43.4968" lon="6.92986">
        <ele>93</ele>
        <time>2012-01-07T11:43:19.000Z</time>
      </trkpt>
      <trkpt lat="43.49688" lon="6.92999">
        <ele>92.599998474121</ele>
        <time>2012-01-07T11:43:24.000Z</time>
      </trkpt>
      <trkpt lat="43.49691" lon="6.93005">
        <ele>92.199996948242</ele>
        <time>2012-01-07T11:43:29.000Z</time>
      </trkpt>
      <trkpt lat="43.49694" lon="6.93007">
        <ele>92</ele>
        <time>2012-01-07T11:43:33.000Z</time>
      </trkpt>
      <trkpt lat="43.49705" lon="6.93014">
        <ele>91.199996948242</ele>
        <time>2012-01-07T11:43:38.000Z</time>
      </trkpt>
      <trkpt lat="43.49709" lon="6.93027">
        <ele>90</ele>
        <time>2012-01-07T11:43:42.000Z</time>
      </trkpt>
      <trkpt lat="43.49714" lon="6.93037">
        <ele>89</ele>
        <time>2012-01-07T11:43:47.000Z</time>
      </trkpt>
      <trkpt lat="43.49714" lon="6.93042">
        <ele>88.599998474121</ele>
        <time>2012-01-07T11:43:48.000Z</time>
      </trkpt>
      <trkpt lat="43.49711" lon="6.93074">
        <ele>86.400001525879</ele>
        <time>2012-01-07T11:43:54.000Z</time>
      </trkpt>
      <trkpt lat="43.49703" lon="6.93095">
        <ele>85.800003051758</ele>
        <time>2012-01-07T11:43:58.000Z</time>
      </trkpt>
      <trkpt lat="43.49702" lon="6.93103">
        <ele>85.199996948242</ele>
        <time>2012-01-07T11:43:59.000Z</time>
      </trkpt>
      <trkpt lat="43.49688" lon="6.93138">
        <ele>83</ele>
        <time>2012-01-07T11:44:04.000Z</time>
      </trkpt>
      <trkpt lat="43.49676" lon="6.93169">
        <ele>80</ele>
        <time>2012-01-07T11:44:09.000Z</time>
      </trkpt>
      <trkpt lat="43.49666" lon="6.93182">
        <ele>79.400001525879</ele>
        <time>2012-01-07T11:44:13.000Z</time>
      </trkpt>
      <trkpt lat="43.49665" lon="6.93194">
        <ele>79.400001525879</ele>
        <time>2012-01-07T11:44:17.000Z</time>
      </trkpt>
      <trkpt lat="43.4967" lon="6.93209">
        <ele>78.199996948242</ele>
        <time>2012-01-07T11:44:21.000Z</time>
      </trkpt>
      <trkpt lat="43.49671" lon="6.93215">
        <ele>78</ele>
        <time>2012-01-07T11:44:23.000Z</time>
      </trkpt>
      <trkpt lat="43.49672" lon="6.93217">
        <ele>78</ele>
        <time>2012-01-07T11:44:25.000Z</time>
      </trkpt>
      <trkpt lat="43.49672" lon="6.93228">
        <ele>77.599998474121</ele>
        <time>2012-01-07T11:44:30.000Z</time>
      </trkpt>
      <trkpt lat="43.49672" lon="6.9325">
        <ele>76.800003051758</ele>
        <time>2012-01-07T11:44:36.000Z</time>
      </trkpt>
      <trkpt lat="43.49671" lon="6.93274">
        <ele>74.599998474121</ele>
        <time>2012-01-07T11:44:41.000Z</time>
      </trkpt>
      <trkpt lat="43.49663" lon="6.93293">
        <ele>73.400001525879</ele>
        <time>2012-01-07T11:44:45.000Z</time>
      </trkpt>
      <trkpt lat="43.49661" lon="6.93316">
        <ele>72.400001525879</ele>
        <time>2012-01-07T11:44:49.000Z</time>
      </trkpt>
      <trkpt lat="43.49659" lon="6.93344">
        <ele>71.400001525879</ele>
        <time>2012-01-07T11:44:54.000Z</time>
      </trkpt>
      <trkpt lat="43.49665" lon="6.93353">
        <ele>69.400001525879</ele>
        <time>2012-01-07T11:44:57.000Z</time>
      </trkpt>
      <trkpt lat="43.49669" lon="6.93358">
        <ele>69</ele>
        <time>2012-01-07T11:45:01.000Z</time>
      </trkpt>
      <trkpt lat="43.4967" lon="6.93361">
        <ele>69.199996948242</ele>
        <time>2012-01-07T11:45:03.000Z</time>
      </trkpt>
      <trkpt lat="43.49676" lon="6.93381">
        <ele>69.400001525879</ele>
        <time>2012-01-07T11:45:08.000Z</time>
      </trkpt>
      <trkpt lat="43.4968" lon="6.93393">
        <ele>69.599998474121</ele>
        <time>2012-01-07T11:45:12.000Z</time>
      </trkpt>
      <trkpt lat="43.49685" lon="6.93406">
        <ele>69.599998474121</ele>
        <time>2012-01-07T11:45:18.000Z</time>
      </trkpt>
      <trkpt lat="43.49693" lon="6.93427">
        <ele>69.199996948242</ele>
        <time>2012-01-07T11:45:24.000Z</time>
      </trkpt>
      <trkpt lat="43.49697" lon="6.93456">
        <ele>68</ele>
        <time>2012-01-07T11:45:29.000Z</time>
      </trkpt>
      <trkpt lat="43.49704" lon="6.93481">
        <ele>66.199996948242</ele>
        <time>2012-01-07T11:45:33.000Z</time>
      </trkpt>
      <trkpt lat="43.49702" lon="6.93506">
        <ele>65</ele>
        <time>2012-01-07T11:45:38.000Z</time>
      </trkpt>
      <trkpt lat="43.49699" lon="6.93509">
        <ele>65.199996948242</ele>
        <time>2012-01-07T11:45:39.000Z</time>
      </trkpt>
      <trkpt lat="43.49677" lon="6.93534">
        <ele>66.800003051758</ele>
        <time>2012-01-07T11:45:47.000Z</time>
      </trkpt>
      <trkpt lat="43.4967" lon="6.9355">
        <ele>66.800003051758</ele>
        <time>2012-01-07T11:45:51.000Z</time>
      </trkpt>
      <trkpt lat="43.49673" lon="6.93561">
        <ele>66.199996948242</ele>
        <time>2012-01-07T11:45:56.000Z</time>
      </trkpt>
      <trkpt lat="43.49678" lon="6.93559">
        <ele>65.800003051758</ele>
        <time>2012-01-07T11:45:58.000Z</time>
      </trkpt>
      <trkpt lat="43.49691" lon="6.9355">
        <ele>65</ele>
        <time>2012-01-07T11:46:03.000Z</time>
      </trkpt>
      <trkpt lat="43.4971" lon="6.93545">
        <ele>63.400001525879</ele>
        <time>2012-01-07T11:46:08.000Z</time>
      </trkpt>
      <trkpt lat="43.49725" lon="6.93552">
        <ele>61.799999237061</ele>
        <time>2012-01-07T11:46:12.000Z</time>
      </trkpt>
      <trkpt lat="43.49739" lon="6.93556">
        <ele>60.400001525879</ele>
        <time>2012-01-07T11:46:15.000Z</time>
      </trkpt>
      <trkpt lat="43.49758" lon="6.93567">
        <ele>58.400001525879</ele>
        <time>2012-01-07T11:46:21.000Z</time>
      </trkpt>
      <trkpt lat="43.49777" lon="6.93578">
        <ele>55.599998474121</ele>
        <time>2012-01-07T11:46:26.000Z</time>
      </trkpt>
      <trkpt lat="43.49802" lon="6.93589">
        <ele>52.400001525879</ele>
        <time>2012-01-07T11:46:32.000Z</time>
      </trkpt>
      <trkpt lat="43.49809" lon="6.93592">
        <ele>51.799999237061</ele>
        <time>2012-01-07T11:46:34.000Z</time>
      </trkpt>
      <trkpt lat="43.49818" lon="6.93603">
        <ele>51.799999237061</ele>
        <time>2012-01-07T11:46:39.000Z</time>
      </trkpt>
      <trkpt lat="43.49827" lon="6.93616">
        <ele>51.799999237061</ele>
        <time>2012-01-07T11:46:43.000Z</time>
      </trkpt>
      <trkpt lat="43.49837" lon="6.93628">
        <ele>51.599998474121</ele>
        <time>2012-01-07T11:46:47.000Z</time>
      </trkpt>
      <trkpt lat="43.49849" lon="6.93638">
        <ele>51.799999237061</ele>
        <time>2012-01-07T11:46:52.000Z</time>
      </trkpt>
      <trkpt lat="43.49866" lon="6.93638">
        <ele>50.599998474121</ele>
        <time>2012-01-07T11:46:57.000Z</time>
      </trkpt>
      <trkpt lat="43.49884" lon="6.93636">
        <ele>49.200000762939</ele>
        <time>2012-01-07T11:47:02.000Z</time>
      </trkpt>
      <trkpt lat="43.49884" lon="6.93637">
        <ele>49.200000762939</ele>
        <time>2012-01-07T11:47:03.000Z</time>
      </trkpt>
      <trkpt lat="43.49888" lon="6.93641">
        <ele>49</ele>
        <time>2012-01-07T11:47:07.000Z</time>
      </trkpt>
      <trkpt lat="43.4989" lon="6.93642">
        <ele>49</ele>
        <time>2012-01-07T11:47:14.000Z</time>
      </trkpt>
      <trkpt lat="43.49898" lon="6.93644">
        <ele>48.400001525879</ele>
        <time>2012-01-07T11:47:22.000Z</time>
      </trkpt>
      <trkpt lat="43.49906" lon="6.93643">
        <ele>47.799999237061</ele>
        <time>2012-01-07T11:47:27.000Z</time>
      </trkpt>
      <trkpt lat="43.49906" lon="6.93643">
        <ele>47.599998474121</ele>
        <time>2012-01-07T11:47:34.000Z</time>
      </trkpt>
      <trkpt lat="43.4991" lon="6.93648">
        <ele>47.200000762939</ele>
        <time>2012-01-07T11:47:42.000Z</time>
      </trkpt>
      <trkpt lat="43.49915" lon="6.93651">
        <ele>46.799999237061</ele>
        <time>2012-01-07T11:47:50.000Z</time>
      </trkpt>
      <trkpt lat="43.49924" lon="6.93655">
        <ele>46</ele>
        <time>2012-01-07T11:47:54.000Z</time>
      </trkpt>
      <trkpt lat="43.49942" lon="6.93668">
        <ele>44</ele>
        <time>2012-01-07T11:48:00.000Z</time>
      </trkpt>
      <trkpt lat="43.49949" lon="6.93671">
        <ele>44.200000762939</ele>
        <time>2012-01-07T11:48:03.000Z</time>
      </trkpt>
      <trkpt lat="43.49953" lon="6.93674">
        <ele>44.599998474121</ele>
        <time>2012-01-07T11:48:07.000Z</time>
      </trkpt>
      <trkpt lat="43.49976" lon="6.93685">
        <ele>44.799999237061</ele>
        <time>2012-01-07T11:48:12.000Z</time>
      </trkpt>
      <trkpt lat="43.50002" lon="6.93703">
        <ele>46</ele>
        <time>2012-01-07T11:48:16.000Z</time>
      </trkpt>
      <trkpt lat="43.50037" lon="6.93709">
        <ele>46.799999237061</ele>
        <time>2012-01-07T11:48:21.000Z</time>
      </trkpt>
      <trkpt lat="43.50075" lon="6.93698">
        <ele>46</ele>
        <time>2012-01-07T11:48:28.000Z</time>
      </trkpt>
      <trkpt lat="43.50096" lon="6.93708">
        <ele>47.200000762939</ele>
        <time>2012-01-07T11:48:32.000Z</time>
      </trkpt>
      <trkpt lat="43.50125" lon="6.93715">
        <ele>48.599998474121</ele>
        <time>2012-01-07T11:48:37.000Z</time>
      </trkpt>
      <trkpt lat="43.50148" lon="6.9371">
        <ele>50</ele>
        <time>2012-01-07T11:48:42.000Z</time>
      </trkpt>
      <trkpt lat="43.50172" lon="6.93704">
        <ele>51</ele>
        <time>2012-01-07T11:48:46.000Z</time>
      </trkpt>
      <trkpt lat="43.50193" lon="6.93708">
        <ele>50</ele>
        <time>2012-01-07T11:48:51.000Z</time>
      </trkpt>
      <trkpt lat="43.50203" lon="6.93705">
        <ele>49.799999237061</ele>
        <time>2012-01-07T11:48:53.000Z</time>
      </trkpt>
      <trkpt lat="43.50223" lon="6.93701">
        <ele>49.200000762939</ele>
        <time>2012-01-07T11:48:56.000Z</time>
      </trkpt>
      <trkpt lat="43.50243" lon="6.93685">
        <ele>49</ele>
        <time>2012-01-07T11:49:00.000Z</time>
      </trkpt>
      <trkpt lat="43.50262" lon="6.93672">
        <ele>47.200000762939</ele>
        <time>2012-01-07T11:49:05.000Z</time>
      </trkpt>
      <trkpt lat="43.50281" lon="6.93683">
        <ele>44.799999237061</ele>
        <time>2012-01-07T11:49:08.000Z</time>
      </trkpt>
      <trkpt lat="43.50301" lon="6.93706">
        <ele>41.799999237061</ele>
        <time>2012-01-07T11:49:12.000Z</time>
      </trkpt>
      <trkpt lat="43.5032" lon="6.93725">
        <ele>39.599998474121</ele>
        <time>2012-01-07T11:49:16.000Z</time>
      </trkpt>
      <trkpt lat="43.50331" lon="6.93728">
        <ele>38.400001525879</ele>
        <time>2012-01-07T11:49:18.000Z</time>
      </trkpt>
      <trkpt lat="43.50348" lon="6.93732">
        <ele>37.200000762939</ele>
        <time>2012-01-07T11:49:23.000Z</time>
      </trkpt>
      <trkpt lat="43.50352" lon="6.93732">
        <ele>37</ele>
        <time>2012-01-07T11:49:27.000Z</time>
      </trkpt>
      <trkpt lat="43.50353" lon="6.93736">
        <ele>36.599998474121</ele>
        <time>2012-01-07T11:49:33.000Z</time>
      </trkpt>
      <trkpt lat="43.50357" lon="6.93732">
        <ele>36.799999237061</ele>
        <time>2012-01-07T11:49:50.000Z</time>
      </trkpt>
      <trkpt lat="43.50355" lon="6.93729">
        <ele>37</ele>
        <time>2012-01-07T11:49:58.000Z</time>
      </trkpt>
      <trkpt lat="43.50354" lon="6.93729">
        <ele>37</ele>
        <time>2012-01-07T11:50:43.000Z</time>
      </trkpt>
    </trkseg>
  </trk>
</gpx>